[[{"header":{"parameterUnit":"m.s-1","parameterCategory":1,"la1":30.6,"la2":29.2853,"lo1":-89.7004,"lo2":-87.6739,"dy":0.0162,"dx":0.0183,"nx":112,"ny":82,"refTime":"2024-04-11T12:00:00:Z","depth":0,"parameterNumber":2,"parameterNumberName":"U-component_of_WINDS"},"data":[0.0,0.0,0.0,0.0,0.0,0.0,0.0,0.0,0.0,0.0,0.0,0.0,0.0,0.0,0.0,0.0,0.0,0.0,0.0,0.0,0.0,0.0,0.0,0.0,0.0,0.0,0.0,0.0,0.0,0.0,0.0,0.0,0.0,0.0,0.0,0.0,0.0,0.0,0.0,0.0,0.0,0.0,0.0,0.0,0.0,0.0,0.0,0.0,0.0,0.0,0.0,0.0,0.0,0.0,0.0,0.0,0.0,0.0,0.0,0.0,0.0,0.0,0.0,0.0,0.0,0.0,0.0,0.0,0.0,0.0,0.0,0.0,0.0,0.0,0.0,0.0,0.0,0.0,0.0,0.0,0.0,0.0,0.0,0.0,0.0,0.0,0.0,0.0,0.0,0.0,0.0,-2.9757,-3.1211,-3.1873,-3.1367,-2.9749,-2.8448,-2.7714,0.0,0.0,0.0,0.0,0.0,0.0,0.0,0.0,0.0,0.0,0.0,0.0,0.0,0.0,0.0,0.0,0.0,0.0,0.0,0.0,0.0,0.0,0.0,0.0,0.0,0.0,0.0,0.0,0.0,0.0,0.0,0.0,0.0,0.0,0.0,0.0,0.0,0.0,0.0,0.0,0.0,0.0,0.0,0.0,0.0,0.0,0.0,0.0,0.0,0.0,0.0,0.0,0.0,0.0,0.0,0.0,0.0,0.0,0.0,0.0,0.0,0.0,0.0,0.0,0.0,0.0,0.0,0.0,0.0,0.0,0.0,0.0,0.0,0.0,0.0,0.0,0.0,0.0,0.0,0.0,0.0,0.0,0.0,0.0,0.0,0.0,0.0,0.0,0.0,0.0,0.0,0.0,0.0,0.0,0.0,0.0,0.0,0.0,0.0,0.0,0.0,0.0,0.0,0.0,-2.8278,-3.116,-3.1736,-3.1925,-3.1868,-2.9873,-2.8324,-2.7582,0.0,0.0,0.0,0.0,0.0,0.0,0.0,0.0,0.0,0.0,0.0,0.0,0.0,0.0,0.0,0.0,0.0,0.0,0.0,0.0,0.0,0.0,0.0,0.0,0.0,0.0,0.0,0.0,0.0,0.0,0.0,0.0,0.0,0.0,0.0,0.0,0.0,0.0,0.0,0.0,0.0,0.0,0.0,0.0,0.0,0.0,0.0,0.0,0.0,0.0,0.0,0.0,0.0,0.0,0.0,0.0,0.0,0.0,0.0,0.0,0.0,0.0,0.0,0.0,0.0,0.0,0.0,0.0,0.0,0.0,0.0,0.0,0.0,0.0,0.0,0.0,0.0,0.0,0.0,0.0,0.0,0.0,0.0,0.0,0.0,0.0,0.0,0.0,0.0,0.0,0.0,0.0,0.0,0.0,0.0,0.0,0.0,0.0,0.0,0.0,0.0,0.0,0.0,-2.8535,-3.0231,-3.2154,-3.2374,-3.2247,-3.1919,-2.9767,-2.8142,-2.7449,-2.5977,0.0,0.0,0.0,0.0,0.0,0.0,0.0,0.0,0.0,0.0,0.0,0.0,0.0,0.0,0.0,0.0,0.0,0.0,0.0,0.0,0.0,0.0,0.0,0.0,0.0,0.0,0.0,0.0,0.0,0.0,0.0,0.0,0.0,0.0,0.0,0.0,0.0,0.0,0.0,0.0,0.0,0.0,0.0,0.0,0.0,0.0,0.0,0.0,0.0,0.0,0.0,0.0,0.0,0.0,0.0,0.0,0.0,0.0,0.0,0.0,0.0,0.0,0.0,0.0,0.0,0.0,0.0,0.0,0.0,0.0,0.0,0.0,0.0,0.0,0.0,0.0,0.0,0.0,0.0,0.0,0.0,0.0,0.0,0.0,0.0,0.0,0.0,0.0,0.0,0.0,0.0,0.0,0.0,0.0,0.0,0.0,0.0,0.0,0.0,0.0,0.0,0.0,-3.009,-3.1802,-3.2662,-3.276,-3.2496,-3.1784,-2.9617,-2.7987,-2.7301,-2.5809,0.0,0.0,0.0,0.0,0.0,0.0,0.0,0.0,0.0,0.0,0.0,0.0,0.0,0.0,0.0,0.0,0.0,0.0,0.0,0.0,0.0,0.0,0.0,0.0,0.0,0.0,0.0,0.0,0.0,0.0,0.0,0.0,0.0,0.0,0.0,0.0,0.0,0.0,0.0,0.0,0.0,0.0,0.0,0.0,0.0,0.0,0.0,0.0,0.0,0.0,0.0,0.0,0.0,0.0,0.0,0.0,0.0,0.0,0.0,0.0,0.0,0.0,0.0,0.0,0.0,0.0,0.0,0.0,0.0,0.0,0.0,0.0,0.0,0.0,0.0,0.0,0.0,0.0,0.0,0.0,0.0,0.0,0.0,0.0,0.0,0.0,0.0,0.0,0.0,0.0,0.0,0.0,0.0,0.0,0.0,0.0,0.0,0.0,0.0,0.0,0.0,0.0,-2.9963,-3.1727,-3.2522,-3.2678,-3.2385,-3.1593,-2.949,-2.7895,-2.7164,-2.574,0.0,0.0,0.0,0.0,0.0,0.0,0.0,0.0,0.0,0.0,0.0,0.0,0.0,0.0,0.0,0.0,0.0,0.0,0.0,0.0,0.0,0.0,0.0,0.0,0.0,0.0,0.0,0.0,0.0,0.0,0.0,0.0,0.0,0.0,0.0,0.0,0.0,0.0,0.0,0.0,0.0,0.0,0.0,0.0,0.0,0.0,0.0,0.0,0.0,0.0,0.0,0.0,0.0,0.0,0.0,0.0,0.0,0.0,0.0,0.0,0.0,0.0,0.0,0.0,0.0,0.0,0.0,0.0,0.0,0.0,0.0,0.0,0.0,0.0,0.0,0.0,0.0,0.0,0.0,0.0,0.0,0.0,0.0,0.0,0.0,0.0,0.0,0.0,0.0,0.0,0.0,0.0,0.0,0.0,0.0,0.0,0.0,0.0,0.0,0.0,0.0,0.0,-3.0257,-3.1911,0.0,-3.2474,-3.1568,-3.076,-2.8581,-2.6949,-2.6209,0.0,0.0,0.0,0.0,0.0,0.0,0.0,0.0,0.0,0.0,0.0,0.0,0.0,0.0,0.0,0.0,0.0,0.0,0.0,0.0,0.0,0.0,0.0,0.0,0.0,0.0,0.0,0.0,0.0,0.0,0.0,0.0,0.0,0.0,0.0,0.0,0.0,0.0,0.0,0.0,0.0,0.0,0.0,0.0,0.0,0.0,0.0,0.0,0.0,0.0,0.0,0.0,0.0,0.0,0.0,0.0,0.0,0.0,0.0,0.0,0.0,0.0,0.0,0.0,0.0,0.0,0.0,0.0,0.0,0.0,0.0,0.0,0.0,0.0,0.0,0.0,0.0,0.0,0.0,0.0,0.0,0.0,0.0,0.0,0.0,0.0,0.0,0.0,0.0,0.0,0.0,0.0,0.0,0.0,0.0,0.0,0.0,0.0,0.0,0.0,0.0,0.0,-2.8515,-3.0282,-3.1819,0.0,-3.2045,-3.0962,-2.9916,-2.7904,-2.6386,-2.5616,0.0,0.0,0.0,0.0,0.0,0.0,0.0,0.0,0.0,0.0,0.0,0.0,0.0,0.0,0.0,0.0,0.0,0.0,0.0,0.0,0.0,0.0,0.0,0.0,0.0,0.0,0.0,0.0,0.0,0.0,0.0,0.0,0.0,0.0,0.0,0.0,0.0,0.0,0.0,0.0,0.0,0.0,0.0,0.0,0.0,0.0,0.0,0.0,0.0,0.0,0.0,0.0,0.0,0.0,0.0,0.0,0.0,0.0,0.0,0.0,0.0,0.0,0.0,0.0,0.0,0.0,0.0,0.0,0.0,0.0,0.0,0.0,0.0,0.0,0.0,0.0,0.0,0.0,0.0,0.0,0.0,0.0,0.0,0.0,0.0,0.0,0.0,0.0,0.0,0.0,0.0,0.0,0.0,0.0,0.0,0.0,0.0,0.0,0.0,0.0,0.0,0.0,-2.7695,-2.9909,-3.1397,-3.1397,-3.1397,-3.0723,-2.9115,-2.7581,-2.6356,0.0,0.0,0.0,0.0,0.0,0.0,0.0,0.0,0.0,0.0,0.0,0.0,0.0,0.0,0.0,0.0,0.0,0.0,0.0,0.0,0.0,0.0,0.0,0.0,0.0,0.0,0.0,0.0,0.0,0.0,0.0,0.0,0.0,0.0,0.0,0.0,0.0,0.0,0.0,0.0,0.0,0.0,0.0,0.0,0.0,0.0,0.0,0.0,0.0,0.0,0.0,0.0,0.0,0.0,0.0,0.0,0.0,0.0,0.0,0.0,0.0,0.0,0.0,0.0,0.0,0.0,0.0,0.0,0.0,0.0,0.0,0.0,0.0,0.0,0.0,0.0,0.0,0.0,0.0,0.0,0.0,0.0,0.0,0.0,0.0,0.0,0.0,0.0,0.0,0.0,0.0,0.0,0.0,0.0,0.0,0.0,0.0,0.0,0.0,0.0,0.0,0.0,0.0,-2.7695,-2.9402,-3.076,-3.1342,-3.0889,-2.9898,-2.8282,-2.7229,-2.6048,-2.4662,0.0,0.0,0.0,0.0,0.0,0.0,0.0,0.0,0.0,0.0,0.0,0.0,0.0,0.0,0.0,0.0,0.0,0.0,0.0,0.0,0.0,0.0,0.0,0.0,0.0,0.0,0.0,0.0,0.0,0.0,0.0,0.0,0.0,0.0,0.0,0.0,0.0,0.0,0.0,0.0,0.0,0.0,0.0,0.0,0.0,0.0,0.0,0.0,0.0,0.0,0.0,0.0,0.0,0.0,0.0,0.0,0.0,0.0,0.0,0.0,0.0,0.0,0.0,0.0,0.0,0.0,0.0,0.0,0.0,0.0,0.0,0.0,0.0,0.0,0.0,0.0,0.0,0.0,0.0,0.0,0.0,0.0,0.0,0.0,0.0,0.0,0.0,0.0,0.0,0.0,0.0,0.0,0.0,0.0,0.0,0.0,0.0,0.0,0.0,0.0,0.0,0.0,-2.7255,-2.9017,-3.0265,-3.043,-3.0301,-2.942,-2.7493,-2.6888,-2.5907,-2.4301,0.0,0.0,0.0,0.0,0.0,0.0,0.0,0.0,0.0,0.0,0.0,0.0,0.0,0.0,0.0,0.0,0.0,0.0,0.0,0.0,0.0,0.0,0.0,0.0,0.0,0.0,0.0,0.0,0.0,0.0,0.0,0.0,0.0,0.0,0.0,0.0,0.0,0.0,0.0,0.0,0.0,0.0,0.0,0.0,0.0,0.0,0.0,0.0,0.0,0.0,0.0,0.0,0.0,0.0,0.0,0.0,0.0,0.0,0.0,0.0,0.0,0.0,0.0,0.0,0.0,0.0,0.0,0.0,0.0,0.0,0.0,0.0,0.0,0.0,0.0,0.0,0.0,0.0,0.0,0.0,0.0,0.0,0.0,0.0,0.0,0.0,0.0,0.0,0.0,0.0,0.0,0.0,0.0,0.0,0.0,0.0,0.0,0.0,0.0,0.0,0.0,0.0,-2.6804,-2.8815,-2.9922,-2.9189,-2.9769,-2.9219,-2.6814,-2.6602,-2.5915,-2.43,0.0,0.0,0.0,0.0,0.0,0.0,0.0,0.0,0.0,0.0,0.0,0.0,0.0,0.0,0.0,0.0,0.0,0.0,0.0,0.0,0.0,0.0,0.0,0.0,0.0,0.0,0.0,0.0,0.0,0.0,0.0,0.0,0.0,0.0,0.0,0.0,0.0,0.0,0.0,0.0,0.0,0.0,0.0,0.0,0.0,0.0,0.0,0.0,0.0,0.0,0.0,0.0,0.0,0.0,0.0,0.0,0.0,0.0,0.0,0.0,-3.4505,0.0,0.0,0.0,0.0,0.0,0.0,0.0,0.0,0.0,0.0,0.0,0.0,0.0,0.0,0.0,0.0,0.0,0.0,0.0,0.0,0.0,0.0,0.0,0.0,0.0,0.0,0.0,0.0,0.0,0.0,0.0,0.0,0.0,0.0,0.0,0.0,0.0,0.0,0.0,0.0,0.0,-2.8326,-2.9494,-3.0136,-2.9971,-3.0099,-2.9219,-2.6814,-2.6602,-2.5915,-2.43,-2.419,0.0,0.0,0.0,0.0,0.0,0.0,0.0,0.0,0.0,0.0,0.0,0.0,0.0,0.0,0.0,0.0,0.0,0.0,0.0,0.0,0.0,0.0,0.0,0.0,0.0,0.0,0.0,0.0,0.0,0.0,0.0,0.0,0.0,0.0,0.0,0.0,0.0,0.0,0.0,0.0,0.0,0.0,0.0,0.0,0.0,0.0,0.0,0.0,0.0,0.0,0.0,0.0,0.0,0.0,0.0,0.0,0.0,0.0,0.0,0.0,-3.5096,0.0,0.0,0.0,0.0,0.0,0.0,0.0,0.0,0.0,0.0,0.0,0.0,0.0,0.0,0.0,0.0,0.0,0.0,0.0,0.0,0.0,0.0,0.0,0.0,0.0,0.0,0.0,0.0,0.0,0.0,0.0,0.0,0.0,0.0,0.0,0.0,0.0,0.0,0.0,0.0,-2.884,-2.9702,-3.021,-3.021,-3.021,-2.9384,-2.7346,-2.6833,-2.607,-2.4802,-2.4381,0.0,0.0,0.0,0.0,0.0,0.0,0.0,0.0,0.0,0.0,0.0,0.0,0.0,0.0,0.0,0.0,0.0,0.0,0.0,0.0,0.0,0.0,0.0,0.0,0.0,0.0,0.0,0.0,0.0,0.0,0.0,0.0,0.0,0.0,0.0,0.0,0.0,0.0,0.0,0.0,0.0,0.0,0.0,0.0,0.0,0.0,0.0,0.0,0.0,0.0,0.0,0.0,0.0,-3.9441,-3.9129,-3.9129,-3.9129,-3.9129,-3.9038,-3.7716,-3.6919,-3.6532,-3.5726,0.0,0.0,0.0,0.0,0.0,0.0,0.0,0.0,0.0,0.0,0.0,0.0,0.0,0.0,0.0,0.0,0.0,0.0,0.0,0.0,0.0,0.0,0.0,0.0,-2.9003,-2.9036,-2.9266,0.0,0.0,0.0,0.0,0.0,0.0,0.0,0.0,0.0,0.0,0.0,-2.9228,-3.0052,-3.0485,-3.0357,-3.0338,-2.9624,-2.7878,-2.6988,-2.6161,-2.5307,-2.4492,-2.3986,0.0,0.0,0.0,0.0,0.0,0.0,0.0,0.0,0.0,0.0,0.0,0.0,0.0,0.0,0.0,0.0,0.0,0.0,0.0,0.0,0.0,0.0,0.0,0.0,0.0,0.0,0.0,0.0,0.0,0.0,0.0,0.0,-3.8707,-3.8707,0.0,0.0,0.0,0.0,0.0,0.0,0.0,0.0,0.0,0.0,0.0,0.0,0.0,-4.082,-4.093,-4.0838,-4.0838,-4.093,-4.082,-4.0783,-4.0783,-4.0783,-4.0783,-4.0765,-4.0563,0.0,-3.7287,-3.6483,0.0,0.0,0.0,0.0,0.0,0.0,0.0,0.0,0.0,0.0,0.0,0.0,0.0,0.0,0.0,0.0,0.0,0.0,0.0,0.0,0.0,0.0,-3.0762,-3.0713,-3.0595,-3.0535,0.0,-2.9598,-2.8761,-2.8828,-2.8822,0.0,0.0,0.0,0.0,0.0,0.0,0.0,-3.0562,-3.1438,-3.1674,-3.098,-3.0889,-2.995,-2.7647,-2.6721,-2.5912,-2.5092,-2.4227,-2.3735,-2.3724,-2.4345,0.0,0.0,0.0,0.0,0.0,0.0,0.0,0.0,0.0,0.0,0.0,0.0,0.0,0.0,0.0,0.0,0.0,0.0,0.0,0.0,0.0,0.0,0.0,0.0,0.0,0.0,0.0,0.0,0.0,-3.8707,-3.8707,-3.8707,-3.8707,-3.8707,0.0,0.0,0.0,0.0,0.0,0.0,0.0,0.0,0.0,-4.1222,-4.1589,-4.2196,-4.3113,-4.3113,-4.3352,-4.3809,-4.3809,-4.3571,-4.3113,-4.3113,-4.2892,-4.2415,-4.1974,-4.1167,-4.0065,-3.8358,-3.7165,-3.6358,0.0,0.0,0.0,0.0,-3.5202,-3.5202,-3.5202,-3.4862,0.0,-3.4412,0.0,0.0,0.0,0.0,0.0,0.0,0.0,0.0,0.0,0.0,-3.0661,-3.0529,-3.0436,-3.0406,-3.0406,-2.9914,-2.9436,0.0,-2.8864,-2.846,-2.8111,0.0,0.0,0.0,0.0,-2.9706,-3.1297,-3.1802,-3.1892,-3.1531,-3.1095,-3.0211,-2.8706,-2.7457,-2.6387,-2.5506,-2.4663,-2.3955,-2.34,-2.4141,-2.4752,0.0,0.0,0.0,0.0,0.0,0.0,0.0,0.0,0.0,0.0,0.0,0.0,0.0,0.0,0.0,0.0,0.0,0.0,0.0,0.0,0.0,0.0,0.0,0.0,0.0,0.0,0.0,0.0,-3.9019,-3.9074,-3.9294,-3.9313,-3.9313,0.0,0.0,0.0,0.0,0.0,0.0,-4.137,-4.1792,-4.2304,-4.291,-4.3112,-4.3809,-4.5002,-4.5021,-4.5314,-4.5902,-4.5902,-4.559,-4.5002,-4.4783,-4.4378,-4.3754,-4.2965,-4.2488,-4.2139,-4.0139,-3.8836,-3.8025,-3.7221,-3.678,-3.6593,-3.6376,-3.6303,-3.6303,-3.6303,-3.5819,-3.5198,-3.5184,-3.4109,-3.2828,-3.2814,0.0,0.0,0.0,0.0,-3.1539,-3.1406,-3.1491,-3.1554,-3.1361,-3.112,-3.0963,-3.0914,-3.0582,-3.0152,0.0,-2.9074,-2.8569,-2.8569,0.0,0.0,0.0,0.0,-3.0332,-3.1479,-3.18,-3.1854,-3.1658,-3.0942,-3.0139,-2.934,-2.7861,-2.6587,-2.5691,-2.4878,-2.3987,-2.3063,-2.4007,-2.4778,-2.5302,0.0,0.0,0.0,0.0,0.0,0.0,0.0,0.0,0.0,0.0,0.0,0.0,0.0,0.0,0.0,0.0,0.0,0.0,0.0,0.0,0.0,0.0,0.0,0.0,0.0,0.0,0.0,0.0,0.0,-4.0893,-4.0967,0.0,0.0,0.0,0.0,-4.104,-4.1754,-4.2194,-4.2249,-4.3699,-4.4526,-4.458,-4.5314,-4.5755,-4.5847,-4.5847,-4.5865,-4.5902,-4.5902,-4.5883,-4.581,-4.5057,-4.4673,-4.4581,-4.3791,-4.3002,-4.2231,-4.1334,-4.0506,-3.9698,-3.8891,-3.8102,-3.7345,-3.6593,-3.6303,-3.6303,-3.6303,-3.6186,-3.6025,-3.5972,-3.5196,-3.4258,-3.4143,-3.3539,0.0,0.0,-3.3343,-3.3898,-3.3768,-3.4285,-3.48,-3.4605,-3.3917,-3.3283,-3.3103,-3.1827,-3.0646,0.0,-2.9579,-2.9063,-2.9063,0.0,-2.9021,-2.886,-3.009,-3.1005,-3.0958,-3.1568,-3.1725,-3.1028,-3.0279,-2.9529,-2.8694,-2.7233,-2.6031,-2.5275,-2.4427,-2.3609,-2.2851,-2.4199,-2.4982,-2.5034,-2.6435,0.0,0.0,0.0,0.0,0.0,0.0,0.0,0.0,0.0,0.0,0.0,0.0,0.0,0.0,0.0,0.0,0.0,0.0,0.0,0.0,0.0,0.0,0.0,0.0,0.0,0.0,0.0,0.0,-4.1791,-4.2323,0.0,-4.2635,-4.2635,-4.2855,-4.337,-4.3682,-4.4066,-4.4599,-4.5168,-4.5718,-4.6232,-4.6507,-4.6929,-4.7443,-4.7443,-4.7424,-4.7385,-4.7385,-4.7054,-4.6465,-4.6173,-4.5534,-4.462,-4.4345,-4.3758,-4.2989,-4.2608,-4.1694,-4.05,-4.0093,-3.9752,-3.9443,-3.9122,-3.8996,-3.8996,-3.8996,-3.8601,-3.7867,-3.6551,-3.5435,-3.457,-3.4376,-3.4093,-3.3828,-3.381,-3.3949,-3.4086,-3.4048,-3.4219,-3.437,-3.4252,-3.3986,-3.3582,-3.2967,-3.2357,-3.1792,-3.1146,-3.0144,-2.9376,-2.9376,-2.9376,-2.9483,-2.9901,-3.0422,-3.0959,-3.1425,-3.1719,-3.1771,-3.1511,-3.0785,-3.0006,-2.9245,-2.8242,-2.6895,-2.5121,-2.4715,-2.3938,-2.2607,-2.399,-2.4795,-2.4733,-2.6285,-2.7039,0.0,0.0,0.0,0.0,0.0,0.0,0.0,0.0,0.0,0.0,0.0,0.0,0.0,0.0,0.0,0.0,0.0,0.0,0.0,0.0,0.0,0.0,0.0,0.0,0.0,0.0,-4.2415,-4.3773,-4.4397,-4.4819,-4.5094,-4.5112,-4.5333,-4.5883,-4.6195,-4.6581,-4.7113,-4.7407,-4.781,-4.8323,-4.8342,-4.8471,-4.8728,-4.8728,-4.8561,-4.8187,-4.8168,-4.7778,-4.713,-4.6835,-4.6163,-4.5201,-4.4673,-4.4126,-4.3597,-4.3177,-4.2377,-4.1378,-4.1035,-4.089,-4.0836,-4.0474,-4.0384,-4.0347,-4.0347,-3.9913,-3.9101,-3.7446,-3.6385,-3.5682,-3.5246,-3.5059,-3.498,-3.498,-3.4904,-3.4844,-3.4844,-3.4821,-3.4757,-3.4689,-3.448,-3.4096,-3.3441,-3.3114,-3.2701,-3.1932,-3.0717,-2.9797,-2.9797,-2.9797,-2.9952,-3.0397,-3.0672,-3.1015,-3.1545,-3.1595,-3.1595,-3.1595,-3.0892,-3.0138,-2.9384,-2.8631,-2.7226,-2.4921,-2.4767,-2.4042,-2.2431,-2.383,-2.4613,-2.4567,-2.611,-2.6876,-2.6809,0.0,0.0,0.0,0.0,0.0,0.0,0.0,0.0,0.0,0.0,0.0,0.0,0.0,0.0,0.0,0.0,0.0,0.0,0.0,0.0,0.0,0.0,0.0,-4.2268,-4.3094,-4.4507,-4.6892,-4.7204,-4.7516,-4.8306,-4.8379,-4.8379,-4.8379,-4.915,-4.9647,-4.9647,-5.038,-5.0802,-5.0802,-5.0802,-5.0417,-4.9627,-4.9591,-4.9128,-4.8204,-4.805,-4.7913,-4.7754,-4.6887,-4.6483,-4.6357,-4.4798,-4.4093,-4.3965,-4.2992,-4.2512,-4.2306,-4.173,-4.1479,-4.1312,-4.0447,-4.0123,-4.0123,-4.0065,-3.9891,-3.9552,-3.8627,-3.8096,-3.7648,-3.6797,-3.6433,-3.6314,-3.6314,-3.6297,-3.628,-3.628,-3.628,-3.6259,-3.6187,-3.5599,-3.497,-3.4742,-3.4134,-3.3383,-3.25,-3.1346,-3.0472,-3.0421,-3.0404,-3.0385,-3.0241,-3.0853,0.0,-3.121,-3.119,-3.119,-3.119,-3.0565,-2.9837,-2.9061,-2.8298,-2.6877,-2.4677,-2.4508,-2.3864,-2.2431,-2.3731,-2.4525,-2.4558,-2.5964,-2.6657,-2.6572,0.0,0.0,0.0,0.0,0.0,0.0,0.0,0.0,0.0,0.0,0.0,0.0,0.0,0.0,0.0,0.0,0.0,0.0,0.0,0.0,0.0,0.0,-4.3774,-4.4011,-4.5241,-4.6782,-4.8618,-4.9407,-4.9884,-5.0105,-5.0105,-5.0105,-5.0105,-5.0325,-5.0472,-5.0472,-5.0674,-5.0762,-5.0664,-5.0643,-5.0492,-5.0172,-4.9588,-4.9104,-4.8699,-4.7974,-4.7493,-4.7209,-4.6883,-4.6127,-4.5101,-4.4653,-4.3793,-4.2701,-4.2361,-4.2023,-4.167,-4.1633,-4.1601,-4.1495,-4.1055,-4.0902,-4.0902,-4.0898,-4.0421,-3.9796,-3.9437,-3.876,-3.8031,-3.7695,-3.7155,-3.6656,-3.6656,-3.6247,-3.5783,-3.5783,-3.5783,-3.58,-3.5778,-3.5603,-3.5259,-3.4672,-3.4401,-3.4024,-3.3237,-3.2805,-3.2252,-3.1167,-3.098,-3.098,-3.0925,-3.1094,0.0,-3.121,-3.119,-3.119,-3.119,-3.1021,-3.0378,-2.9111,-2.8807,-2.7706,-2.5439,-2.4795,-2.4321,-2.3915,-2.4271,-2.4984,-2.6,-2.6421,-2.6469,0.0,0.0,0.0,0.0,0.0,0.0,0.0,0.0,0.0,0.0,0.0,0.0,0.0,0.0,0.0,0.0,0.0,0.0,0.0,0.0,0.0,0.0,-4.4325,-4.6195,-4.7572,-4.7976,-4.8746,-5.0362,-5.0986,-5.1444,-5.1775,-5.1752,-5.1731,-5.1731,-5.1608,-5.1548,-5.1548,-5.1484,-5.1441,-5.1358,-5.1358,-5.1129,-5.0653,-4.9894,-4.9224,-4.864,-4.7635,-4.7057,-4.6819,-4.659,-4.5847,-4.4691,-4.4304,-4.3438,-4.2255,-4.1824,-4.144,0.0,0.0,0.0,0.0,0.0,-4.1088,-4.1088,-4.1088,-4.0718,-4.0164,-3.9732,-3.9168,-3.8547,-3.8135,-3.7644,-3.7218,-3.6897,-3.6451,-3.6028,-3.5684,-3.56,-3.56,-3.56,-3.56,-3.5481,-3.5064,-3.4962,-3.4742,-3.3998,-3.3863,0.0,-3.2324,-3.2121,-3.2121,-3.2121,-3.2121,-3.2121,-3.2121,-3.2121,-3.2002,-3.1701,-3.1667,-3.1055,-2.9602,-2.9179,0.0,0.0,0.0,-2.4965,-2.4965,-2.4965,0.0,0.0,0.0,-2.6479,-2.6379,0.0,0.0,0.0,-2.6115,-2.6034,0.0,0.0,0.0,0.0,0.0,0.0,0.0,0.0,0.0,0.0,0.0,0.0,0.0,0.0,0.0,0.0,-4.6377,-4.8632,-5.1619,-5.098,-5.0723,-5.2213,-5.2357,-5.2611,-5.3344,-5.32,-5.3061,-5.304,-5.2735,-5.2545,-5.2522,0.0,0.0,0.0,0.0,-5.1901,-5.1016,-5.0199,-4.9287,-4.8311,-4.7174,-4.656,-4.6471,-4.6087,-4.5494,-4.4743,-4.3812,-4.3023,-4.2258,-4.1336,-4.0884,-4.0772,-4.1024,-4.0995,-4.0799,-4.0799,-4.0799,-4.0799,-4.0799,0.0,0.0,-3.9802,-3.9447,-3.9176,-3.8445,-3.8153,-3.7872,-3.7134,-3.6863,-3.6626,-3.5825,-3.56,-3.56,-3.56,-3.56,-3.56,-3.56,-3.56,-3.5397,-3.4742,-3.4624,-3.4421,-3.3761,-3.3525,-3.3406,-3.3406,-3.3406,-3.3406,-3.3406,-3.3406,-3.3119,-3.2378,0.0,0.0,-3.0243,-2.9414,-2.8366,-2.6911,-2.61,-2.5628,-2.5544,-2.5628,-2.5933,-2.6503,-2.6466,-2.6566,-2.6792,-2.6661,-2.6675,-2.6798,-2.6235,-2.6193,0.0,0.0,0.0,0.0,0.0,0.0,0.0,0.0,0.0,0.0,0.0,0.0,0.0,0.0,0.0,-4.5979,-4.867,-5.0977,-5.2159,-5.3176,-5.4018,-5.4663,-5.4565,-5.4482,-5.4646,-5.393,-5.3432,-5.3315,-5.2676,-5.2226,-5.2132,-5.2084,-5.1988,-5.1768,-5.175,-5.1555,-5.116,-4.9799,-4.8894,-4.8443,0.0,0.0,-4.5632,-4.5441,-4.4923,-4.4122,-4.3364,-4.2607,-4.1867,-4.1085,-4.0607,-4.0412,-4.0461,-4.037,-4.0246,-4.0246,-4.0246,-4.0246,-4.0246,-4.0238,-4.0179,-4.0026,-3.9968,-3.9901,-3.9731,-3.9266,0.0,-3.7889,-3.7246,-3.6626,-3.5825,-3.56,-3.56,-3.56,-3.56,-3.56,-3.56,-3.56,-3.5549,-3.5397,-3.538,-3.5329,-3.5194,-3.418,-3.3406,-3.3406,-3.3406,-3.3406,-3.3406,-3.3406,-3.3119,-3.2378,-3.2293,-3.1701,-3.0243,-2.9323,-2.8459,-2.7567,-2.6671,-2.5847,-2.5145,-2.5728,-2.6074,-2.6043,-2.644,-2.6458,-2.6089,-2.6424,-2.6696,-2.6862,-2.6583,-2.6439,0.0,0.0,0.0,0.0,0.0,0.0,0.0,0.0,0.0,0.0,0.0,-4.2519,-4.3219,0.0,-4.6395,-4.8297,-5.0344,-5.2226,-5.3748,-5.4593,-5.5079,-5.5109,-5.4912,-5.4792,-5.4792,-5.426,-5.3691,-5.3135,-5.2541,-5.1953,-5.1434,-5.1262,-5.1131,-5.0999,-5.1017,-5.0893,-5.0659,-4.9153,-4.8295,-4.8075,-4.6387,-4.5477,-4.5283,-4.5086,-4.4568,-4.379,-4.2969,-4.2176,-4.1443,-4.0694,-4.0313,-4.0188,-4.0188,-4.0163,-4.0096,-4.0096,-4.0096,-4.0096,-4.0096,-4.0096,-4.0096,-4.0096,-4.0096,-4.0096,-4.0096,-3.9842,-3.9394,-3.865,-3.8176,-3.7642,-3.6502,-3.6197,-3.6096,-3.5701,-3.56,-3.56,-3.56,-3.56,-3.56,-3.56,-3.56,-3.56,-3.56,-3.4991,-3.4484,-3.4484,-3.4484,-3.4484,-3.4484,-3.4484,-3.4197,-3.3394,-3.3005,-3.2302,-3.1069,-2.9735,-2.8541,-2.7478,-2.6899,-2.6244,-2.5482,-2.6158,-2.6461,-2.6254,-2.6818,-2.699,-2.6767,-2.695,-2.7149,-2.7352,-2.7244,-2.7115,0.0,0.0,0.0,0.0,0.0,0.0,0.0,0.0,-4.2414,-4.2413,-4.3377,-4.4429,-4.5172,-4.6614,-4.8323,-5.031,-5.1633,-5.3059,-5.491,-5.5214,-5.5187,-5.4899,-5.4871,-5.4838,-5.4812,-5.4319,-5.3663,-5.2874,-5.2209,-5.1515,-5.0747,-5.0453,-5.0285,-5.0257,-5.0257,-5.0183,-4.9976,-4.8519,-4.7693,-4.7537,-4.5915,-4.5113,-4.5086,-4.4858,-4.4442,-4.3831,-4.2746,-4.1796,-4.0933,-4.0367,-4.0096,-4.0096,-4.0096,-4.0096,-4.0096,-4.0096,-4.0096,-4.0096,-4.0096,-4.0096,-4.0096,-4.0096,-4.0096,-4.0096,-4.0096,-4.0096,-3.996,-3.9191,-3.8988,-3.8684,-3.7371,-3.6914,-3.6643,-3.5994,-3.5701,-3.56,-3.56,-3.56,-3.56,-3.5577,-3.5594,-3.5554,-3.5509,-3.5509,-3.5509,-3.5554,-3.5594,-3.5554,-3.5509,-3.5509,-3.5178,-3.4309,-3.356,-3.2637,-3.131,-2.9893,-2.8518,-2.7147,-2.6951,-2.6633,-2.6062,-2.6545,-2.6739,-2.6555,-2.7157,-2.745,-2.7473,-2.7535,-2.7627,-2.7765,-2.7765,-2.77,-4.1153,-4.0382,-3.9939,-4.0613,-4.14,-4.1986,0.0,0.0,-4.4002,-4.4532,-4.5189,-4.6047,-4.7316,-4.8815,-5.0039,-5.0594,-5.2519,-5.3974,-5.3981,-5.4682,-5.5203,-5.5174,-5.5521,-5.5709,-5.5585,-5.4155,-5.3124,-5.293,-5.1472,-5.0484,-5.0274,-5.0086,-4.9895,-4.9796,-4.9796,-4.9708,-4.956,-4.8071,-4.7216,-4.7072,-4.5574,-4.4776,-4.4654,-4.4626,-4.4592,-4.4423,-4.2956,-4.1491,-4.0231,-4.013,-4.0096,-4.0096,-4.0096,-4.0096,-4.0096,-4.0096,-4.0096,-4.0096,-4.0096,-4.0096,-4.0096,-4.0096,-4.0096,-4.0096,-4.0096,-4.0096,-3.996,-3.9191,-3.8988,-3.8802,-3.799,-3.728,-3.6778,-3.6694,-3.6129,-3.56,-3.56,-3.56,-3.5577,-3.552,-3.5514,-3.5446,-3.5198,-3.5158,-3.5245,-3.5492,-3.5514,-3.5446,-3.5182,-3.5158,-3.4805,-3.3951,-3.3098,-3.1632,-2.9236,-2.8864,-2.8222,-2.6994,-2.6904,-2.6788,-2.6526,-2.6604,-2.657,-2.6423,-2.7016,-2.7211,-2.6981,-2.7506,-2.7715,-2.7625,-2.7625,-2.7625,-4.087,-4.1159,0.0,0.0,-4.3451,-4.4707,-4.4613,-4.5567,-4.6514,-4.6619,-4.695,-4.7537,-4.8486,-4.9415,-5.0377,0.0,-5.2751,-5.3797,-5.4177,-5.4187,-5.4113,-5.3973,-5.3775,-5.3927,-5.4677,-5.4034,-5.3119,-5.2039,-5.1182,-5.0424,-4.983,-4.953,-4.935,-4.929,-4.929,-4.9277,-4.9216,-4.7738,-4.6944,-4.6886,-4.5394,-4.4654,-4.4615,-4.4615,-4.4124,-4.3244,-4.2574,-4.1441,-4.0096,-4.0096,-4.0096,-4.0096,-4.0096,-4.0096,-4.0096,-4.0096,-4.0096,-4.0096,-4.0096,-4.0096,-4.0096,-4.0096,-4.0096,-4.0096,-4.0096,-4.0096,-4.0045,-3.974,-3.9656,-3.9462,-3.8717,-3.799,-3.733,-3.6897,-3.618,-3.56,-3.56,-3.56,-3.5594,-3.5514,-3.5446,-3.5291,-3.5018,-3.4923,-3.4828,-3.4691,-3.4899,-3.4994,-3.4875,-3.4804,-3.4403,-3.3426,-3.2368,-3.114,-2.9642,-2.8944,-2.8196,-2.7304,-2.7183,-2.6922,-2.6445,-2.6794,-2.6926,-2.6811,-2.7478,-2.7686,-2.7403,-2.768,-2.774,-2.76,-2.76,-2.76,-4.1325,0.0,0.0,-4.4014,-4.5683,-4.7161,-4.7036,-4.7756,-4.8449,-4.838,-4.8248,-4.8415,-4.9243,-4.9631,0.0,-5.1747,-5.264,-5.3278,-5.3813,-5.3481,-5.3069,-5.2721,-5.2255,-5.2265,-5.3075,-5.3068,-5.248,-5.1208,-5.0682,-5.0129,-4.9445,-4.9155,-4.9001,-4.9001,-4.9001,-4.9001,-4.9001,-4.753,-4.6786,-4.6769,-4.5309,-4.4615,-4.4615,-4.4615,-4.3859,-4.2591,-4.2388,-4.1576,-4.04,-4.018,-4.0096,-4.0096,-4.0096,-4.0096,-4.0096,-4.0096,-4.0096,-4.0096,-4.0096,-4.0096,-4.0096,-4.0096,-4.0096,-4.0096,-4.0096,-4.0096,-4.0096,-4.0096,-4.0096,-3.9952,-3.9403,-3.855,-3.7699,-3.7094,-3.6171,-3.5441,-3.5418,-3.5418,-3.5373,-3.5245,-3.5128,-3.4923,-3.457,-3.4399,-3.4143,-3.3806,-3.3968,-3.4168,-3.4284,-3.4143,-3.3668,-3.2727,-3.1661,-3.0703,-2.9915,-2.8962,-2.8182,-2.7618,-2.7493,-2.7208,-2.6672,-2.7115,-2.7342,-2.7246,-2.7756,-2.7925,-2.774,-2.774,-2.7675,-2.76,-2.76,-2.76,0.0,0.0,-4.4746,-4.6295,-4.7718,-4.8703,-4.8554,-4.8816,-4.921,-4.9668,-4.8881,-4.8472,-4.9671,-4.9762,-5.0116,-5.133,-5.2151,-5.258,-5.2399,-5.2515,-5.234,-5.1624,-5.1697,-5.1531,0.0,-5.071,-5.0693,-5.0611,-4.9763,-4.9246,-4.9199,-4.9094,-4.9001,-4.9001,-4.9001,-4.9001,-4.9001,-4.753,-4.6786,-4.6769,-4.5309,-4.4615,-4.4615,-4.4615,-4.4147,-4.3325,-4.2608,-4.1863,-4.1119,-4.0375,-4.0096,-4.0096,-4.0096,-4.0096,-4.0096,-4.0096,-4.0096,-4.0096,-4.0096,-4.0096,-4.0096,-4.0096,-4.0096,-4.0096,-4.0096,-4.0096,-4.0096,-4.0096,-4.0096,-4.0045,-3.9918,-3.8773,-3.7631,-3.7352,-3.6161,-3.5065,-3.4947,-3.4923,-3.4835,-3.457,-3.4423,-3.4151,-3.3617,-3.3393,-3.315,-3.2868,-3.2749,-3.2803,-3.3203,-3.3018,-3.2538,-3.1714,-3.1042,-3.0242,-2.9317,-2.8593,-2.8073,-2.781,-2.7785,-2.772,-2.7565,-2.758,-2.7595,-2.7595,-2.761,-2.761,-2.7625,-2.7625,-2.76,-2.76,-2.76,-2.76,0.0,0.0,-4.6959,-4.7951,-4.9143,-4.9995,-4.9782,-4.9925,-4.9987,-4.9545,-4.8837,-4.8272,-4.814,-4.8336,-4.8808,-4.9687,-5.0466,-5.1078,-5.1522,-5.1199,-5.0856,-5.0602,-5.0207,0.0,0.0,0.0,0.0,-4.9928,-4.9457,-4.9199,-4.9199,-4.9077,-4.9001,-4.9001,-4.9001,-4.9001,-4.9001,-4.802,-4.7293,-4.6769,-4.5309,-4.4615,-4.4615,-4.4615,-4.4147,-4.3375,-4.3149,-4.2337,-4.1187,-4.0933,-4.0527,-4.0096,-4.0096,-4.0096,-4.0096,-4.0096,-4.0096,-4.0096,-4.0096,-4.0096,-4.0096,-4.0096,-4.0096,-4.0096,-4.0096,-4.0096,-4.0087,-3.9986,-3.9977,-3.9926,-3.9694,-3.8462,-3.7261,-3.7085,-3.5836,-3.4691,-3.4643,-3.4618,-3.4546,-3.43,-3.4126,-3.3857,-3.3256,-3.3044,-3.2803,-3.2453,-3.252,-3.2629,-3.2656,-3.252,-3.2305,-3.2023,-3.0846,-2.995,-2.9607,-2.8485,-2.775,-2.7675,-2.7675,-2.765,-2.76,-2.76,-2.76,-2.76,-2.76,-2.76,-2.76,-2.76,-2.76,-2.76,-2.76,-2.76,0.0,-4.7502,-4.8856,-4.9488,-5.0363,-5.099,-5.0716,-5.0629,-5.0347,-4.9468,-4.8361,-4.7404,-4.6908,-4.6753,-4.7056,-4.8054,-4.9052,-4.9864,-5.0355,-5.0236,-4.9999,-4.9729,-4.9289,0.0,0.0,0.0,0.0,-4.9371,-4.9199,-4.9138,-4.9138,-4.9063,-4.9001,-4.9001,-4.9001,-4.9001,-4.9001,-4.8291,-4.7411,-4.6397,-4.519,-4.4615,-4.4615,-4.4615,-4.4316,-4.3809,-4.3511,-4.2699,-4.1576,-4.1322,-4.0764,-4.0096,-4.0096,-4.0096,-4.0096,-4.0096,-4.0096,-4.0096,-4.0096,-4.0096,-4.0096,-4.0096,-4.0087,-4.0037,-4.0037,-3.9961,-3.9858,-3.9772,-3.9651,-3.952,-3.9255,-3.816,-3.7006,-3.6456,-3.5367,-3.4341,-3.3965,-3.3876,-3.3841,-3.361,-3.3471,-3.3219,-3.2722,-3.2477,-3.2244,-3.1994,-3.2092,-3.2203,-3.2191,-3.2066,-3.1938,-3.1938,-3.0618,-2.9726,-2.9726,-2.8415,-2.76,-2.76,-2.76,-2.76,-2.76,-2.76,-2.76,-2.76,-2.76,-2.76,-2.76,-2.76,-2.76,-2.76,-2.76,-2.76,-4.7549,-4.9132,-5.0391,-5.094,-5.1382,-5.1571,-5.1271,-5.0822,-5.0223,-4.9284,-4.7448,-4.6003,0.0,0.0,-4.5021,-4.6447,-4.7919,-4.89,-4.8951,-4.9576,-4.9779,0.0,0.0,0.0,0.0,0.0,0.0,-4.9001,0.0,-4.9001,-4.9001,-4.9001,-4.9001,-4.9001,-4.9001,-4.9001,-4.9001,-4.824,-4.7158,-4.5754,-4.4987,-4.4615,-4.4615,-4.4615,-4.4615,-4.4564,-4.3758,-4.298,-4.2236,-4.1508,-4.0764,-4.0096,-4.0096,-4.0096,-4.0096,-4.0096,-4.0096,-4.0096,-4.0096,-4.0096,-4.0096,-4.007,-3.9986,-3.9901,-3.9875,-3.9694,-3.9475,-3.9448,-3.9202,-3.8914,-3.8595,-3.7848,-3.6833,-3.5601,-3.4798,-3.4038,-3.3107,-3.2839,-3.2796,-3.2676,-3.2496,-3.2302,-3.2038,-3.1712,-3.1511,-3.1511,-3.1511,-3.1568,-3.1756,-3.1626,-3.1511,-3.1511,-3.0387,-2.9636,-2.9606,-2.8408,-2.763,-2.76,-2.76,-2.76,-2.76,-2.76,-2.7615,-2.7645,-2.7645,-2.7645,-2.7645,-2.7645,-2.763,-2.76,-2.76,-2.76,-4.9724,-5.0588,-5.1043,-5.2075,-5.1675,-5.0841,-4.9994,-4.9444,-4.8573,-4.6638,-4.5651,-4.479,0.0,0.0,0.0,-4.4993,-4.638,0.0,-4.8105,-4.8832,0.0,0.0,0.0,-4.9001,-4.9001,-4.9001,0.0,0.0,-4.9001,-4.9001,-4.9001,-4.9001,-4.9001,-4.9001,-4.9001,-4.9001,-4.9001,-4.7716,-4.6887,-4.6498,-4.5196,-4.4615,-4.4615,-4.4615,-4.4615,-4.4564,-4.3758,-4.298,-4.2236,-4.1508,-4.0764,-4.0096,-4.0096,-4.0096,-4.0096,-4.0096,-4.0096,-4.0096,-4.0096,-4.0096,-4.007,-3.9986,-3.9858,-3.9703,-3.9461,-3.9265,-3.905,-3.8706,-3.8523,-3.8371,-3.7841,-3.7038,-3.6266,-3.5718,-3.4969,-3.4311,-3.4054,-3.3591,-3.3221,-3.3067,-3.2457,-3.194,-3.187,-3.1655,-3.1511,-3.1511,-3.1511,-3.1511,-3.1568,-3.1539,-3.1511,-3.1511,-3.0748,-3.0088,-2.9651,-2.8816,-2.8113,-2.763,-2.76,-2.76,-2.76,-2.76,-2.7839,-2.8323,-2.8338,-2.8338,-2.8338,-2.8338,-2.8094,-2.76,-2.76,-2.7549,-5.153,-5.2186,-5.2319,-5.2439,-5.1764,-5.0756,-4.941,-4.8573,-4.7556,-4.5598,-4.4465,0.0,0.0,0.0,0.0,0.0,0.0,0.0,-4.7817,-4.8545,-4.9001,0.0,-4.9001,0.0,-4.9001,-4.9001,-4.9001,0.0,-4.9001,-4.9001,-4.9001,-4.9001,-4.9001,-4.9001,-4.9001,-4.9001,-4.9001,-4.753,-4.6786,-4.6769,-4.5309,-4.4615,-4.4615,-4.4615,-4.4429,-4.4045,0.0,-4.2811,-4.1779,-4.1373,-4.0764,-4.0096,-4.0037,-4.0011,-3.9986,-3.9884,-3.9833,-3.9833,-3.9738,-3.9722,-3.9722,-3.9781,-3.9625,-3.9345,-3.9034,-3.8662,-3.8327,-3.7985,-3.7754,-3.7506,-3.7104,-3.658,-3.5981,-3.5385,-3.4881,-3.444,-3.406,-3.3696,-3.3331,-3.297,-3.2476,-3.209,-3.209,-3.2272,-3.2392,-3.2392,-3.2123,-3.1929,-3.1929,-3.169,-3.1511,-3.1511,-3.0883,-3.0253,-2.9666,-2.8981,-2.8308,-2.7645,-2.76,-2.76,-2.76,-2.76,-2.7929,-2.8592,-2.8607,-2.8566,-2.8513,-2.8513,-2.8118,-2.7335,-2.7335,-2.7258,-5.3003,-5.358,-5.3487,-5.2333,-5.1643,-5.0737,-4.8855,-4.7739,-4.6649,-4.502,0.0,0.0,-4.1367,0.0,-4.2506,-4.3166,0.0,-4.7022,-4.7682,-4.8477,-4.9001,-4.9001,-4.9001,-4.9001,-4.9001,-4.9001,-4.9035,-4.9137,-4.9154,-4.9154,-4.9154,-4.9052,-4.9001,-4.9001,-4.9001,-4.9001,-4.9001,-4.753,-4.6786,-4.6769,-4.5309,-4.4615,-4.4615,-4.4615,-4.4147,-4.3375,-4.3318,-4.2489,-4.1204,-4.1085,-4.0679,-4.0062,-3.9926,-3.9849,-3.9798,-3.9537,-3.9405,-3.9379,-3.9222,-3.9125,-3.9125,-3.9478,-3.9265,-3.886,-3.8539,-3.8014,-3.746,-3.7282,-3.6937,-3.66,-3.6445,-3.6242,-3.5901,-3.5011,-3.4812,-3.463,-3.3919,-3.3694,-3.3425,-3.2766,-3.2647,-3.2647,-3.2647,-3.311,-3.3469,-3.338,-3.2886,-3.2482,-3.2392,-3.1854,-3.1511,-3.1511,-3.0972,-3.0357,-2.9666,-2.9056,-2.8397,-2.7645,-2.76,-2.7645,-2.7735,-2.7735,-2.8068,-2.882,-2.8835,-2.8737,-2.85,-2.8474,-2.7945,-2.6977,-2.6937,-2.6817,-5.4037,-5.3742,-5.2897,-5.2503,-5.1122,-4.923,-4.6931,-4.5722,0.0,0.0,0.0,-4.1222,-4.046,0.0,0.0,-4.2472,0.0,0.0,0.0,0.0,-4.9001,0.0,0.0,0.0,0.0,0.0,0.0,0.0,0.0,-4.9898,-4.9898,-4.9323,-4.9001,-4.9001,-4.9001,-4.9001,-4.9001,-4.753,-4.6786,-4.6769,-4.5309,-4.4615,-4.4615,-4.4615,-4.4147,-4.3358,-4.276,0.0,-4.1153,-4.0527,-4.0155,-3.991,-3.9781,-3.9556,-3.9286,-3.9131,-3.9023,-3.8914,-3.8887,-3.8706,-3.8495,-3.8843,-3.8706,-3.8327,-3.7754,-3.7326,-3.6936,-3.6523,-3.6352,-3.6211,-3.5926,-3.5816,-3.5705,-3.5437,-3.5357,-3.5327,-3.5175,-3.4711,-3.4144,-3.3455,-3.332,-3.332,-3.332,-3.3425,-3.3305,-3.2766,-3.2557,-3.2288,-3.175,-3.157,-3.1511,-3.1511,-3.1406,-3.0866,-2.9711,-2.9502,-2.8903,-2.7675,-2.76,-2.7854,-2.8397,-2.8427,-2.8928,-2.9984,-3.0013,-2.9676,-2.8963,-2.888,-2.81,-2.6736,-2.663,-2.6392,-5.4712,-5.4507,-5.3669,-5.2529,-5.1163,-4.9338,-4.6452,0.0,0.0,0.0,0.0,-4.051,-4.018,0.0,0.0,0.0,0.0,0.0,0.0,0.0,0.0,0.0,0.0,0.0,0.0,0.0,0.0,0.0,0.0,-5.0676,-5.0676,-4.9965,-4.956,-4.956,-4.9204,-4.9001,-4.9001,-4.753,-4.6786,-4.6769,-4.5309,-4.4615,-4.4615,-4.4615,-4.4147,-4.3341,-4.2625,0.0,-4.1032,-4.029,-3.9875,-3.9668,-3.9441,-3.9142,-3.8843,-3.8411,-3.8185,-3.8042,-3.7883,-3.7709,-3.7592,-3.7666,-3.774,-3.7653,-3.7178,-3.6754,-3.6352,-3.6038,-3.5894,-3.5797,-3.5636,-3.5604,-3.5572,-3.5537,-3.5504,-3.5504,-3.5504,-3.4966,-3.4414,-3.4068,-3.4008,-3.4008,-3.4008,-3.4307,-3.4307,-3.3634,-3.3245,-3.2781,-3.2108,-3.172,-3.1511,-3.1511,-3.1511,-3.1107,-3.0148,-3.0058,-2.9666,-2.8708,-2.8648,-2.8798,-2.9101,-2.9021,-2.9332,-3.0171,-3.0099,-2.9576,-2.8623,-2.8567,-2.7665,-2.6014,-2.5892,-2.566,-5.4729,-5.4834,-5.4169,-5.2203,-5.0878,-4.9197,-4.5947,-4.4164,0.0,0.0,0.0,-4.0096,-4.0096,0.0,0.0,0.0,0.0,0.0,0.0,0.0,0.0,0.0,0.0,0.0,0.0,0.0,0.0,0.0,0.0,0.0,-5.0997,-5.0557,-5.0185,-4.9864,-4.9306,-4.9001,-4.9001,-4.753,-4.6786,-4.6769,-4.5309,-4.4615,-4.4615,-4.4615,-4.4147,-4.3358,-4.2598,0.0,-4.0901,-4.0083,-3.9573,-3.9272,-3.8942,-3.8595,-3.823,-3.7666,-3.7342,-3.7178,-3.6921,-3.6799,-3.6723,-3.6646,-3.68,-3.6983,-3.6646,-3.6242,-3.591,-3.5703,-3.5572,-3.5504,-3.5504,-3.5504,-3.5504,-3.5504,-3.5504,-3.5504,-3.5504,-3.5085,-3.4728,-3.4728,-3.4728,-3.4728,-3.4728,-3.5145,-3.522,-3.4429,-3.3829,-3.32,-3.2378,-3.1824,-3.1511,-3.1511,-3.1511,-3.1227,-3.0567,-3.0507,-3.0238,-2.9651,-2.9606,-2.9639,-2.9762,-2.9555,-2.9671,-3.0119,-2.993,-2.9275,-2.8223,-2.8037,-2.7087,-2.5493,-2.5187,-2.492,-5.3674,-5.3662,-5.3101,-5.1199,-4.9517,-4.7483,-4.4327,0.0,0.0,0.0,-4.0146,-4.0096,-4.0096,-4.0696,-4.1221,0.0,0.0,0.0,0.0,0.0,0.0,0.0,0.0,0.0,0.0,0.0,0.0,0.0,0.0,0.0,-5.0304,-5.0777,-5.0507,-4.9137,-4.9035,-4.9001,-4.9001,-4.753,-4.6786,-4.6769,-4.5309,-4.4615,-4.4615,-4.4615,-4.4147,-4.3341,-4.249,0.0,0.0,-3.9681,-3.9017,-3.8667,-3.8315,-3.7812,-3.7298,-3.7057,-3.6815,-3.6585,-3.6554,-3.6414,-3.6258,-3.6242,-3.6399,-3.6507,-3.6163,-3.5894,-3.5703,-3.5554,-3.5504,-3.5504,-3.5504,-3.5504,-3.5504,-3.5504,-3.5504,-3.5504,-3.5504,-3.5459,-3.5415,-3.5415,-3.5415,-3.5415,-3.5415,-3.5459,-3.507,-3.3784,-3.3529,-3.3036,-3.1765,-3.154,-3.1511,-3.1511,-3.1511,-3.1227,-3.0567,-3.0507,-3.0238,-2.9651,-2.9606,-2.9779,-3.0222,-3.0097,-3.0119,-3.0286,-2.9968,-2.9334,-2.8379,-2.7538,-2.6681,-2.585,-2.4978,-2.4421,-5.252,-5.2805,-5.2399,-5.0429,-4.8758,-4.6868,-4.405,0.0,0.0,-4.0316,-4.0096,-4.0096,-4.0096,-4.035,-4.0527,0.0,0.0,0.0,0.0,0.0,0.0,0.0,0.0,0.0,0.0,0.0,0.0,0.0,0.0,0.0,-5.0862,-5.1048,-5.0744,-4.9678,-4.9238,-4.9001,-4.9001,-4.7986,-4.7242,-4.6786,-4.5737,-4.501,-4.4615,-4.4615,-4.4373,-4.3906,-4.3026,0.0,0.0,-3.9874,-3.8869,-3.7956,-3.7666,-3.7238,-3.6739,-3.6445,-3.6196,-3.6022,-3.5925,-3.5844,-3.5765,-3.5765,-3.5829,-3.5908,-3.5846,-3.5718,-3.5572,-3.5537,-3.5504,-3.5504,-3.5504,-3.5504,-3.5504,-3.5504,-3.5504,-3.5504,-3.5504,-3.5504,-3.5504,-3.5504,-3.5504,-3.5504,-3.5504,-3.5504,-3.5175,-3.4218,-3.3754,-3.3155,-3.2213,-3.175,-3.1511,-3.1511,-3.1511,-3.1362,-3.1021,-3.0963,-3.0773,-3.0335,-3.032,-3.0381,-3.0485,-3.0249,-3.0037,-2.9867,-2.9435,-2.8705,-2.7674,-2.7198,-2.6507,-2.5647,-2.5179,-2.4874,-5.0833,-5.1294,-5.1013,-4.9218,-4.7648,-4.5953,0.0,0.0,-4.0984,-4.0265,-4.0096,-4.0096,-4.0096,-4.0096,-4.0096,-4.0096,0.0,0.0,0.0,0.0,0.0,0.0,0.0,0.0,0.0,0.0,0.0,0.0,0.0,0.0,-5.1269,-5.1185,-5.0777,-4.9796,-4.9241,-4.8956,-4.8956,-4.8091,-4.7302,-4.6544,-4.5778,-4.5009,-4.4298,-4.4298,-4.4224,-4.4042,-4.3122,0.0,0.0,-3.9758,-3.8523,-3.7328,-3.7028,-3.6646,-3.6226,-3.599,-3.5814,-3.5621,-3.5522,-3.5504,-3.5504,-3.5504,-3.5504,-3.5537,-3.5621,-3.5572,-3.5504,-3.5504,-3.5504,-3.5504,-3.5504,-3.5504,-3.5504,-3.5504,-3.5504,-3.5504,-3.5504,-3.5504,-3.5504,-3.5504,-3.5504,-3.5504,-3.5504,-3.5504,-3.5265,-3.4608,-3.4114,-3.3484,-3.2617,-3.2079,-3.1691,-3.1468,-3.1438,-3.1409,-3.1307,-3.1248,-3.1073,-3.0762,-3.0702,-3.0538,-3.0312,-3.0038,-2.9668,-2.9212,-2.8753,-2.8099,-2.7241,-2.6849,-2.6323,-2.5665,-2.5352,-2.5205,-4.8346,-4.8787,-4.8643,-4.7363,-4.5909,-4.4374,0.0,0.0,-4.0984,-4.0265,-4.0096,-4.0096,-4.0096,-4.0096,-4.0096,-4.0096,-4.0113,0.0,0.0,0.0,0.0,0.0,0.0,0.0,0.0,0.0,0.0,0.0,0.0,0.0,-5.1269,-5.1185,-5.0541,-4.9069,-4.888,-4.8818,-4.8818,-4.7701,-4.6745,-4.5996,-4.513,-4.4324,-4.3608,-4.3608,-4.3608,-4.3545,0.0,0.0,0.0,-3.9063,-3.7806,-3.6693,-3.6336,-3.6006,-3.572,-3.5688,-3.5621,-3.5504,-3.5504,-3.5504,-3.5504,-3.5504,-3.5504,-3.5504,-3.5504,-3.5504,-3.5504,-3.5504,-3.5504,-3.5504,-3.5504,-3.5504,-3.5504,-3.5504,-3.5504,-3.5504,-3.5504,-3.5504,-3.5504,-3.5504,-3.5504,-3.5504,-3.5504,-3.5504,-3.5265,-3.4608,-3.4503,-3.3993,-3.2677,-3.2482,-3.2184,-3.1381,-3.1307,-3.1307,-3.1307,-3.1117,-3.0881,-3.0612,-3.0417,-3.0099,-2.9623,-2.9435,-2.898,-2.832,-2.7973,-2.7656,-2.7289,-2.6488,-2.6094,-2.6081,-2.5338,-2.5214,-4.6563,-4.7048,-4.6921,-4.5772,-4.4769,-4.362,-4.1924,0.0,-4.0383,-4.0146,-4.0096,-4.0096,-4.0096,-4.0096,-4.0096,-4.0096,-4.0096,0.0,0.0,0.0,0.0,0.0,0.0,0.0,0.0,0.0,0.0,0.0,0.0,0.0,-5.2012,-5.1488,-5.0541,-4.9052,-4.8863,-4.8738,-4.8595,-4.751,-4.6509,-4.5654,-4.4772,-4.3986,-4.3248,-4.3248,-4.3127,0.0,0.0,0.0,-3.9627,-3.8952,-3.7715,-3.6195,-3.5943,-3.5735,-3.5572,-3.5572,-3.5522,-3.5504,-3.5504,-3.5504,-3.5504,-3.5504,-3.5504,-3.5504,-3.5504,-3.5504,-3.5504,-3.5504,-3.5504,-3.5504,-3.5504,-3.5504,-3.5504,-3.5504,-3.5504,-3.5504,-3.5504,-3.5504,-3.5504,-3.5504,-3.5504,-3.5504,-3.5504,-3.5504,-3.5429,-3.522,-3.4675,-3.415,-3.3733,-3.2685,-3.1912,-3.1676,-3.104,-3.0613,-3.0613,-3.0463,-3.0085,-2.9404,-2.917,-2.8885,-2.8514,-2.8352,-2.8105,-2.7756,-2.741,-2.7142,-2.6897,-2.6549,-2.6358,-2.6358,-2.6148,-2.6093,0.0,-4.4834,-4.4749,-4.4045,-4.3311,0.0,0.0,0.0,0.0,-4.0096,-4.0096,-4.0096,-4.0096,-4.0096,-4.0096,-4.0096,-4.0096,0.0,0.0,0.0,0.0,0.0,0.0,0.0,0.0,0.0,0.0,0.0,0.0,0.0,-5.2268,-5.1525,-5.0516,-4.9159,-4.8761,-4.8468,-4.8275,-4.6979,-4.5832,-4.4919,-4.3913,-4.3025,-4.2317,-4.2317,-4.2173,0.0,0.0,-4.0702,0.0,-3.8656,-3.7466,-3.5863,-3.5671,-3.5572,-3.5504,-3.5504,-3.5504,-3.5504,-3.5504,-3.5504,-3.5504,-3.5504,-3.5504,-3.5504,-3.5504,-3.5504,-3.5504,-3.5504,-3.5504,-3.5504,-3.5504,-3.5504,-3.5504,-3.5504,-3.5504,-3.5504,-3.5504,-3.5504,-3.5504,-3.5504,-3.5504,-3.5504,-3.5504,-3.5504,-3.5472,-3.5392,-3.4857,-3.4324,-3.393,-3.2954,-3.2063,-3.1397,-3.0731,-3.014,-2.9574,-2.9716,-2.9467,-2.8675,-2.8417,-2.8124,-2.7756,-2.7656,-2.749,-2.7188,-2.6985,-2.6816,-2.6624,-2.6521,-2.6499,-2.6499,-2.6499,-2.6499,0.0,-4.2362,-4.2387,-4.2255,-4.1711,0.0,0.0,0.0,0.0,0.0,-4.0096,-4.0096,-4.0096,-4.0096,-4.0096,-4.0096,-4.0096,0.0,0.0,0.0,0.0,0.0,0.0,0.0,0.0,0.0,0.0,0.0,0.0,0.0,-5.2152,-5.1362,-5.0424,-4.9277,-4.8496,-4.8016,-4.7836,-4.6083,-4.4793,-4.3915,-4.2611,-4.1632,-4.0974,-4.0974,-4.0974,0.0,0.0,-3.9828,-3.8429,-3.8068,-3.7028,-3.5655,-3.5554,-3.5504,-3.5504,-3.5504,-3.5504,-3.5504,-3.5504,-3.5504,-3.5504,-3.5504,-3.5504,-3.5504,-3.5504,-3.5504,-3.5504,-3.5504,-3.5504,-3.5504,-3.5504,-3.5504,-3.5504,-3.5504,-3.5504,-3.5504,-3.5504,-3.5504,-3.5504,-3.5504,-3.5504,-3.5472,-3.5472,-3.5472,-3.5374,-3.518,-3.4968,-3.4468,-3.3525,-3.3163,-3.2359,-3.0736,-3.0443,-2.9781,-2.8427,-2.8849,-2.8917,-2.8254,-2.8026,-2.7723,-2.7268,-2.7235,-2.7066,-2.6679,-2.6679,-2.6624,-2.6499,-2.6499,-2.6499,-2.6499,-2.6499,-2.6499,-4.057,0.0,-4.151,-4.1457,-4.1339,-4.1052,0.0,0.0,0.0,0.0,0.0,0.0,0.0,0.0,-4.0096,-4.0096,0.0,0.0,0.0,0.0,0.0,0.0,0.0,0.0,0.0,0.0,0.0,0.0,0.0,-5.2859,-5.19,-5.0944,-4.9958,-4.896,-4.7645,-4.7032,-4.715,-4.5088,-4.3835,-4.3313,-4.1658,-4.0766,-4.0612,-4.0612,-4.0528,0.0,-3.9867,-3.8989,-3.7849,-3.7268,-3.6423,-3.5554,-3.5504,-3.5504,-3.5504,-3.5504,-3.5504,-3.5504,-3.5504,-3.5504,-3.5504,-3.5504,-3.5504,-3.5504,-3.5504,-3.5504,-3.5504,-3.5504,-3.5504,-3.5504,-3.5504,-3.5504,-3.5504,-3.5504,-3.5504,-3.5504,-3.5504,-3.5504,-3.5504,-3.5504,-3.5359,-3.5261,-3.5261,-3.5063,-3.4865,-3.4831,-3.4366,-3.3919,-3.3528,-3.2554,-3.1647,-3.1096,-2.9828,-2.8852,-2.8354,-2.8312,-2.8026,-2.733,-2.7108,-2.6918,-2.6705,-2.6705,-2.6624,-2.6555,-2.6555,-2.6521,-2.6499,-2.6499,-2.6499,-2.6499,-2.6499,-2.6499,-4.0096,-4.0375,-4.0696,-4.0696,-4.0696,-4.0578,-4.0197,0.0,0.0,0.0,0.0,0.0,0.0,0.0,0.0,0.0,0.0,0.0,0.0,0.0,0.0,0.0,0.0,0.0,0.0,0.0,0.0,0.0,0.0,-5.2585,-5.1489,-5.0397,-4.9239,-4.8069,-4.676,-4.6214,-4.6617,-4.4338,-4.3063,-4.2726,-4.0888,-4.0016,-4.0016,-4.0016,-3.993,0.0,-3.9148,-3.8379,-3.7511,-3.6884,-3.6172,-3.5504,-3.5504,-3.5504,-3.5504,-3.5504,-3.5504,-3.5504,-3.5504,-3.5504,-3.5504,-3.5504,-3.5504,-3.5504,-3.5504,-3.5504,-3.5504,-3.5504,-3.5504,-3.5504,-3.5504,-3.5504,-3.5504,-3.5504,-3.5504,-3.5504,-3.5504,-3.5439,-3.5359,-3.5359,-3.5162,-3.4964,-3.4964,-3.4668,-3.4351,-3.4182,-3.3722,-3.3255,-3.2791,-3.2044,-3.1186,-3.0295,-2.9355,-2.8452,-2.7631,-2.7478,-2.7242,-2.6884,-2.6748,-2.6658,-2.6499,-2.6499,-2.6499,-2.6499,-2.6499,-2.6499,-2.6499,-2.6499,-2.6499,-2.6499,-2.6499,-2.6499,-4.0096,-4.0096,-4.0096,-4.0096,-4.0096,-4.0096,-4.0096,0.0,0.0,0.0,0.0,0.0,0.0,0.0,0.0,0.0,0.0,0.0,0.0,0.0,0.0,0.0,0.0,0.0,0.0,0.0,0.0,0.0,0.0,-5.2039,-5.0653,-4.9518,-4.828,-4.685,-4.5793,-4.5494,-4.6001,-4.3692,-4.241,-4.219,-4.0293,-3.9388,-3.9388,-3.9388,-3.9328,-3.923,0.0,0.0,-3.7225,-3.6596,-3.6013,-3.5504,-3.5504,-3.5504,-3.5504,-3.5504,-3.5504,-3.5504,-3.5504,-3.5504,-3.5504,-3.5504,-3.5504,-3.5504,-3.5504,-3.5504,-3.5504,-3.5504,-3.5504,-3.5504,-3.5504,-3.5504,-3.5504,-3.5504,-3.5504,-3.5504,-3.5472,-3.5294,-3.5148,-3.5129,-3.4817,-3.4549,-3.4515,-3.4133,-3.3728,-3.3332,-3.296,-3.2475,-3.1773,-3.1542,-3.0813,-2.9197,-2.8944,-2.8289,-2.6907,-2.6709,-2.6692,-2.6692,-2.6692,-2.6624,-2.6499,-2.6499,-2.6499,-2.6499,-2.6499,-2.6499,-2.6499,-2.6499,-2.6499,-2.6499,-2.6499,-2.6499,-4.0096,-4.0096,-4.0096,-4.0096,-4.0096,-4.0096,0.0,0.0,0.0,0.0,0.0,0.0,0.0,0.0,0.0,0.0,0.0,0.0,0.0,0.0,0.0,0.0,0.0,0.0,0.0,0.0,0.0,0.0,0.0,-5.0679,-4.8742,-4.7714,-4.6671,-4.553,-4.4845,-4.4496,-4.461,-4.2921,-4.1991,-4.1753,-4.0147,-3.9388,-3.9388,-3.9388,-3.9095,-3.8512,0.0,-3.721,-3.6582,-3.5923,-3.5594,-3.5504,-3.5504,-3.5504,-3.5504,-3.5504,-3.5504,-3.5504,-3.5504,-3.5504,-3.5504,-3.5504,-3.5504,-3.5504,-3.5504,-3.5504,-3.5504,-3.5504,-3.5504,-3.5504,-3.5504,-3.5504,-3.5504,-3.5504,-3.5504,-3.5439,-3.5294,-3.5082,-3.4902,-3.4798,-3.4332,-3.3874,-3.3693,-3.3101,-3.2583,-3.2331,-3.1859,-3.1381,-3.1161,-3.0823,-3.0225,-2.9261,-2.8594,-2.7954,-2.7276,-2.6798,-2.6521,-2.6521,-2.6521,-2.6521,-2.6499,-2.6499,-2.6499,-2.6499,-2.6499,-2.6499,-2.6499,-2.6499,-2.6499,-2.6499,-2.6499,-2.6499,-4.0096,-4.0096,-4.0096,-4.0096,-4.0096,-4.0096,0.0,0.0,0.0,0.0,0.0,0.0,0.0,0.0,0.0,0.0,0.0,0.0,0.0,0.0,0.0,0.0,0.0,0.0,0.0,0.0,0.0,0.0,0.0,0.0,-4.7537,-4.674,-4.5768,-4.4603,-4.4166,-4.3895,-4.3762,-4.2372,-4.1693,-4.1678,-4.0147,-3.9388,-3.9388,-3.9388,-3.9035,-3.8347,0.0,-3.706,-3.6432,-3.5774,-3.5504,-3.5504,-3.5504,-3.5504,-3.5504,-3.5504,-3.5504,-3.5504,-3.5504,-3.5504,-3.5504,-3.5504,-3.5504,-3.5504,-3.5504,-3.5504,-3.5504,-3.5504,-3.5504,-3.5504,-3.5504,-3.5504,-3.5504,-3.5504,-3.5504,-3.5439,-3.5261,-3.4916,-3.4534,-3.4283,-3.3652,-3.3129,-3.2925,-3.2367,-3.1909,-3.1703,-3.1259,-3.0823,-3.0533,-3.0343,-2.9808,-2.871,-2.8284,-2.7758,-2.6952,-2.6637,-2.6612,-2.6914,-2.6939,-2.6939,-2.6939,-2.6939,-2.6801,-2.6499,-2.6499,-2.6499,-2.6499,-2.6499,-2.6499,-2.6499,-2.6499,-2.6499,-4.0096,-4.0096,-4.0096,-4.0096,0.0,-4.0096,0.0,0.0,0.0,0.0,0.0,0.0,0.0,0.0,0.0,0.0,0.0,0.0,0.0,0.0,0.0,0.0,0.0,0.0,0.0,0.0,0.0,0.0,0.0,0.0,-4.6497,-4.583,-4.5057,-4.3964,-4.3714,-4.3518,-4.329,-4.2043,-4.1498,-4.1618,-4.0111,-3.9388,-3.9388,-3.9388,-3.896,-3.8138,-3.7629,-3.6971,-3.6222,-3.5714,-3.5504,-3.5504,-3.5504,-3.5504,-3.5504,-3.5504,-3.5504,-3.5504,-3.5504,-3.5504,-3.5504,-3.5504,-3.5504,-3.5504,-3.5504,-3.5504,-3.5504,-3.5504,-3.5504,-3.5504,-3.5439,-3.5439,-3.5407,-3.5341,-3.5309,-3.5228,-3.4949,-3.4501,-3.4011,-3.3555,-3.2889,-3.2345,-3.2092,-3.1653,-3.1259,-3.1048,-3.0723,-3.0394,-3.0088,-3.0049,-2.9593,-2.8398,-2.8185,-2.7708,-2.6763,-2.6801,-2.7115,-2.7632,-2.7544,-2.7469,-2.7469,-2.7392,-2.7115,-2.67,-2.6562,-2.6499,-2.6499,-2.6499,-2.6499,-2.6499,-2.6499,-2.6499,-4.0096,-4.0096,-4.0096,-4.0096,0.0,0.0,0.0,0.0,0.0,0.0,0.0,0.0,0.0,0.0,0.0,0.0,0.0,0.0,0.0,0.0,0.0,0.0,0.0,0.0,0.0,0.0,0.0,0.0,0.0,0.0,-4.5294,-4.4709,-4.4212,-4.3729,-4.3463,-4.3329,-4.329,-4.2043,-4.1422,-4.1407,-4.0053,-3.9388,-3.9388,-3.9388,-3.8706,-3.7479,-3.7434,-3.6701,-3.5564,-3.5534,-3.5504,-3.5504,-3.5504,-3.5504,-3.5504,-3.5504,-3.5504,-3.5504,-3.5504,-3.5504,-3.5504,-3.5504,-3.5504,-3.5504,-3.5504,-3.5504,-3.5504,-3.5504,-3.5504,-3.5472,-3.5261,-3.5213,-3.5148,-3.4831,-3.4765,-3.4582,-3.4011,-3.3632,-3.3199,-3.2632,-3.2055,-3.1556,-3.1161,-3.0748,-3.0406,-3.0228,-3.0011,-2.9869,-2.983,-2.983,-2.9553,-2.89,-2.8411,-2.7871,-2.7268,-2.7695,-2.8222,-2.8737,-2.8335,-2.8047,-2.8047,-2.7557,-2.7268,-2.7218,-2.6751,-2.6499,-2.6499,-2.6499,-2.6499,-2.6499,-2.6499,-2.6499,-4.0096,-4.0096,-4.0096,-4.0096,0.0,0.0,0.0,0.0,0.0,0.0,0.0,0.0,0.0,0.0,0.0,0.0,0.0,0.0,0.0,0.0,0.0,0.0,0.0,0.0,0.0,0.0,0.0,0.0,0.0,0.0,-4.4458,-4.4127,-4.3793,-4.3463,-4.3344,-4.3135,-4.2731,-4.1833,-4.1175,-4.0756,-3.9843,-3.9388,-3.9373,-3.8975,-3.8272,-3.7389,-3.7,-3.6327,-3.5504,-3.5504,-3.5504,-3.5504,-3.5504,-3.5504,-3.5504,-3.5504,-3.5504,-3.5504,-3.5504,-3.5504,-3.5504,-3.5504,-3.5504,-3.5504,-3.5504,-3.5504,-3.5472,-3.5359,-3.5326,-3.5294,-3.5213,-3.5115,-3.4949,-3.4582,-3.4433,-3.4167,-3.3618,-3.3199,-3.269,-3.1992,-3.1505,-3.1086,-3.071,-3.0406,-3.019,-3.0113,-2.9934,-2.9792,-2.9792,-2.9792,-2.9566,-2.895,-2.8436,-2.8021,-2.7808,-2.8298,-2.8662,-2.8875,-2.87,-2.8612,-2.8612,-2.8411,-2.8147,-2.7795,-2.7291,-2.7002,-2.7002,-2.6663,-2.6499,-2.6499,-2.6851,-2.7002,-4.0096,-4.0096,-4.0096,0.0,0.0,0.0,0.0,0.0,0.0,0.0,0.0,0.0,0.0,0.0,0.0,0.0,0.0,0.0,0.0,0.0,0.0,0.0,0.0,0.0,0.0,0.0,0.0,0.0,0.0,0.0,0.0,-4.3557,-4.328,-4.303,-4.2821,-4.2506,-4.2096,-4.1399,-4.0846,-4.0382,-3.9738,-3.9388,-3.9394,-3.8706,-3.8033,-3.7375,-3.6746,-3.6118,-3.5504,-3.5504,-3.5504,-3.5504,-3.5504,-3.5504,-3.5504,-3.5504,-3.5504,-3.5504,-3.5504,-3.5504,-3.5504,-3.5504,-3.5472,-3.5407,-3.5407,-3.5326,-3.5228,-3.5096,-3.4997,-3.4916,-3.4802,-3.4702,-3.452,-3.3977,-3.3722,-3.3381,-3.2783,-3.2367,-3.1982,-3.127,-3.0923,-3.0609,-3.0267,-3.0113,-3.0011,-3.0011,-2.9908,-2.9792,-2.9792,-2.9792,-2.9566,-2.895,-2.875,-2.8561,-2.8386,-2.8875,-2.9164,-2.9164,-2.9164,-2.9164,-2.9164,-2.8988,-2.8712,-2.8373,-2.7821,-2.7544,-2.7544,-2.7168,-2.7014,-2.7014,-2.7369,-2.7544,-4.0096,-4.0096,0.0,0.0,0.0,0.0,0.0,0.0,0.0,0.0,0.0,0.0,0.0,0.0,0.0,0.0,0.0,0.0,0.0,0.0,0.0,0.0,0.0,0.0,0.0,0.0,0.0,0.0,0.0,0.0,0.0,-4.3057,-4.2604,-4.2396,-4.1767,-4.1422,-4.1407,-4.0726,-4.0397,-4.0382,-3.9723,-3.9388,-3.9394,-3.8691,-3.8018,-3.7375,-3.6746,-3.6103,-3.5504,-3.5504,-3.5504,-3.5504,-3.5504,-3.5504,-3.5504,-3.5504,-3.5504,-3.5504,-3.5504,-3.5504,-3.5504,-3.5504,-3.5359,-3.518,-3.518,-3.4949,-3.4698,-3.4698,-3.4549,-3.4312,-3.3874,-3.3908,-3.3839,-3.2917,-3.2561,-3.2151,-3.1381,-3.111,-3.0874,-3.0482,-3.0228,-3.0049,-2.983,-2.9792,-2.9792,-2.9792,-2.9792,-2.9792,-2.9792,-2.9792,-2.9578,-2.8963,-2.9453,-2.9566,-2.895,-2.9465,-2.9792,-2.9792,-2.9792,-2.9792,-2.9792,-2.9239,-2.89,-2.89,-2.8398,-2.8109,-2.8109,-2.8109,-2.8109,-2.8109,-2.8109,-2.8109,-4.0096,-4.0096,0.0,0.0,0.0,0.0,0.0,0.0,0.0,0.0,0.0,0.0,0.0,0.0,0.0,0.0,0.0,0.0,0.0,0.0,0.0,0.0,0.0,0.0,0.0,0.0,0.0,0.0,0.0,0.0,0.0,-4.2593,-4.2239,-4.1722,-4.1512,-4.116,-4.0696,-4.0502,-4.0172,-3.9709,-3.9514,-3.9388,-3.9343,-3.8227,-3.7599,-3.7345,-3.6267,-3.5684,-3.5504,-3.5504,-3.5504,-3.5504,-3.5504,-3.5504,-3.5504,-3.5504,-3.5504,-3.5504,-3.5504,-3.5504,-3.5504,-3.5504,-3.5359,-3.518,-3.5034,-3.4735,-3.4414,-3.3997,-3.3756,-3.3479,-3.2952,-3.2739,-3.2632,-3.2345,-3.2055,-3.1666,-3.1011,-3.0798,-3.066,-3.0267,-3.0152,-3.0049,-2.983,-2.9792,-2.9792,-2.9792,-2.9792,-2.9792,-2.9792,-2.9792,-2.9729,-2.9553,-2.9691,-2.9729,-2.9553,-2.9691,-2.9792,-2.9792,-2.9792,-2.9792,-2.9792,-2.9628,-2.9528,-2.9528,-2.8976,-2.865,-2.865,-2.8298,-2.8109,-2.8109,-2.8499,-2.865,-4.0096,0.0,0.0,0.0,0.0,0.0,0.0,0.0,0.0,0.0,0.0,0.0,0.0,0.0,0.0,0.0,0.0,0.0,0.0,0.0,0.0,0.0,0.0,0.0,0.0,0.0,0.0,0.0,0.0,0.0,0.0,-4.2156,-4.1707,-4.101,-4.0741,-4.0412,-4.0023,-4.0008,-3.9813,-3.9388,-3.9388,-3.9388,-3.9328,-3.8018,-3.7404,-3.7345,-3.6058,-3.5504,-3.5504,-3.5504,-3.5504,-3.5504,-3.5504,-3.5504,-3.5504,-3.5504,-3.5504,-3.5504,-3.5504,-3.5439,-3.5359,-3.5359,-3.5148,-3.485,-3.4635,-3.4182,-3.3618,-3.3171,-3.2818,-3.2461,-3.2042,-3.18,-3.1666,-3.1666,-3.1445,-3.1099,-3.047,-3.0318,-3.0279,-3.0011,-2.9972,-2.9934,-2.983,-2.9792,-2.9792,-2.9792,-2.9792,-2.9792,-2.9792,-2.9792,-2.9792,-2.9792,-2.9792,-2.9792,-2.9792,-2.9792,-2.9792,-2.9792,-2.9792,-2.9792,-2.9792,-2.9792,-2.9792,-2.9792,-2.9453,-2.9277,-2.9277,-2.8938,-2.8775,-2.8775,-2.9114,-2.9277,0.0,0.0,0.0,0.0,0.0,0.0,0.0,0.0,0.0,0.0,0.0,0.0,0.0,0.0,0.0,0.0,0.0,0.0,0.0,0.0,0.0,0.0,0.0,0.0,0.0,0.0,0.0,0.0,0.0,0.0,0.0,-4.1692,-4.0995,-4.0337,-3.9723,-3.9388,-3.9388,-3.9388,-3.9388,-3.9388,-3.9349,-3.9334,-3.929,-3.7988,-3.7345,-3.7165,-3.6013,-3.5504,-3.5504,-3.5504,-3.5504,-3.5504,-3.5504,-3.5504,-3.5504,-3.5504,-3.5504,-3.5504,-3.5472,-3.5326,-3.518,-3.5148,-3.4783,-3.4312,-3.4094,-3.3374,-3.2596,-3.2345,-3.1896,-3.1368,-3.1196,-3.1035,-3.0949,-3.0911,-3.0761,-3.0508,-2.9908,-2.9792,-2.9792,-2.9792,-2.9792,-2.9792,-2.9792,-2.9792,-2.9792,-2.9792,-2.9792,-2.9792,-2.9792,-2.9792,-2.9792,-2.9792,-2.9792,-2.9792,-2.9792,-2.9792,-2.9792,-2.9792,-2.9792,-2.9792,-2.9792,-2.9792,-2.9792,-2.9792,-2.9792,-2.9792,-2.9792,-2.9792,-2.9792,-2.9753,-2.9753,-2.974,0.0,0.0,0.0,0.0,0.0,0.0,0.0,0.0,0.0,0.0,0.0,0.0,0.0,0.0,0.0,0.0,0.0,0.0,0.0,0.0,0.0,0.0,0.0,0.0,0.0,0.0,0.0,0.0,0.0,0.0,-4.1662,-4.0965,-4.0307,-3.9649,-3.9499,-3.9388,-3.9388,-3.9388,-3.9388,-3.9373,-3.8871,-3.8616,-3.8586,-3.7778,-3.6866,-3.5893,-3.5624,-3.5504,-3.5504,-3.5504,-3.5504,-3.5504,-3.5504,-3.5504,-3.5504,-3.5504,-3.5504,-3.5472,-3.5326,-3.5115,-3.4935,-3.485,-3.4414,-3.3874,-3.3563,-3.2881,-3.2128,-3.1666,-3.1235,-3.0823,-3.0621,-3.0545,-3.0482,-3.0343,-3.0267,-3.0164,-2.9869,-2.9792,-2.9792,-2.9792,-2.9792,-2.9792,-2.9792,-2.9792,-2.9792,-2.9792,-2.9792,-2.9792,-2.9792,-2.9792,-2.9792,-2.9792,-2.9792,-2.9792,-2.9792,-2.9792,-2.9792,-2.9792,-2.9792,-2.9792,-2.9792,-2.9792,-2.9792,-2.9792,-2.9792,-2.9792,-2.9792,-2.9792,-2.9689,-2.947,-2.947,-2.9314,0.0,0.0,0.0,0.0,0.0,0.0,0.0,0.0,0.0,0.0,0.0,0.0,0.0,0.0,0.0,0.0,0.0,0.0,0.0,0.0,0.0,0.0,0.0,0.0,0.0,0.0,0.0,0.0,0.0,-4.1976,-4.0965,-4.0591,-4.0098,-3.9403,-3.9388,-3.9388,-3.9388,-3.9388,-3.9245,-3.8931,-3.8556,-3.8063,-3.7464,-3.712,-3.6432,-3.5504,-3.5504,-3.5504,-3.5504,-3.5504,-3.5504,-3.5504,-3.5504,-3.5504,-3.5504,-3.5504,-3.5439,-3.5326,-3.5115,-3.4835,-3.4452,-3.4216,-3.3756,-3.3199,-3.2846,-3.22,-3.1482,-3.1123,-3.0647,-3.0241,-3.0152,-3.0113,-3.0075,-2.9972,-3.0049,-3.0049,-2.983,-2.9792,-2.9792,-2.9792,-2.9792,-2.9792,-2.9792,-2.9792,-2.9792,-2.9792,-2.9792,-2.9792,-2.9792,-2.9792,-2.9792,-2.9792,-2.9792,-2.9792,-2.9792,-2.9792,-2.9792,-2.9792,-2.9792,-2.9792,-2.9792,-2.9702,-2.9663,-2.9792,-2.9792,-2.9792,-2.9792,-2.9792,-2.965,-2.9419,-2.9419,-2.9184,0.0,0.0,0.0,0.0,0.0,0.0,0.0,0.0,0.0,0.0,0.0,0.0,0.0,0.0,0.0,0.0,0.0,0.0,0.0,0.0,0.0,0.0,0.0,0.0,0.0,0.0,0.0,0.0,0.0,-4.1587,-4.0457,-4.0172,-3.9798,-3.926,-3.9125,-3.9029,-3.9029,-3.9029,-3.8796,-3.8227,-3.8108,-3.7449,-3.6312,-3.6312,-3.6013,-3.5504,-3.5504,-3.5504,-3.5504,-3.5504,-3.5504,-3.5504,-3.5472,-3.5439,-3.5439,-3.5374,-3.5261,-3.5082,-3.4802,-3.4385,-3.3874,-3.3451,-3.296,-3.2453,-3.2019,-3.1445,-3.0836,-3.066,-3.0203,-2.9792,-2.9792,-2.9792,-2.9792,-2.9792,-2.9934,-3.0011,-2.983,-2.9792,-2.9792,-2.9792,-2.9792,-2.9792,-2.9792,-2.9792,-2.9792,-2.9792,-2.9792,-2.9792,-2.9792,-2.9792,-2.9792,-2.9792,-2.9792,-2.9792,-2.9792,-2.9792,-2.9792,-2.9792,-2.9792,-2.9792,-2.9792,-2.956,-2.947,-2.9675,-2.9675,-2.9675,-2.9675,-2.9675,-2.9534,-2.9223,-2.9223,-2.8949,0.0,0.0,0.0,0.0,0.0,0.0,0.0,0.0,0.0,0.0,0.0,0.0,0.0,0.0,0.0,0.0,0.0,0.0,0.0,0.0,0.0,0.0,0.0,0.0,0.0,0.0,0.0,0.0,-4.0995,-4.0591,-4.0412,-3.929,-3.8616,-3.8527,-3.7973,-3.7674,-3.7674,-3.7674,-3.7629,-3.7539,-3.7,-3.6357,-3.5639,-3.5639,-3.5594,-3.5504,-3.5504,-3.5504,-3.5504,-3.5504,-3.5504,-3.5472,-3.5326,-3.5261,-3.518,-3.4898,-3.4798,-3.4698,-3.4128,-3.3701,-3.3304,-3.2725,-3.22,-3.1666,-3.1272,-3.0823,-3.0444,-3.0228,-3.0011,-2.9792,-2.9792,-2.9792,-2.9792,-2.9792,-2.983,-2.983,-2.9792,-2.9792,-2.9792,-2.9792,-2.9792,-2.9792,-2.9792,-2.9792,-2.9792,-2.9792,-2.9792,-2.9792,-2.9792,-2.9792,-2.9792,-2.9792,-2.9792,-2.9792,-2.9792,-2.9792,-2.9792,-2.9792,-2.9792,-2.9792,-2.9792,-2.956,-2.9341,-2.9221,-2.917,-2.917,-2.917,-2.917,-2.9013,-2.863,-2.8459,-2.7926,0.0,0.0,0.0,0.0,0.0,0.0,0.0,0.0,0.0,0.0,0.0,0.0,0.0,0.0,0.0,0.0,0.0,0.0,0.0,0.0,0.0,0.0,0.0,0.0,0.0,0.0,0.0,0.0,-4.0561,-4.0068,-3.932,-3.8706,-3.8227,-3.7853,-3.7554,-3.7404,-3.7404,-3.7404,-3.724,-3.6881,-3.6252,-3.5789,-3.5504,-3.5504,-3.5504,-3.5504,-3.5504,-3.5504,-3.5504,-3.5504,-3.5504,-3.5472,-3.5294,-3.5115,-3.4983,-3.465,-3.4332,-3.3962,-3.3514,-3.2974,-3.239,-3.1946,-3.1482,-3.1048,-3.0748,-3.0444,-3.0228,-3.0113,-2.9972,-2.9792,-2.9792,-2.9792,-2.9792,-2.9792,-2.9792,-2.9792,-2.9792,-2.9792,-2.9792,-2.9792,-2.9792,-2.9792,-2.9792,-2.9792,-2.9792,-2.9792,-2.9792,-2.9792,-2.9792,-2.9792,-2.9792,-2.9792,-2.9792,-2.9792,-2.9792,-2.9792,-2.9792,-2.9792,-2.9792,-2.9792,-2.9792,-2.9326,-2.8961,-2.8788,-2.8736,-2.8697,-2.8618,-2.8435,-2.8235,-2.7926,-2.7846,-2.74,0.0,0.0,0.0,0.0,0.0,0.0,0.0,0.0,0.0,0.0,0.0,0.0,0.0,0.0,0.0,0.0,0.0,0.0,0.0,0.0,0.0,0.0,0.0,0.0,0.0,0.0,0.0,0.0,-4.0157,-3.9634,-3.8452,-3.8227,-3.7838,-3.7195,-3.7015,-3.6926,-3.6926,-3.6926,-3.6686,-3.6237,-3.5744,-3.5504,-3.5504,-3.5504,-3.5504,-3.5504,-3.5504,-3.5504,-3.5504,-3.5504,-3.5504,-3.5472,-3.5195,-3.4949,-3.4702,-3.4147,-3.3652,-3.3157,-3.2712,-3.2151,-3.1529,-3.1185,-3.0823,-3.0508,-3.0305,-3.0152,-3.0011,-3.0011,-2.9934,-2.9792,-2.9792,-2.9792,-2.9792,-2.9792,-2.9792,-2.9792,-2.9792,-2.9792,-2.9792,-2.9792,-2.9792,-2.9792,-2.9792,-2.9792,-2.9792,-2.9792,-2.9792,-2.9792,-2.9792,-2.9792,-2.9792,-2.9792,-2.9792,-2.9792,-2.9792,-2.9792,-2.9792,-2.9792,-2.9792,-2.9792,-2.9792,-2.9209,-2.8724,-2.8431,-2.8231,-2.8018,-2.7857,-2.758,-2.7336,-2.7103,-2.7021,-2.664,0.0,0.0,0.0,0.0,0.0,0.0,0.0,0.0,0.0,0.0,0.0,0.0,0.0,0.0,0.0,0.0,0.0,0.0,0.0,0.0,0.0,0.0,0.0,0.0,0.0,0.0,0.0,0.0,-3.9433,-3.9155,-3.8422,-3.7808,-3.718,-3.6552,-3.5923,-3.5609,-3.5609,-3.5609,-3.5594,-3.5549,-3.5519,-3.5504,-3.5504,-3.5504,-3.5504,-3.5504,-3.5504,-3.5504,-3.5504,-3.5504,-3.5504,-3.5439,-3.4931,-3.4582,-3.4298,-3.3199,-3.2668,-3.2345,-3.1553,-3.1172,-3.0986,-3.0596,-3.0292,-3.0075,-2.9908,-2.983,-2.983,-2.983,-2.9792,-2.9792,-2.9792,-2.9792,-2.9792,-2.9792,-2.9792,-2.9792,-2.9792,-2.9792,-2.9792,-2.9792,-2.9792,-2.9792,-2.9792,-2.9792,-2.9792,-2.9792,-2.9792,-2.9792,-2.9792,-2.9792,-2.9792,-2.9792,-2.9792,-2.9792,-2.9792,-2.9792,-2.9792,-2.9792,-2.9792,-2.9792,-2.9792,-2.9339,-2.8816,-2.8219,-2.7412,-2.6974,-2.6974,-2.6704,-2.6351,-2.5977,-2.5737,-2.5221,0.0,0.0,0.0,0.0,0.0,0.0,0.0,0.0,0.0,0.0,0.0,0.0,0.0,0.0,0.0,0.0,0.0,0.0,0.0,0.0,0.0,0.0,0.0,0.0,0.0,0.0,0.0,0.0,0.0,-3.8467,-3.7793,-3.7165,-3.6522,-3.5878,-3.5624,-3.5504,-3.5504,-3.5504,-3.5504,-3.5504,-3.5504,-3.5504,-3.5504,-3.5504,-3.5504,-3.5504,-3.5504,-3.5439,-3.5326,-3.5326,-3.5195,-3.4931,-3.4481,-3.4059,-3.3597,-3.2668,-3.2055,-3.1629,-3.1086,-3.0672,-3.0419,-3.0254,-3.0075,-2.9908,-2.983,-2.9792,-2.9792,-2.9792,-2.9792,-2.9792,-2.9792,-2.9792,-2.9792,-2.9792,-2.9792,-2.9792,-2.9792,-2.9792,-2.9792,-2.9792,-2.9792,-2.9792,-2.9792,-2.9792,-2.9792,-2.9792,-2.9792,-2.9792,-2.9792,-2.9792,-2.9792,-2.9792,-2.9792,-2.9792,-2.9792,-2.9792,-2.9792,-2.9792,-2.9792,-2.9792,-2.9792,-2.9209,-2.8685,-2.8219,-2.7196,-2.6415,-2.5999,-2.5664,-2.5316,-2.5009,-2.4882,-2.468,0.0,0.0,0.0,0.0,0.0,0.0,0.0,0.0,0.0,0.0,0.0,0.0,0.0,0.0,0.0,0.0,0.0,0.0,0.0,0.0,0.0,0.0,0.0,0.0,0.0,0.0,0.0,0.0,0.0,0.0,-3.715,-3.6716,-3.6178,-3.5534,-3.5504,-3.5504,-3.5504,-3.5504,-3.5504,-3.5504,-3.5504,-3.5504,-3.5504,-3.5504,-3.5504,-3.5504,-3.5504,-3.5392,-3.518,-3.5115,-3.4883,-3.4563,-3.4025,-3.3514,-3.2988,-3.2055,-3.1445,-3.1024,-3.0546,-3.0241,-3.0011,-3.0011,-2.9895,-2.9792,-2.9792,-2.9792,-2.9792,-2.9792,-2.9792,-2.9792,-2.9792,-2.9792,-2.9792,-2.9792,-2.9792,-2.9792,-2.9792,-2.9792,-2.9792,-2.9792,-2.9792,-2.9792,-2.9792,-2.9792,-2.9792,-2.9792,-2.9792,-2.9792,-2.9792,-2.9792,-2.9792,-2.9792,-2.9792,-2.9792,-2.9792,-2.9792,-2.9753,-2.965,-2.9663,-2.9624,-2.9456,-2.8973,-2.8486,-2.7966,-2.6981,-2.6155,-2.5411,-2.4988,-2.4605,-2.4251,-2.4209,-2.4046,0.0,0.0,0.0,0.0,0.0,0.0,0.0,0.0,0.0,0.0,0.0,0.0,0.0,0.0,0.0,0.0,0.0,0.0,0.0,0.0,0.0,0.0,0.0,0.0,0.0,0.0,0.0,0.0,-3.8347,-3.7793,-3.6552,-3.6462,-3.6163,-3.5534,-3.5504,-3.5504,-3.5504,-3.5504,-3.5504,-3.5504,-3.5504,-3.5504,-3.5504,-3.5504,-3.5504,-3.5504,-3.5472,-3.5359,-3.5148,-3.4968,-3.4668,-3.4264,-3.3563,-3.3023,-3.2525,-3.1371,-3.0836,-3.0584,-3.0023,-2.9792,-2.9792,-2.9792,-2.9792,-2.9792,-2.9792,-2.9792,-2.9792,-2.9792,-2.9792,-2.9792,-2.9792,-2.9792,-2.9792,-2.9792,-2.9792,-2.9792,-2.9792,-2.9792,-2.9792,-2.9792,-2.9792,-2.9792,-2.9792,-2.9792,-2.9792,-2.9792,-2.9792,-2.9792,-2.9792,-2.9792,-2.9792,-2.9792,-2.9792,-2.9792,-2.9792,-2.9792,-2.9702,-2.9419,-2.938,-2.9223,-2.8791,-2.8578,-2.8179,-2.7522,-2.6816,-2.6071,-2.52,-2.4743,-2.4229,-2.3797,-2.358,-2.3373,-3.9781,0.0,0.0,0.0,0.0,0.0,0.0,-3.6707,0.0,0.0,0.0,0.0,0.0,0.0,0.0,0.0,0.0,0.0,0.0,0.0,0.0,0.0,0.0,0.0,0.0,0.0,0.0,0.0,-3.727,-3.6851,-3.6507,-3.6028,-3.5684,-3.5504,-3.5504,-3.5504,-3.5504,-3.5504,-3.5504,-3.5504,-3.5504,-3.5504,-3.5504,-3.5359,-3.5294,-3.5261,-3.503,-3.4716,-3.4399,-3.4501,-3.4011,-3.3129,-3.2632,-3.2019,-3.1421,-3.0785,-3.0457,-3.0228,-2.9908,-2.9792,-2.9792,-2.9792,-2.9792,-2.9792,-2.9792,-2.9792,-2.9792,-2.9792,-2.9792,-2.9792,-2.9792,-2.9792,-2.9792,-2.9792,-2.9792,-2.9792,-2.9792,-2.9792,-2.9792,-2.9792,-2.9792,-2.9792,-2.9792,-2.9792,-2.9792,-2.9792,-2.9792,-2.9792,-2.9792,-2.9792,-2.9792,-2.9792,-2.9792,-2.9792,-2.9792,-2.9792,-2.9702,-2.9419,-2.9275,-2.9013,-2.8618,-2.8195,-2.7782,-2.7307,-2.661,-2.5988,-2.5411,-2.4658,-2.4024,-2.359,-2.3319,-2.3178,0.0,0.0,0.0,0.0,0.0,0.0,-3.6492,-3.6116,-3.5952,0.0,0.0,0.0,0.0,0.0,0.0,0.0,0.0,0.0,0.0,0.0,0.0,0.0,0.0,0.0,0.0,-3.7973,-3.7719,-3.7075,-3.6686,-3.6372,-3.6088,-3.5714,-3.5504,-3.5504,-3.5504,-3.5504,-3.5504,-3.5504,-3.5504,-3.5504,-3.5504,-3.5504,-3.5504,-3.5294,-3.5148,-3.5049,-3.4716,-3.4264,-3.377,-3.3701,-3.3199,-3.2417,-3.1946,-3.1421,-3.0849,-3.0406,-3.019,-3.0075,-2.9869,-2.9792,-2.9792,-2.9792,-2.9792,-2.9792,-2.9792,-2.9792,-2.9792,-2.9792,-2.9792,-2.9792,-2.9792,-2.9792,-2.9792,-2.9792,-2.9792,-2.9792,-2.9792,-2.9792,-2.9792,-2.9792,-2.9792,-2.9792,-2.9792,-2.9792,-2.9792,-2.9792,-2.9792,-2.9792,-2.9792,-2.9792,-2.9792,-2.9792,-2.9792,-2.974,-2.965,-2.965,-2.9443,-2.904,-2.8855,-2.8459,-2.7869,-2.7377,-2.6917,-2.6475,-2.5946,-2.5359,-2.4775,-2.4411,-2.3894,-2.3319,-2.3178,-2.3091,0.0,0.0,0.0,0.0,0.0,0.0,-3.6068,-3.5831,-3.5638,0.0,0.0,0.0,0.0,0.0,0.0,0.0,0.0,0.0,0.0,0.0,0.0,0.0,0.0,0.0,-3.7315,-3.73,-3.7045,-3.6417,-3.6372,-3.6118,-3.5534,-3.5504,-3.5504,-3.5504,-3.5504,-3.5504,-3.5504,-3.5504,-3.5504,-3.5504,-3.5472,-3.5472,-3.5472,-3.5195,-3.4968,-3.4754,-3.4366,-3.377,-3.3094,-3.269,-3.2309,-3.1909,-3.1421,-3.0986,-3.0546,-3.0203,-3.0075,-3.0049,-2.9869,-2.9792,-2.9792,-2.9792,-2.9792,-2.9792,-2.9792,-2.9792,-2.9792,-2.9792,-2.9792,-2.9792,-2.9792,-2.9792,-2.9792,-2.9792,-2.9792,-2.9792,-2.9792,-2.9792,-2.9792,-2.9792,-2.9792,-2.9792,-2.9792,-2.9792,-2.9792,-2.9792,-2.9792,-2.9792,-2.9792,-2.9792,-2.9792,-2.9792,-2.9792,-2.9689,-2.9419,-2.938,-2.9118,-2.851,-2.8219,-2.7696,-2.685,-2.6362,-2.5904,-2.5454,-2.5031,-2.4476,-2.3754,-2.4024,-2.3764,-2.3091,-2.3091,-2.3091,0.0,0.0,0.0,0.0,0.0,0.0,-3.5847,-3.5653,-3.5522,0.0,0.0,0.0,0.0,0.0,0.0,0.0,0.0,0.0,0.0,0.0,0.0,0.0,0.0,0.0,-3.6716,-3.6671,-3.6387,-3.5744,-3.5699,-3.5639,-3.5519,-3.5504,-3.5504,-3.5504,-3.5504,-3.5504,-3.5504,-3.5504,-3.5504,-3.5504,-3.5326,-3.5261,-3.5261,-3.4601,-3.4201,-3.3968,-3.315,-3.2533,-3.2051,-3.1542,-3.1272,-3.1198,-3.0911,-3.047,-2.9985,-2.9908,-2.9869,-2.9869,-2.9792,-2.9792,-2.9792,-2.9792,-2.9792,-2.9792,-2.9792,-2.9792,-2.9792,-2.9792,-2.9792,-2.9792,-2.9792,-2.9792,-2.9792,-2.9792,-2.9792,-2.9792,-2.9792,-2.9792,-2.9792,-2.9792,-2.9792,-2.9792,-2.9792,-2.9792,-2.9792,-2.9792,-2.9792,-2.9792,-2.9792,-2.9792,-2.9792,-2.9792,-2.9792,-2.9689,-2.9419,-2.9236,-2.8895,-2.8299,-2.7725,-2.7062,-2.6362,-2.5737,-2.5274,-2.5031,-2.4572,-2.4067,-2.3547,-2.3634,-2.345,-2.3091,-2.3091,-2.3091,0.0,0.0,0.0,-3.7104,0.0,0.0,0.0,-3.5554,-3.5504,0.0,0.0,0.0,0.0,0.0,0.0,0.0,0.0,0.0,0.0,0.0,0.0,0.0,0.0,0.0,-3.6028,-3.5998,-3.5863,-3.5534,-3.5504,-3.5504,-3.5504,-3.5504,-3.5504,-3.5504,-3.5504,-3.5504,-3.5504,-3.5504,-3.5439,-3.5359,-3.5148,-3.4968,-3.4783,-3.4099,-3.3638,-3.3346,-3.2497,-3.1896,-3.1492,-3.1048,-3.0723,-3.0533,-3.0419,-3.0164,-2.9792,-2.9792,-2.9792,-2.9792,-2.9792,-2.9792,-2.9792,-2.9792,-2.9792,-2.9792,-2.9792,-2.9792,-2.9792,-2.9792,-2.9792,-2.9792,-2.9792,-2.9792,-2.9792,-2.9792,-2.9792,-2.9792,-2.9792,-2.9792,-2.9792,-2.9792,-2.9792,-2.9792,-2.9792,-2.9792,-2.9792,-2.9792,-2.9792,-2.9792,-2.9792,-2.9792,-2.9792,-2.9792,-2.9792,-2.9663,-2.9275,-2.8973,-2.8498,-2.7765,-2.6969,-2.6268,-2.5569,-2.4903,-2.4348,-2.3993,-2.3754,-2.3547,-2.3319,-2.3319,-2.3232,-2.3091,-2.3091,-2.3091,0.0,0.0,0.0,0.0,0.0,-3.5846,0.0,0.0,0.0,0.0,0.0,0.0,0.0,0.0,0.0,0.0,0.0,0.0,0.0,0.0,0.0,0.0,0.0,0.0,-3.5504,-3.5504,-3.5504,-3.5504,-3.5504,-3.5504,-3.5504,-3.5504,-3.5504,-3.5504,-3.5504,-3.5504,-3.5504,-3.5504,-3.5392,-3.518,-3.4935,-3.4635,-3.4264,-3.3555,-3.303,-3.2654,-3.1882,-3.1344,-3.1048,-3.0685,-3.0356,-3.0049,-3.0075,-2.9972,-2.9792,-2.9792,-2.9792,-2.9792,-2.9792,-2.9792,-2.9792,-2.9792,-2.9792,-2.9792,-2.9792,-2.9792,-2.9792,-2.9792,-2.9792,-2.9792,-2.9792,-2.9792,-2.9792,-2.9792,-2.9792,-2.9792,-2.9792,-2.9792,-2.9792,-2.9792,-2.9792,-2.9792,-2.9792,-2.9792,-2.9792,-2.9792,-2.9792,-2.9792,-2.9792,-2.9792,-2.9792,-2.9792,-2.9792,-2.9624,-2.9131,-2.8749,-2.8139,-2.7267,-2.6404,-2.5611,-2.4946,-2.4143,-2.3537,-2.3101,-2.3091,-2.3091,-2.3091,-2.3091,-2.3091,-2.3091,-2.3091,-2.3091,0.0,0.0,0.0,0.0,-3.6116,0.0,0.0,0.0,0.0,0.0,0.0,0.0,0.0,0.0,0.0,0.0,0.0,0.0,0.0,0.0,0.0,0.0,0.0,0.0,0.0,-3.5504,-3.5504,-3.5504,-3.5504,-3.5504,-3.5504,-3.5504,-3.5504,-3.5504,-3.5504,-3.5504,-3.5504,-3.5504,-3.5392,-3.518,-3.4683,-3.4249,-3.3831,-3.2747,-3.2042,-3.1626,-3.0872,-3.0444,-3.0228,-2.9972,-2.9869,-2.9869,-3.0049,-2.9972,-2.9792,-2.9792,-2.9792,-2.9792,-2.9792,-2.9792,-2.9792,-2.9792,-2.9792,-2.9792,-2.9792,-2.9792,-2.9792,-2.9792,-2.9792,-2.9792,-2.9792,-2.9792,-2.9792,-2.9792,-2.9792,-2.9792,-2.9792,-2.9792,-2.9792,-2.9792,-2.9792,-2.9792,-2.9792,-2.9792,-2.9792,-2.9792,-2.9792,-2.9792,-2.9792,-2.9792,-2.9792,-2.9792,-2.9792,-2.9624,-2.9131,-2.8749,-2.8139,-2.7267,-2.6373,-2.5591,-2.4946,-2.4013,-2.3406,-2.3101,-2.3091,-2.3091,-2.3091,-2.3091,-2.3091,-2.3091,-2.3091,-2.3091,0.0,0.0,0.0,0.0,0.0,0.0,-3.5522,0.0,-3.5504,0.0,0.0,0.0,0.0,0.0,0.0,0.0,-3.5504,0.0,0.0,0.0,0.0,0.0,0.0,0.0,0.0,0.0,0.0,0.0,-3.5504,-3.5504,-3.5504,-3.5504,-3.5439,-3.5326,-3.5326,-3.5228,-3.503,-3.503,-3.4817,-3.4385,-3.3977,-3.3444,-3.2783,-3.2019,-3.1408,-3.0998,-3.0444,-3.019,-3.0075,-2.9869,-2.9792,-2.9792,-2.9908,-2.9869,-2.9792,-2.9792,-2.9792,-2.9792,-2.9792,-2.9792,-2.9792,-2.9792,-2.9792,-2.9792,-2.9792,-2.9792,-2.9792,-2.9792,-2.9792,-2.9792,-2.9792,-2.9792,-2.9792,-2.9792,-2.9792,-2.9792,-2.9792,-2.9792,-2.9792,-2.9792,-2.9792,-2.9792,-2.9792,-2.9792,-2.9905,-3.0218,-3.0269,-3.0382,-3.0683,-3.0457,-3.0269,-3.0269,-2.998,-2.9624,-2.9131,-2.8749,-2.8059,-2.7085,-2.5717,-2.4668,-2.41,-2.358,-2.3232,-2.3091,-2.3091,-2.3091,-2.3091,-2.3091,-2.3091,-2.3091,-2.3091,-2.3091,-3.6967,0.0,0.0,0.0,0.0,0.0,0.0,0.0,0.0,0.0,0.0,0.0,0.0,0.0,0.0,0.0,0.0,0.0,0.0,0.0,0.0,0.0,0.0,0.0,0.0,0.0,0.0,0.0,0.0,-3.5504,-3.5504,-3.5504,-3.5407,-3.5213,-3.5148,-3.4949,-3.4631,-3.4549,-3.423,-3.3667,-3.3304,-3.269,-3.1909,-3.1371,-3.0911,-3.0508,-3.0164,-3.0011,-3.0011,-2.9869,-2.9792,-2.9792,-2.9792,-2.9792,-2.9792,-2.9792,-2.9792,-2.9792,-2.9792,-2.9792,-2.9792,-2.9792,-2.9792,-2.9792,-2.9792,-2.9792,-2.9792,-2.9792,-2.9792,-2.9792,-2.9792,-2.9792,-2.9792,-2.9792,-2.9792,-2.9792,-2.9792,-2.9792,-2.9792,-2.9792,-2.9917,-3.0018,-3.0018,-3.0018,-3.0156,-3.0557,-3.0733,-3.0959,-3.1336,-3.106,-3.0731,-3.0541,-3.0177,-2.9669,-2.8986,-2.8618,-2.7898,-2.6685,-2.5168,-2.4057,-2.358,-2.3276,-2.3091,-2.3091,-2.3091,-2.3091,-2.3091,-2.3091,-2.3091,-2.3091,-2.3091,-2.3091,0.0,0.0,0.0,-3.572,0.0,0.0,0.0,0.0,-3.5504,0.0,0.0,0.0,0.0,0.0,0.0,0.0,0.0,0.0,0.0,0.0,0.0,0.0,0.0,0.0,0.0,0.0,0.0,0.0,0.0,0.0,-3.5504,-3.5504,-3.5407,-3.5213,-3.5001,-3.4735,-3.4414,-3.4201,-3.3845,-3.3304,-3.2917,-3.2295,-3.1516,-3.0973,-3.0508,-3.0126,-2.9895,-2.9792,-2.9792,-2.9792,-2.9792,-2.9792,-2.9792,-2.9792,-2.9792,-2.9792,-2.9792,-2.9792,-2.9792,-2.9792,-2.9792,-2.9792,-2.9792,-2.9792,-2.9792,-2.9792,-2.9792,-2.9792,-2.9792,-2.9792,-2.9792,-2.9792,-2.9792,-2.9792,-2.9792,-2.9792,-2.9792,-2.9792,-2.9792,-2.9792,-3.0218,-3.0583,-3.0583,-3.0583,-3.0595,-3.062,-3.1047,-3.1373,-3.1386,-3.1373,-3.1091,-3.0406,-3.0291,-2.9788,-2.8626,-2.8339,-2.7574,-2.6021,-2.502,-2.4294,-2.3797,-2.3363,-2.3091,-2.3091,-2.3091,-2.3091,-2.3091,-2.3091,-2.3091,-2.3091,-2.3091,-2.3091,0.0,0.0,-3.6742,-3.6322,0.0,0.0,0.0,0.0,0.0,0.0,0.0,0.0,0.0,0.0,0.0,0.0,0.0,0.0,0.0,0.0,0.0,0.0,0.0,0.0,0.0,0.0,0.0,0.0,0.0,0.0,-3.5504,-3.5504,-3.5359,-3.5001,-3.4702,-3.4298,-3.3667,-3.322,-3.2725,-3.2164,-3.1776,-3.1283,-3.0759,-3.0457,-3.0164,-2.9895,-2.983,-2.9792,-2.9792,-2.9792,-2.9792,-2.9792,-2.9792,-2.9792,-2.9792,-2.9792,-2.9792,-2.9792,-2.9792,-2.9792,-2.9792,-2.9792,-2.9792,-2.9792,-2.9792,-2.9792,-2.9792,-2.9792,-2.9792,-2.9792,-2.9792,-2.9792,-2.9792,-2.9792,-2.9792,-2.9792,-2.9792,-2.9792,-2.9892,-3.0269,-3.0482,-3.0721,-3.1072,-3.1424,-3.1675,-3.1675,-3.1825,-3.2064,-3.2453,-3.2177,-3.178,-3.1411,-3.0898,-3.0138,-2.9118,-2.813,-2.7245,-2.6585,-2.5696,-2.4897,-2.4293,-2.3797,-2.3437,-2.3101,-2.3091,-2.3091,-2.3091,-2.3091,-2.3091,-2.3091,-2.3091,-2.3091,-3.7605,-3.7488,0.0,-3.6911,-3.6806,0.0,-3.6282,0.0,0.0,0.0,0.0,0.0,0.0,0.0,0.0,0.0,0.0,0.0,0.0,-3.5504,0.0,0.0,0.0,0.0,0.0,0.0,0.0,0.0,0.0,0.0,0.0,-3.5439,-3.5228,-3.4835,-3.4399,-3.3839,-3.3094,-3.2489,-3.1909,-3.1384,-3.1061,-3.0685,-3.0292,-3.0152,-2.9972,-2.9792,-2.9792,-2.9792,-2.9792,-2.9792,-2.9792,-2.9792,-2.9792,-2.9792,-2.9792,-2.9792,-2.9792,-2.9792,-2.9792,-2.9792,-2.9792,-2.9792,-2.9792,-2.9792,-2.9792,-2.9792,-2.9792,-2.9792,-2.9792,-2.9792,-2.9792,-2.9792,-2.9792,-2.9792,-2.9792,-2.9792,-2.9792,-2.9942,-3.0193,-3.0545,-3.0922,-3.1286,-3.1625,-3.2152,-3.2411,-3.2126,-3.2264,-3.2471,-3.2661,-3.2388,-3.1919,-3.1339,-3.0725,-2.9872,-2.8677,-2.7492,-2.6706,-2.6525,-2.5795,-2.5128,-2.4621,-2.424,-2.3809,-2.3379,-2.3369,-2.3247,-2.3091,-2.3091,-2.3091,-2.3091,-2.3091,-2.3091]},{"header":{"parameterUnit":"m.s-1","parameterCategory":1,"la1":30.6,"la2":29.2853,"lo1":-89.7004,"lo2":-87.6739,"dy":0.0162,"dx":0.0183,"nx":112,"ny":82,"refTime":"2024-04-11T12:00:00:Z","depth":0,"parameterNumber":3,"parameterNumberName":"V-component_of_WINDS"},"data":[0.0,0.0,0.0,0.0,0.0,0.0,0.0,0.0,0.0,0.0,0.0,0.0,0.0,0.0,0.0,0.0,0.0,0.0,0.0,0.0,0.0,0.0,0.0,0.0,0.0,0.0,0.0,0.0,0.0,0.0,0.0,0.0,0.0,0.0,0.0,0.0,0.0,0.0,0.0,0.0,0.0,0.0,0.0,0.0,0.0,0.0,0.0,0.0,0.0,0.0,0.0,0.0,0.0,0.0,0.0,0.0,0.0,0.0,0.0,0.0,0.0,0.0,0.0,0.0,0.0,0.0,0.0,0.0,0.0,0.0,0.0,0.0,0.0,0.0,0.0,0.0,0.0,0.0,0.0,0.0,0.0,0.0,0.0,0.0,0.0,0.0,0.0,0.0,0.0,0.0,0.0,0.8814,0.906,0.8802,0.7966,0.7108,0.6405,0.5828,0.0,0.0,0.0,0.0,0.0,0.0,0.0,0.0,0.0,0.0,0.0,0.0,0.0,0.0,0.0,0.0,0.0,0.0,0.0,0.0,0.0,0.0,0.0,0.0,0.0,0.0,0.0,0.0,0.0,0.0,0.0,0.0,0.0,0.0,0.0,0.0,0.0,0.0,0.0,0.0,0.0,0.0,0.0,0.0,0.0,0.0,0.0,0.0,0.0,0.0,0.0,0.0,0.0,0.0,0.0,0.0,0.0,0.0,0.0,0.0,0.0,0.0,0.0,0.0,0.0,0.0,0.0,0.0,0.0,0.0,0.0,0.0,0.0,0.0,0.0,0.0,0.0,0.0,0.0,0.0,0.0,0.0,0.0,0.0,0.0,0.0,0.0,0.0,0.0,0.0,0.0,0.0,0.0,0.0,0.0,0.0,0.0,0.0,0.0,0.0,0.0,0.0,0.0,0.0,0.8443,0.99,0.9892,0.9608,0.9251,0.797,0.6931,0.6336,0.0,0.0,0.0,0.0,0.0,0.0,0.0,0.0,0.0,0.0,0.0,0.0,0.0,0.0,0.0,0.0,0.0,0.0,0.0,0.0,0.0,0.0,0.0,0.0,0.0,0.0,0.0,0.0,0.0,0.0,0.0,0.0,0.0,0.0,0.0,0.0,0.0,0.0,0.0,0.0,0.0,0.0,0.0,0.0,0.0,0.0,0.0,0.0,0.0,0.0,0.0,0.0,0.0,0.0,0.0,0.0,0.0,0.0,0.0,0.0,0.0,0.0,0.0,0.0,0.0,0.0,0.0,0.0,0.0,0.0,0.0,0.0,0.0,0.0,0.0,0.0,0.0,0.0,0.0,0.0,0.0,0.0,0.0,0.0,0.0,0.0,0.0,0.0,0.0,0.0,0.0,0.0,0.0,0.0,0.0,0.0,0.0,0.0,0.0,0.0,0.0,0.0,0.0,0.9134,1.0042,1.0759,1.0715,1.0478,1.0026,0.8712,0.7639,0.6971,0.5908,0.0,0.0,0.0,0.0,0.0,0.0,0.0,0.0,0.0,0.0,0.0,0.0,0.0,0.0,0.0,0.0,0.0,0.0,0.0,0.0,0.0,0.0,0.0,0.0,0.0,0.0,0.0,0.0,0.0,0.0,0.0,0.0,0.0,0.0,0.0,0.0,0.0,0.0,0.0,0.0,0.0,0.0,0.0,0.0,0.0,0.0,0.0,0.0,0.0,0.0,0.0,0.0,0.0,0.0,0.0,0.0,0.0,0.0,0.0,0.0,0.0,0.0,0.0,0.0,0.0,0.0,0.0,0.0,0.0,0.0,0.0,0.0,0.0,0.0,0.0,0.0,0.0,0.0,0.0,0.0,0.0,0.0,0.0,0.0,0.0,0.0,0.0,0.0,0.0,0.0,0.0,0.0,0.0,0.0,0.0,0.0,0.0,0.0,0.0,0.0,0.0,0.0,1.0398,1.1301,1.1446,1.14,1.115,1.0635,0.9338,0.8257,0.7603,0.6525,0.0,0.0,0.0,0.0,0.0,0.0,0.0,0.0,0.0,0.0,0.0,0.0,0.0,0.0,0.0,0.0,0.0,0.0,0.0,0.0,0.0,0.0,0.0,0.0,0.0,0.0,0.0,0.0,0.0,0.0,0.0,0.0,0.0,0.0,0.0,0.0,0.0,0.0,0.0,0.0,0.0,0.0,0.0,0.0,0.0,0.0,0.0,0.0,0.0,0.0,0.0,0.0,0.0,0.0,0.0,0.0,0.0,0.0,0.0,0.0,0.0,0.0,0.0,0.0,0.0,0.0,0.0,0.0,0.0,0.0,0.0,0.0,0.0,0.0,0.0,0.0,0.0,0.0,0.0,0.0,0.0,0.0,0.0,0.0,0.0,0.0,0.0,0.0,0.0,0.0,0.0,0.0,0.0,0.0,0.0,0.0,0.0,0.0,0.0,0.0,0.0,0.0,1.0758,1.1509,1.1837,1.1692,1.1468,1.1188,0.9796,0.8695,0.8079,0.6867,0.0,0.0,0.0,0.0,0.0,0.0,0.0,0.0,0.0,0.0,0.0,0.0,0.0,0.0,0.0,0.0,0.0,0.0,0.0,0.0,0.0,0.0,0.0,0.0,0.0,0.0,0.0,0.0,0.0,0.0,0.0,0.0,0.0,0.0,0.0,0.0,0.0,0.0,0.0,0.0,0.0,0.0,0.0,0.0,0.0,0.0,0.0,0.0,0.0,0.0,0.0,0.0,0.0,0.0,0.0,0.0,0.0,0.0,0.0,0.0,0.0,0.0,0.0,0.0,0.0,0.0,0.0,0.0,0.0,0.0,0.0,0.0,0.0,0.0,0.0,0.0,0.0,0.0,0.0,0.0,0.0,0.0,0.0,0.0,0.0,0.0,0.0,0.0,0.0,0.0,0.0,0.0,0.0,0.0,0.0,0.0,0.0,0.0,0.0,0.0,0.0,0.0,1.0863,1.1575,0.0,1.174,1.1373,1.1082,0.9981,0.9017,0.8327,0.0,0.0,0.0,0.0,0.0,0.0,0.0,0.0,0.0,0.0,0.0,0.0,0.0,0.0,0.0,0.0,0.0,0.0,0.0,0.0,0.0,0.0,0.0,0.0,0.0,0.0,0.0,0.0,0.0,0.0,0.0,0.0,0.0,0.0,0.0,0.0,0.0,0.0,0.0,0.0,0.0,0.0,0.0,0.0,0.0,0.0,0.0,0.0,0.0,0.0,0.0,0.0,0.0,0.0,0.0,0.0,0.0,0.0,0.0,0.0,0.0,0.0,0.0,0.0,0.0,0.0,0.0,0.0,0.0,0.0,0.0,0.0,0.0,0.0,0.0,0.0,0.0,0.0,0.0,0.0,0.0,0.0,0.0,0.0,0.0,0.0,0.0,0.0,0.0,0.0,0.0,0.0,0.0,0.0,0.0,0.0,0.0,0.0,0.0,0.0,0.0,0.0,1.0168,1.091,1.1542,0.0,1.1663,1.1269,1.0889,1.0019,0.9215,0.8571,0.0,0.0,0.0,0.0,0.0,0.0,0.0,0.0,0.0,0.0,0.0,0.0,0.0,0.0,0.0,0.0,0.0,0.0,0.0,0.0,0.0,0.0,0.0,0.0,0.0,0.0,0.0,0.0,0.0,0.0,0.0,0.0,0.0,0.0,0.0,0.0,0.0,0.0,0.0,0.0,0.0,0.0,0.0,0.0,0.0,0.0,0.0,0.0,0.0,0.0,0.0,0.0,0.0,0.0,0.0,0.0,0.0,0.0,0.0,0.0,0.0,0.0,0.0,0.0,0.0,0.0,0.0,0.0,0.0,0.0,0.0,0.0,0.0,0.0,0.0,0.0,0.0,0.0,0.0,0.0,0.0,0.0,0.0,0.0,0.0,0.0,0.0,0.0,0.0,0.0,0.0,0.0,0.0,0.0,0.0,0.0,0.0,0.0,0.0,0.0,0.0,0.0,1.008,1.0849,1.1389,1.1389,1.1389,1.1182,1.0633,0.9937,0.9301,0.0,0.0,0.0,0.0,0.0,0.0,0.0,0.0,0.0,0.0,0.0,0.0,0.0,0.0,0.0,0.0,0.0,0.0,0.0,0.0,0.0,0.0,0.0,0.0,0.0,0.0,0.0,0.0,0.0,0.0,0.0,0.0,0.0,0.0,0.0,0.0,0.0,0.0,0.0,0.0,0.0,0.0,0.0,0.0,0.0,0.0,0.0,0.0,0.0,0.0,0.0,0.0,0.0,0.0,0.0,0.0,0.0,0.0,0.0,0.0,0.0,0.0,0.0,0.0,0.0,0.0,0.0,0.0,0.0,0.0,0.0,0.0,0.0,0.0,0.0,0.0,0.0,0.0,0.0,0.0,0.0,0.0,0.0,0.0,0.0,0.0,0.0,0.0,0.0,0.0,0.0,0.0,0.0,0.0,0.0,0.0,0.0,0.0,0.0,0.0,0.0,0.0,0.0,1.008,1.0701,1.1196,1.1369,1.1243,1.0882,1.0294,0.9877,0.9352,0.8703,0.0,0.0,0.0,0.0,0.0,0.0,0.0,0.0,0.0,0.0,0.0,0.0,0.0,0.0,0.0,0.0,0.0,0.0,0.0,0.0,0.0,0.0,0.0,0.0,0.0,0.0,0.0,0.0,0.0,0.0,0.0,0.0,0.0,0.0,0.0,0.0,0.0,0.0,0.0,0.0,0.0,0.0,0.0,0.0,0.0,0.0,0.0,0.0,0.0,0.0,0.0,0.0,0.0,0.0,0.0,0.0,0.0,0.0,0.0,0.0,0.0,0.0,0.0,0.0,0.0,0.0,0.0,0.0,0.0,0.0,0.0,0.0,0.0,0.0,0.0,0.0,0.0,0.0,0.0,0.0,0.0,0.0,0.0,0.0,0.0,0.0,0.0,0.0,0.0,0.0,0.0,0.0,0.0,0.0,0.0,0.0,0.0,0.0,0.0,0.0,0.0,0.0,0.992,1.0561,1.1015,1.1076,1.1029,1.0708,1.0007,0.9786,0.9397,0.8725,0.0,0.0,0.0,0.0,0.0,0.0,0.0,0.0,0.0,0.0,0.0,0.0,0.0,0.0,0.0,0.0,0.0,0.0,0.0,0.0,0.0,0.0,0.0,0.0,0.0,0.0,0.0,0.0,0.0,0.0,0.0,0.0,0.0,0.0,0.0,0.0,0.0,0.0,0.0,0.0,0.0,0.0,0.0,0.0,0.0,0.0,0.0,0.0,0.0,0.0,0.0,0.0,0.0,0.0,0.0,0.0,0.0,0.0,0.0,0.0,0.0,0.0,0.0,0.0,0.0,0.0,0.0,0.0,0.0,0.0,0.0,0.0,0.0,0.0,0.0,0.0,0.0,0.0,0.0,0.0,0.0,0.0,0.0,0.0,0.0,0.0,0.0,0.0,0.0,0.0,0.0,0.0,0.0,0.0,0.0,0.0,0.0,0.0,0.0,0.0,0.0,0.0,0.9789,1.0488,1.0928,1.066,1.0835,1.0635,0.976,0.9715,0.9432,0.8844,0.0,0.0,0.0,0.0,0.0,0.0,0.0,0.0,0.0,0.0,0.0,0.0,0.0,0.0,0.0,0.0,0.0,0.0,0.0,0.0,0.0,0.0,0.0,0.0,0.0,0.0,0.0,0.0,0.0,0.0,0.0,0.0,0.0,0.0,0.0,0.0,0.0,0.0,0.0,0.0,0.0,0.0,0.0,0.0,0.0,0.0,0.0,0.0,0.0,0.0,0.0,0.0,0.0,0.0,0.0,0.0,0.0,0.0,0.0,0.0,1.2092,0.0,0.0,0.0,0.0,0.0,0.0,0.0,0.0,0.0,0.0,0.0,0.0,0.0,0.0,0.0,0.0,0.0,0.0,0.0,0.0,0.0,0.0,0.0,0.0,0.0,0.0,0.0,0.0,0.0,0.0,0.0,0.0,0.0,0.0,0.0,0.0,0.0,0.0,0.0,0.0,0.0,1.0345,1.0735,1.0969,1.0909,1.0955,1.0635,0.976,0.9715,0.9432,0.8844,0.8804,0.0,0.0,0.0,0.0,0.0,0.0,0.0,0.0,0.0,0.0,0.0,0.0,0.0,0.0,0.0,0.0,0.0,0.0,0.0,0.0,0.0,0.0,0.0,0.0,0.0,0.0,0.0,0.0,0.0,0.0,0.0,0.0,0.0,0.0,0.0,0.0,0.0,0.0,0.0,0.0,0.0,0.0,0.0,0.0,0.0,0.0,0.0,0.0,0.0,0.0,0.0,0.0,0.0,0.0,0.0,0.0,0.0,0.0,0.0,0.0,1.2471,0.0,0.0,0.0,0.0,0.0,0.0,0.0,0.0,0.0,0.0,0.0,0.0,0.0,0.0,0.0,0.0,0.0,0.0,0.0,0.0,0.0,0.0,0.0,0.0,0.0,0.0,0.0,0.0,0.0,0.0,0.0,0.0,0.0,0.0,0.0,0.0,0.0,0.0,0.0,0.0,1.0533,1.0847,1.0995,1.0995,1.0995,1.0695,0.9953,0.9766,0.9521,0.9119,0.8964,0.0,0.0,0.0,0.0,0.0,0.0,0.0,0.0,0.0,0.0,0.0,0.0,0.0,0.0,0.0,0.0,0.0,0.0,0.0,0.0,0.0,0.0,0.0,0.0,0.0,0.0,0.0,0.0,0.0,0.0,0.0,0.0,0.0,0.0,0.0,0.0,0.0,0.0,0.0,0.0,0.0,0.0,0.0,0.0,0.0,0.0,0.0,0.0,0.0,0.0,0.0,0.0,0.0,1.4355,1.4242,1.4242,1.4242,1.4242,1.4208,1.3728,1.3346,1.2981,1.2739,0.0,0.0,0.0,0.0,0.0,0.0,0.0,0.0,0.0,0.0,0.0,0.0,0.0,0.0,0.0,0.0,0.0,0.0,0.0,0.0,0.0,0.0,0.0,0.0,1.1792,1.1658,1.1124,0.0,0.0,0.0,0.0,0.0,0.0,0.0,0.0,0.0,0.0,0.0,1.0892,1.1198,1.1322,1.1274,1.1268,1.1002,1.0319,1.0023,0.9781,0.9556,0.9279,0.9237,0.0,0.0,0.0,0.0,0.0,0.0,0.0,0.0,0.0,0.0,0.0,0.0,0.0,0.0,0.0,0.0,0.0,0.0,0.0,0.0,0.0,0.0,0.0,0.0,0.0,0.0,0.0,0.0,0.0,0.0,0.0,0.0,1.4088,1.4088,0.0,0.0,0.0,0.0,0.0,0.0,0.0,0.0,0.0,0.0,0.0,0.0,0.0,1.4908,1.4948,1.4914,1.4914,1.4948,1.4908,1.4894,1.4894,1.4894,1.4894,1.4888,1.4814,0.0,1.3479,1.3234,0.0,0.0,0.0,0.0,0.0,0.0,0.0,0.0,0.0,0.0,0.0,0.0,0.0,0.0,0.0,0.0,0.0,0.0,0.0,0.0,0.0,0.0,1.2234,1.2409,1.2595,1.2687,0.0,1.1883,1.1185,1.1066,1.1028,0.0,0.0,0.0,0.0,0.0,0.0,0.0,1.2155,1.2542,1.2637,1.2321,1.2284,1.1949,1.103,1.0661,1.0371,1.0106,0.985,0.971,0.9736,1.0177,0.0,0.0,0.0,0.0,0.0,0.0,0.0,0.0,0.0,0.0,0.0,0.0,0.0,0.0,0.0,0.0,0.0,0.0,0.0,0.0,0.0,0.0,0.0,0.0,0.0,0.0,0.0,0.0,0.0,1.4088,1.4088,1.4088,1.4088,1.4088,0.0,0.0,0.0,0.0,0.0,0.0,0.0,0.0,0.0,1.5003,1.5137,1.541,1.5745,1.5745,1.5832,1.5945,1.5945,1.5858,1.5745,1.5745,1.5611,1.5438,1.5277,1.4983,1.4583,1.3961,1.3527,1.3233,0.0,0.0,0.0,0.0,1.2812,1.2812,1.2812,1.2775,0.0,1.2695,0.0,0.0,0.0,0.0,0.0,0.0,0.0,0.0,0.0,0.0,1.3292,1.3592,1.3751,1.3817,1.3817,1.3436,1.2876,0.0,1.1772,1.1571,1.1393,0.0,0.0,0.0,0.0,1.2343,1.3044,1.3254,1.3292,1.3141,1.292,1.2552,1.2001,1.1443,1.1065,1.0892,1.0628,1.0541,1.0633,1.0938,1.1247,0.0,0.0,0.0,0.0,0.0,0.0,0.0,0.0,0.0,0.0,0.0,0.0,0.0,0.0,0.0,0.0,0.0,0.0,0.0,0.0,0.0,0.0,0.0,0.0,0.0,0.0,0.0,0.0,1.4202,1.4222,1.4302,1.4309,1.4309,0.0,0.0,0.0,0.0,0.0,0.0,1.5109,1.5263,1.5398,1.5618,1.5691,1.5945,1.638,1.6386,1.6493,1.6707,1.6707,1.6593,1.638,1.6355,1.6152,1.5925,1.5638,1.5464,1.5337,1.4609,1.4135,1.3793,1.3547,1.3387,1.3273,1.324,1.3213,1.3213,1.3213,1.317,1.316,1.3198,1.3221,1.3222,1.3258,0.0,0.0,0.0,0.0,1.3673,1.4024,1.431,1.4547,1.4959,1.501,1.4976,1.5078,1.4999,1.4544,0.0,1.268,1.2422,1.2422,0.0,0.0,0.0,0.0,1.3505,1.4098,1.4242,1.4266,1.4178,1.3817,1.3458,1.314,1.2477,1.1977,1.1776,1.1535,1.1409,1.1436,1.1774,1.2152,1.2546,0.0,0.0,0.0,0.0,0.0,0.0,0.0,0.0,0.0,0.0,0.0,0.0,0.0,0.0,0.0,0.0,0.0,0.0,0.0,0.0,0.0,0.0,0.0,0.0,0.0,0.0,0.0,0.0,0.0,1.4934,1.4961,0.0,0.0,0.0,0.0,1.4988,1.5197,1.5357,1.5378,1.5905,1.6261,1.6226,1.6493,1.6653,1.6687,1.6687,1.6693,1.6707,1.6707,1.67,1.6673,1.64,1.6315,1.6281,1.5939,1.5651,1.5371,1.5095,1.4743,1.4449,1.4155,1.3868,1.3547,1.3273,1.3213,1.3213,1.3213,1.3305,1.3514,1.3764,1.4086,1.4366,1.4537,1.441,0.0,0.0,1.4715,1.5004,1.5389,1.576,1.6089,1.6506,1.6405,1.6323,1.6685,1.6392,1.5657,0.0,1.3793,1.3514,1.3514,0.0,1.3649,1.4076,1.4717,1.529,1.5647,1.5955,1.6034,1.5724,1.5345,1.4924,1.4541,1.3838,1.3228,1.2774,1.2547,1.2257,1.1895,1.2732,1.3214,1.3241,1.4019,0.0,0.0,0.0,0.0,0.0,0.0,0.0,0.0,0.0,0.0,0.0,0.0,0.0,0.0,0.0,0.0,0.0,0.0,0.0,0.0,0.0,0.0,0.0,0.0,0.0,0.0,0.0,0.0,1.5211,1.5404,0.0,1.5518,1.5518,1.5598,1.5839,1.5953,1.6039,1.6233,1.644,1.664,1.6884,1.6985,1.7081,1.7268,1.7268,1.7378,1.754,1.754,1.7534,1.7546,1.7436,1.7081,1.6572,1.6415,1.6198,1.5913,1.5984,1.5641,1.5042,1.529,1.5309,1.524,1.5312,1.5312,1.5312,1.5312,1.5303,1.5347,1.5562,1.573,1.5937,1.6259,1.6399,1.6453,1.649,1.6696,1.6902,1.7022,1.7248,1.7512,1.7783,1.7787,1.7715,1.7667,1.7523,1.7172,1.6474,1.5608,1.5008,1.5008,1.5008,1.5144,1.5483,1.5794,1.6073,1.6446,1.66,1.6627,1.6535,1.6154,1.5745,1.5346,1.482,1.415,1.3287,1.3176,1.293,1.2435,1.3161,1.3603,1.3675,1.442,1.4872,0.0,0.0,0.0,0.0,0.0,0.0,0.0,0.0,0.0,0.0,0.0,0.0,0.0,0.0,0.0,0.0,0.0,0.0,0.0,0.0,0.0,0.0,0.0,0.0,0.0,0.0,1.5438,1.5932,1.6159,1.6313,1.6413,1.642,1.65,1.67,1.6814,1.6954,1.7148,1.7255,1.7402,1.7648,1.7655,1.7642,1.7736,1.7736,1.7795,1.8016,1.8069,1.8161,1.8269,1.8272,1.7952,1.7408,1.7204,1.6994,1.679,1.7008,1.68,1.6352,1.6475,1.6573,1.6603,1.6713,1.6727,1.6764,1.6815,1.6891,1.6951,1.7115,1.7355,1.7596,1.7814,1.8008,1.8161,1.8161,1.8267,1.8381,1.8381,1.8466,1.8627,1.8835,1.877,1.8657,1.8632,1.8497,1.8314,1.7929,1.6939,1.6179,1.6179,1.6179,1.6263,1.6547,1.6697,1.6883,1.7217,1.7289,1.7289,1.7289,1.6904,1.6492,1.6079,1.5667,1.4937,1.3779,1.3693,1.343,1.2788,1.3448,1.389,1.397,1.4735,1.5205,1.5362,0.0,0.0,0.0,0.0,0.0,0.0,0.0,0.0,0.0,0.0,0.0,0.0,0.0,0.0,0.0,0.0,0.0,0.0,0.0,0.0,0.0,0.0,0.0,1.5384,1.5685,1.6199,1.7125,1.7239,1.7353,1.7582,1.7609,1.7609,1.7609,1.7889,1.8009,1.8009,1.8337,1.849,1.849,1.849,1.835,1.8063,1.805,1.8063,1.8083,1.8325,1.8572,1.8871,1.8884,1.884,1.8788,1.8213,1.7927,1.793,1.8083,1.8265,1.8395,1.7659,1.75,1.7643,1.743,1.7342,1.7342,1.7525,1.7917,1.8286,1.8372,1.8839,1.9338,1.9155,1.9219,1.9359,1.9359,1.935,1.9341,1.9341,1.9341,1.9381,1.9597,1.9329,1.9136,1.9506,1.9312,1.8935,1.8669,1.7735,1.6978,1.6949,1.694,1.6973,1.711,1.7456,0.0,1.7974,1.8008,1.8008,1.8008,1.7646,1.7227,1.6736,1.6338,1.5557,1.4211,1.4114,1.3743,1.2983,1.3701,1.4124,1.4143,1.499,1.5507,1.573,0.0,0.0,0.0,0.0,0.0,0.0,0.0,0.0,0.0,0.0,0.0,0.0,0.0,0.0,0.0,0.0,0.0,0.0,0.0,0.0,0.0,0.0,1.5986,1.6019,1.6466,1.7085,1.7695,1.7983,1.8156,1.8237,1.8237,1.8237,1.8237,1.8317,1.837,1.837,1.8444,1.8601,1.8754,1.8809,1.8878,1.9009,1.8787,1.8849,1.9244,1.9322,1.9672,2.0344,2.0507,2.0236,1.961,1.9416,1.9042,1.8567,1.8805,1.9317,1.9931,1.9414,1.9344,1.957,1.9858,1.9949,1.9949,2.0002,2.0043,2.0113,2.0257,2.0501,2.0703,2.0787,2.0754,2.0686,2.0686,2.0456,2.0245,2.0245,2.0245,2.0255,2.0294,2.0246,2.0101,1.9867,1.9712,1.9545,1.9189,1.8844,1.8434,1.7813,1.7707,1.7707,1.7765,1.7862,0.0,1.7974,1.8008,1.8008,1.8008,1.791,1.7539,1.6765,1.659,1.5996,1.4687,1.428,1.4007,1.3773,1.3977,1.4461,1.5239,1.5486,1.5865,0.0,0.0,0.0,0.0,0.0,0.0,0.0,0.0,0.0,0.0,0.0,0.0,0.0,0.0,0.0,0.0,0.0,0.0,0.0,0.0,0.0,0.0,1.6242,1.6814,1.7315,1.7462,1.7742,1.833,1.8557,1.8724,1.8844,1.8964,1.9021,1.9021,1.9296,1.9401,1.9401,1.957,1.9682,1.9843,1.9843,1.9947,2.0144,1.978,1.9825,2.0272,2.0343,2.0644,2.1275,2.1725,2.1562,2.0899,2.0895,2.0487,1.9929,2.0061,2.0492,0.0,0.0,0.0,0.0,0.0,2.1275,2.1275,2.1275,2.1309,2.1355,2.1293,2.1433,2.1587,2.1521,2.1516,2.1434,2.1249,2.1045,2.0801,2.0654,2.0605,2.0605,2.0605,2.0605,2.0537,2.0244,2.0185,2.0059,1.9629,1.9551,0.0,1.8662,1.8545,1.8545,1.8545,1.8545,1.8545,1.8545,1.8545,1.8477,1.8256,1.8237,1.793,1.7048,1.6804,0.0,0.0,0.0,1.4377,1.4377,1.4377,0.0,0.0,0.0,1.6187,1.7008,0.0,0.0,0.0,1.7656,1.7809,0.0,0.0,0.0,0.0,0.0,0.0,0.0,0.0,0.0,0.0,0.0,0.0,0.0,0.0,0.0,0.0,1.7282,1.7941,1.9043,1.8744,1.865,1.9068,1.9186,1.9344,1.9614,1.9891,2.0037,2.0095,2.0507,2.0831,2.0888,0.0,0.0,0.0,0.0,2.1432,2.1524,2.105,2.1048,2.1383,2.1436,2.165,2.1979,2.2728,2.2868,2.2491,2.2384,2.204,2.1648,2.1518,2.1624,2.1793,2.1356,2.1454,2.1865,2.1865,2.1865,2.1865,2.1865,0.0,0.0,2.178,2.1978,2.2221,2.1807,2.1806,2.1865,2.1385,2.1229,2.1093,2.0684,2.0605,2.0605,2.0605,2.0605,2.0605,2.0605,2.0605,2.0488,2.0059,1.999,1.9873,1.9492,1.9355,1.9287,1.9287,1.9287,1.9287,1.9287,1.9287,1.9121,1.8646,0.0,0.0,1.7461,1.6982,1.6377,1.5537,1.5145,1.4946,1.4897,1.4946,1.5237,1.5807,1.6021,1.6641,1.7733,1.8068,1.8939,2.0194,1.9413,1.947,0.0,0.0,0.0,0.0,0.0,0.0,0.0,0.0,0.0,0.0,0.0,0.0,0.0,0.0,0.0,1.7996,1.9049,2.0016,2.0743,2.1148,2.1142,2.0438,2.0809,2.1187,2.1251,2.1312,2.1453,2.1744,2.155,2.1566,2.1794,2.1907,2.2135,2.2644,2.2636,2.2886,2.3382,2.2695,2.2605,2.3106,0.0,0.0,2.3628,2.4035,2.4012,2.3646,2.324,2.2834,2.2437,2.2076,2.222,2.2574,2.2485,2.2608,2.2828,2.2828,2.2828,2.2828,2.2828,2.2882,2.2906,2.2819,2.2843,2.2921,2.2823,2.2613,0.0,2.1875,2.1504,2.1093,2.0684,2.0605,2.0605,2.0605,2.0605,2.0605,2.0605,2.0605,2.0576,2.0488,2.0478,2.0449,2.037,1.9783,1.9287,1.9287,1.9287,1.9287,1.9287,1.9287,1.9121,1.8646,1.8598,1.8256,1.7461,1.7101,1.6722,1.6157,1.5946,1.5761,1.5523,1.5843,1.6175,1.6591,1.7129,1.7846,1.8652,1.942,2.0392,2.1511,2.0444,2.015,0.0,0.0,0.0,0.0,0.0,0.0,0.0,0.0,0.0,0.0,0.0,1.7287,1.7792,0.0,1.9158,2.0129,2.0853,2.1566,2.2332,2.2893,2.2744,2.1569,2.1908,2.2207,2.2207,2.2475,2.2721,2.2829,2.3119,2.3335,2.344,2.3768,2.4047,2.4326,2.4334,2.4548,2.4982,2.4239,2.4079,2.4429,2.3955,2.3926,2.4332,2.4735,2.4704,2.4336,2.4002,2.362,2.3209,2.279,2.275,2.2969,2.2969,2.3013,2.3091,2.3091,2.3091,2.3091,2.3091,2.3091,2.3091,2.3091,2.3091,2.3091,2.3091,2.2945,2.2744,2.2314,2.2041,2.1678,2.1074,2.0898,2.084,2.0664,2.0605,2.0605,2.0605,2.0605,2.0605,2.0605,2.0605,2.0605,2.0605,2.0253,1.9959,1.9959,1.9959,1.9959,1.9959,1.9959,1.9793,1.9426,1.92,1.8932,1.8484,1.8088,1.7533,1.6838,1.6808,1.6639,1.6273,1.6665,1.7061,1.7377,1.8046,1.8899,1.9942,2.0447,2.1307,2.2397,2.1816,2.1665,0.0,0.0,0.0,0.0,0.0,0.0,0.0,0.0,1.6547,1.6975,1.8023,1.9146,1.9935,2.0632,2.1452,2.2465,2.2854,2.3347,2.4233,2.4655,2.4427,2.3374,2.3291,2.3419,2.3478,2.383,2.4103,2.4096,2.4693,2.5056,2.5026,2.5569,2.5898,2.5953,2.5953,2.6054,2.6364,2.5527,2.5292,2.5543,2.493,2.4686,2.4735,2.5186,2.5208,2.4861,2.4555,2.4131,2.3633,2.3247,2.3091,2.3091,2.3091,2.3091,2.3091,2.3091,2.3091,2.3091,2.3091,2.3091,2.3091,2.3091,2.3091,2.3091,2.3091,2.3091,2.3013,2.2627,2.251,2.2334,2.1522,2.1259,2.1103,2.0781,2.0664,2.0605,2.0605,2.0605,2.0605,2.0644,2.0654,2.0683,2.076,2.076,2.076,2.0683,2.0654,2.0683,2.076,2.076,2.067,2.0412,2.0066,1.9707,1.9517,1.909,1.852,1.7798,1.7881,1.7796,1.7455,1.7821,1.8163,1.8465,1.9104,2.0035,2.1176,2.1416,2.2025,2.2939,2.2939,2.2987,1.5746,1.53,1.4982,1.5185,1.5479,1.5698,0.0,0.0,1.789,1.8503,1.9356,2.0321,2.1501,2.2311,2.3201,2.4404,2.5403,2.6252,2.6988,2.7114,2.7073,2.691,2.6186,2.583,2.6142,2.5831,2.5767,2.603,2.5804,2.5723,2.5962,2.6282,2.66,2.6826,2.6826,2.6989,2.726,2.6441,2.6172,2.6429,2.5588,2.5333,2.5586,2.5635,2.5616,2.5518,2.4738,2.3955,2.3169,2.311,2.3091,2.3091,2.3091,2.3091,2.3091,2.3091,2.3091,2.3091,2.3091,2.3091,2.3091,2.3091,2.3091,2.3091,2.3091,2.3091,2.3013,2.2627,2.251,2.2402,2.1934,2.1523,2.1181,2.1132,2.0859,2.0605,2.0605,2.0605,2.0644,2.0819,2.0867,2.0984,2.1359,2.1387,2.1282,2.0906,2.0867,2.0984,2.1349,2.1387,2.1329,2.1112,2.0783,2.0249,1.9489,1.9378,1.9351,1.9433,1.9458,1.9552,1.9808,1.9866,1.9977,2.0138,2.0777,2.1355,2.18,2.2424,2.2847,2.3078,2.3078,2.3078,1.6151,1.6109,0.0,0.0,1.6843,1.7386,1.7573,1.8758,1.9984,2.0574,2.1644,2.2738,2.3648,2.4503,2.5461,0.0,2.7168,2.7781,2.8278,2.8133,2.802,2.8247,2.7696,2.7182,2.6815,2.6793,2.6702,2.6587,2.6715,2.6811,2.6845,2.7314,2.7638,2.7745,2.7745,2.7809,2.7916,2.7078,2.6695,2.6798,2.5945,2.5586,2.5693,2.5693,2.5411,2.4904,2.458,2.3926,2.3091,2.3091,2.3091,2.3091,2.3091,2.3091,2.3091,2.3091,2.3091,2.3091,2.3091,2.3091,2.3091,2.3091,2.3091,2.3091,2.3091,2.3091,2.3062,2.2886,2.2838,2.2783,2.2353,2.1934,2.1553,2.1249,2.0889,2.0605,2.0605,2.0605,2.0654,2.0867,2.0984,2.1205,2.1617,2.1769,2.1921,2.2101,2.1807,2.1655,2.1845,2.1959,2.197,2.1863,2.1832,2.1552,2.09,2.0837,2.0769,2.0528,2.0624,2.0611,2.043,2.0746,2.099,2.1136,2.171,2.217,2.2489,2.2767,2.2969,2.3108,2.3108,2.3108,1.6539,0.0,0.0,1.7227,1.8053,1.8935,1.9243,2.0456,2.1698,2.2368,2.3467,2.4536,2.5362,2.6181,0.0,2.8023,2.8507,2.8928,2.9294,2.8963,2.8739,2.8849,2.852,2.8009,2.7262,2.7405,2.7392,2.7085,2.7447,2.7644,2.7549,2.8023,2.8291,2.8291,2.8291,2.8291,2.8291,2.7441,2.7012,2.7002,2.6093,2.5693,2.5693,2.5693,2.5322,2.459,2.4473,2.4004,2.3266,2.314,2.3091,2.3091,2.3091,2.3091,2.3091,2.3091,2.3091,2.3091,2.3091,2.3091,2.3091,2.3091,2.3091,2.3091,2.3091,2.3091,2.3091,2.3091,2.3091,2.3066,2.2807,2.2369,2.193,2.1687,2.1253,2.0876,2.0915,2.0915,2.0992,2.1282,2.1474,2.1769,2.2289,2.2553,2.2868,2.3398,2.3128,2.283,2.2692,2.2868,2.2978,2.2863,2.2845,2.2667,2.2288,2.2123,2.192,2.1626,2.1722,2.1642,2.1311,2.1665,2.1944,2.2063,2.2426,2.2714,2.2969,2.2969,2.3017,2.3108,2.3108,2.3108,0.0,0.0,1.7232,1.7829,1.8857,1.9863,2.0174,2.1352,2.2621,2.3624,2.4172,2.4898,2.6272,2.6808,2.7424,2.882,2.9431,2.9824,3.0101,2.9939,2.9613,2.9133,2.8804,2.8417,0.0,2.7965,2.7955,2.7982,2.794,2.7862,2.7906,2.813,2.8291,2.8291,2.8291,2.8291,2.8291,2.7441,2.7012,2.7002,2.6093,2.5693,2.5693,2.5693,2.5488,2.5077,2.46,2.417,2.374,2.331,2.3091,2.3091,2.3091,2.3091,2.3091,2.3091,2.3091,2.3091,2.3091,2.3091,2.3091,2.3091,2.3091,2.3091,2.3091,2.3091,2.3091,2.3091,2.3091,2.3178,2.3396,2.2839,2.2277,2.2666,2.2105,2.154,2.1731,2.1769,2.1873,2.2289,2.2515,2.2927,2.3703,2.3984,2.4251,2.46,2.4791,2.4719,2.4179,2.4432,2.4519,2.428,2.3712,2.3311,2.3163,2.2693,2.2531,2.2823,2.2854,2.2902,2.3027,2.304,2.3053,2.3053,2.3065,2.3065,2.3078,2.3078,2.3108,2.3108,2.3108,2.3108,0.0,0.0,1.8438,1.9009,2.023,2.148,2.1969,2.3214,2.4313,2.4635,2.5423,2.6073,2.6274,2.6931,2.7685,2.847,2.8917,2.9342,2.9746,2.9485,2.914,2.8995,2.8623,0.0,0.0,0.0,0.0,2.7604,2.7768,2.7906,2.7906,2.8121,2.8291,2.8291,2.8291,2.8291,2.8291,2.7725,2.7305,2.7002,2.6093,2.5693,2.5693,2.5693,2.5488,2.5106,2.4912,2.4443,2.3779,2.3633,2.3398,2.3091,2.3091,2.3091,2.3091,2.3091,2.3091,2.3091,2.3091,2.3091,2.3091,2.3091,2.3091,2.3091,2.3091,2.3091,2.3144,2.3319,2.3373,2.346,2.3851,2.3397,2.289,2.3174,2.2666,2.2101,2.2176,2.2214,2.2327,2.2703,2.2964,2.3324,2.4107,2.4396,2.4719,2.5241,2.5123,2.4981,2.4945,2.5123,2.524,2.5188,2.4536,2.4092,2.4082,2.3325,2.2927,2.3017,2.3017,2.3047,2.3108,2.3108,2.3108,2.3108,2.3108,2.3108,2.3108,2.3108,2.3108,2.3108,2.3108,2.3108,0.0,1.8712,1.943,2.0057,2.1313,2.2569,2.3179,2.4285,2.5171,2.5137,2.5782,2.6276,2.6002,2.6519,2.7168,2.7744,2.832,2.8789,2.9072,2.9004,2.8867,2.8711,2.8457,0.0,0.0,0.0,0.0,2.772,2.7906,2.8014,2.8014,2.8184,2.8291,2.8291,2.8291,2.8291,2.8291,2.7881,2.7373,2.6787,2.6025,2.5693,2.5693,2.5693,2.5586,2.5293,2.5184,2.4715,2.4004,2.3857,2.3535,2.3091,2.3091,2.3091,2.3091,2.3091,2.3091,2.3091,2.3091,2.3091,2.3091,2.3091,2.3144,2.3232,2.3232,2.3363,2.3537,2.3721,2.3884,2.41,2.4529,2.4252,2.3917,2.4187,2.3743,2.3273,2.3235,2.3228,2.3313,2.3644,2.3875,2.419,2.4826,2.5146,2.5476,2.5851,2.5699,2.5558,2.5606,2.5793,2.5921,2.5921,2.5128,2.4613,2.4613,2.3685,2.3108,2.3108,2.3108,2.3108,2.3108,2.3108,2.3108,2.3108,2.3108,2.3108,2.3108,2.3108,2.3108,2.3108,2.3108,2.3108,1.891,1.9477,2.0168,2.11,2.2209,2.3231,2.384,2.465,2.5246,2.5111,2.5295,2.55,0.0,0.0,2.5927,2.6816,2.7666,2.8232,2.8262,2.8623,2.874,0.0,0.0,0.0,0.0,0.0,0.0,2.8291,0.0,2.8291,2.8291,2.8291,2.8291,2.8291,2.8291,2.8291,2.8291,2.7851,2.7226,2.6416,2.5908,2.5693,2.5693,2.5693,2.5693,2.5664,2.5264,2.4814,2.4385,2.3965,2.3535,2.3091,2.3091,2.3091,2.3091,2.3091,2.3091,2.3091,2.3091,2.3091,2.3091,2.3135,2.3319,2.3503,2.3547,2.3851,2.4249,2.4292,2.4615,2.5031,2.5485,2.5409,2.5374,2.5629,2.534,2.4957,2.4835,2.4802,2.4826,2.5016,2.5218,2.5465,2.5828,2.6258,2.6499,2.6499,2.6499,2.643,2.6236,2.6361,2.6499,2.6499,2.5498,2.4813,2.4788,2.3785,2.3133,2.3108,2.3108,2.3108,2.3108,2.3108,2.312,2.3145,2.3145,2.3145,2.3145,2.3145,2.3133,2.3108,2.3108,2.3108,2.0153,2.0567,2.1208,2.2575,2.3618,2.4386,2.4654,2.5397,2.5759,2.4863,2.5045,2.5148,0.0,0.0,0.0,2.5977,2.6777,0.0,2.7773,2.8193,0.0,0.0,0.0,2.8291,2.8291,2.8291,0.0,0.0,2.8291,2.8291,2.8291,2.8291,2.8291,2.8291,2.8291,2.8291,2.8291,2.7549,2.707,2.6846,2.6094,2.5693,2.5693,2.5693,2.5693,2.5664,2.5264,2.4814,2.4385,2.3965,2.3535,2.3091,2.3091,2.3091,2.3091,2.3091,2.3091,2.3091,2.3091,2.3091,2.3135,2.3319,2.3537,2.3797,2.4122,2.4476,2.4818,2.5316,2.5558,2.5821,2.6558,2.6541,2.6409,2.6855,2.6712,2.6447,2.6427,2.6068,2.578,2.6009,2.5992,2.598,2.6097,2.6327,2.6499,2.6499,2.6499,2.6499,2.643,2.6465,2.6499,2.6499,2.5858,2.5247,2.4825,2.418,2.359,2.3133,2.3108,2.3108,2.3108,2.3108,2.3308,2.3766,2.3778,2.3778,2.3778,2.3778,2.3521,2.3108,2.3108,2.3168,2.141,2.2017,2.2749,2.3967,2.4899,2.5445,2.538,2.5759,2.5754,2.4694,2.4648,0.0,0.0,0.0,0.0,0.0,0.0,0.0,2.7607,2.8027,2.8291,0.0,2.8291,0.0,2.8291,2.8291,2.8291,0.0,2.8291,2.8291,2.8291,2.8291,2.8291,2.8291,2.8291,2.8291,2.8291,2.7441,2.7012,2.7002,2.6093,2.5693,2.5693,2.5693,2.5586,2.543,0.0,2.4717,2.4121,2.3887,2.3535,2.3091,2.3232,2.3276,2.3319,2.3493,2.358,2.358,2.3701,2.3691,2.3691,2.3667,2.3927,2.4348,2.4807,2.5348,2.5852,2.6351,2.6682,2.7062,2.7644,2.769,2.7671,2.7895,2.7808,2.7641,2.752,2.7226,2.6931,2.6818,2.6712,2.6689,2.6689,2.6959,2.718,2.718,2.7014,2.6851,2.6851,2.665,2.6499,2.6499,2.5971,2.5385,2.4838,2.4318,2.3753,2.3145,2.3108,2.3108,2.3108,2.3108,2.3384,2.3991,2.4004,2.4023,2.4085,2.4085,2.3856,2.345,2.345,2.3539,2.284,2.3715,2.4587,2.5383,2.603,2.6342,2.5977,2.5785,2.546,2.4571,0.0,0.0,2.3464,0.0,2.4541,2.4922,0.0,2.7148,2.7529,2.7988,2.8291,2.8291,2.8291,2.8291,2.8291,2.8291,2.831,2.8369,2.8379,2.8379,2.8379,2.832,2.8291,2.8291,2.8291,2.8291,2.8291,2.7441,2.7012,2.7002,2.6093,2.5693,2.5693,2.5693,2.5488,2.5106,2.501,2.4531,2.3789,2.3721,2.3486,2.3188,2.346,2.359,2.3677,2.411,2.4325,2.4368,2.4509,2.4627,2.4627,2.4133,2.4476,2.5115,2.5569,2.631,2.7092,2.7336,2.7834,2.8339,2.8538,2.8764,2.8878,2.8796,2.8761,2.8674,2.8399,2.8273,2.8047,2.7494,2.7394,2.7394,2.7394,2.7783,2.8084,2.8009,2.7595,2.7256,2.718,2.6788,2.6499,2.6499,2.6047,2.5473,2.4838,2.4381,2.3828,2.3145,2.3108,2.3145,2.3221,2.3221,2.3552,2.4236,2.4249,2.4274,2.4342,2.4373,2.4239,2.392,2.3936,2.4041,2.484,2.5562,2.6229,2.6752,2.7039,2.7009,2.6081,2.5802,0.0,0.0,0.0,2.368,2.3242,0.0,0.0,2.4521,0.0,0.0,0.0,0.0,2.8291,0.0,0.0,0.0,0.0,0.0,0.0,0.0,0.0,2.8809,2.8809,2.8476,2.8291,2.8291,2.8291,2.8291,2.8291,2.7441,2.7012,2.7002,2.6093,2.5693,2.5693,2.5693,2.5488,2.5096,2.4687,0.0,2.376,2.3398,2.33,2.345,2.3667,2.4003,2.437,2.469,2.4861,2.5031,2.5073,2.5316,2.56,2.5105,2.5316,2.5852,2.6682,2.7244,2.777,2.8343,2.8593,2.8803,2.9157,2.9263,2.9367,2.9538,2.9602,2.9577,2.9515,2.9126,2.8587,2.8072,2.7959,2.7959,2.7959,2.8047,2.7946,2.7494,2.7379,2.7153,2.67,2.6549,2.6499,2.6499,2.6411,2.59,2.4876,2.47,2.4199,2.317,2.3108,2.3321,2.3828,2.3853,2.4381,2.5552,2.5577,2.5401,2.5122,2.5216,2.4861,2.4073,2.4189,2.445,2.6023,2.6806,2.7346,2.7637,2.7707,2.7419,2.6415,0.0,0.0,0.0,0.0,2.3389,2.314,0.0,0.0,0.0,0.0,0.0,0.0,0.0,0.0,0.0,0.0,0.0,0.0,0.0,0.0,0.0,0.0,2.9258,2.9258,2.8848,2.8613,2.8613,2.8408,2.8291,2.8291,2.7441,2.7012,2.7002,2.6093,2.5693,2.5693,2.5693,2.5488,2.5086,2.4609,0.0,2.3929,2.3496,2.3547,2.3894,2.4229,2.4637,2.5105,2.5726,2.606,2.6268,2.6464,2.6712,2.6876,2.6805,2.6734,2.6857,2.751,2.8075,2.8593,2.8988,2.9197,2.9378,2.9573,2.9611,2.965,2.9753,2.9792,2.9792,2.9792,2.934,2.8813,2.8586,2.8536,2.8536,2.8536,2.8787,2.8787,2.8222,2.7896,2.7507,2.7002,2.6675,2.6499,2.6499,2.6499,2.616,2.5297,2.5222,2.4838,2.4036,2.3985,2.4111,2.4418,2.4513,2.5052,2.6054,2.6107,2.6052,2.5829,2.5892,2.5518,2.4794,2.495,2.5216,2.6841,2.7639,2.8124,2.8123,2.7985,2.7552,2.6394,2.5498,0.0,0.0,0.0,2.3091,2.3091,0.0,0.0,0.0,0.0,0.0,0.0,0.0,0.0,0.0,0.0,0.0,0.0,0.0,0.0,0.0,0.0,0.0,2.9443,2.9189,2.8975,2.8789,2.8467,2.8291,2.8291,2.7441,2.7012,2.7002,2.6093,2.5693,2.5693,2.5693,2.5488,2.5096,2.4656,0.0,2.4153,2.3847,2.4013,2.454,2.4988,2.5485,2.603,2.6805,2.7255,2.751,2.7822,2.7983,2.8051,2.8247,2.8047,2.7805,2.8247,2.8764,2.9209,2.9431,2.965,2.9792,2.9792,2.9792,2.9792,2.9792,2.9792,2.9792,2.9792,2.944,2.9076,2.9076,2.9076,2.9076,2.9076,2.949,2.9553,2.8825,2.8386,2.7858,2.7228,2.6763,2.6499,2.6499,2.6499,2.626,2.5649,2.5598,2.5372,2.4825,2.4788,2.487,2.5028,2.5242,2.5736,2.653,2.6713,2.6767,2.6666,2.6606,2.6272,2.5716,2.5799,2.5975,2.7422,2.8084,2.8309,2.8089,2.766,2.6933,2.5528,0.0,0.0,0.0,2.312,2.3091,2.3091,2.3496,2.3799,0.0,0.0,0.0,0.0,0.0,0.0,0.0,0.0,0.0,0.0,0.0,0.0,0.0,0.0,0.0,2.9043,2.9316,2.916,2.8369,2.831,2.8291,2.8291,2.7441,2.7012,2.7002,2.6093,2.5693,2.5693,2.5693,2.5488,2.5086,2.4841,0.0,0.0,2.4436,2.4797,2.5411,2.5904,2.6599,2.7348,2.7609,2.7995,2.8391,2.8431,2.8578,2.8712,2.8764,2.8566,2.8459,2.8895,2.9197,2.9431,2.9702,2.9792,2.9792,2.9792,2.9792,2.9792,2.9792,2.9792,2.9792,2.9792,2.9754,2.9716,2.9716,2.9716,2.9716,2.9716,2.9754,2.9428,2.8348,2.8134,2.772,2.6713,2.6524,2.6499,2.6499,2.6499,2.626,2.5649,2.5598,2.5372,2.4825,2.4788,2.5099,2.5755,2.599,2.6588,2.763,2.7946,2.802,2.7827,2.7538,2.7151,2.6652,2.6379,2.6418,2.7486,2.7782,2.7715,2.7666,2.7096,2.6314,2.5304,0.0,0.0,2.3218,2.3091,2.3091,2.3091,2.3237,2.3398,0.0,0.0,0.0,0.0,0.0,0.0,0.0,0.0,0.0,0.0,0.0,0.0,0.0,0.0,0.0,2.9365,2.9473,2.9297,2.8682,2.8428,2.8291,2.8291,2.7705,2.7275,2.7012,2.6406,2.5986,2.5693,2.5693,2.5683,2.5669,2.5471,0.0,0.0,2.5525,2.5849,2.6393,2.6805,2.7429,2.8127,2.8474,2.8791,2.904,2.9221,2.9351,2.9417,2.9417,2.9339,2.9273,2.9287,2.9443,2.965,2.9753,2.9792,2.9792,2.9792,2.9792,2.9792,2.9792,2.9792,2.9792,2.9792,2.9792,2.9792,2.9792,2.9792,2.9792,2.9792,2.9792,2.9515,2.8712,2.8323,2.7821,2.709,2.67,2.6499,2.6499,2.6499,2.6433,2.6261,2.627,2.6282,2.6312,2.6299,2.6468,2.6852,2.7117,2.7584,2.8281,2.8675,2.883,2.8719,2.8661,2.8426,2.805,2.8026,2.8115,2.6957,2.713,2.691,2.7072,2.648,2.5669,0.0,0.0,2.3662,2.3188,2.3091,2.3091,2.3091,2.3091,2.3091,2.3091,0.0,0.0,0.0,0.0,0.0,0.0,0.0,0.0,0.0,0.0,0.0,0.0,0.0,0.0,2.9675,2.9626,2.9316,2.875,2.8501,2.8408,2.8408,2.8186,2.7794,2.7348,2.7033,2.6645,2.6159,2.6159,2.6245,2.6398,2.6296,0.0,0.0,2.6628,2.6912,2.7307,2.7713,2.8247,2.8816,2.9079,2.9326,2.956,2.974,2.9792,2.9792,2.9792,2.9792,2.9753,2.956,2.965,2.9792,2.9792,2.9792,2.9792,2.9792,2.9792,2.9792,2.9792,2.9792,2.9792,2.9792,2.9792,2.9792,2.9792,2.9792,2.9792,2.9792,2.9792,2.9591,2.8976,2.8562,2.8097,2.7369,2.6977,2.671,2.658,2.6555,2.6589,2.6679,2.6748,2.6952,2.7335,2.7403,2.7556,2.7776,2.8072,2.8463,2.8958,2.9387,2.961,2.9663,2.9624,2.9493,2.9266,2.9228,2.9381,2.5977,2.6146,2.6,2.6389,2.5908,2.517,0.0,0.0,2.3662,2.3188,2.3091,2.3091,2.3091,2.3091,2.3091,2.3091,2.3101,0.0,0.0,0.0,0.0,0.0,0.0,0.0,0.0,0.0,0.0,0.0,0.0,0.0,2.9675,2.9626,2.918,2.833,2.8578,2.8684,2.8684,2.8803,2.8646,2.8186,2.8064,2.7696,2.7183,2.7183,2.7183,2.721,0.0,0.0,0.0,2.7671,2.7975,2.8219,2.8645,2.9028,2.938,2.9419,2.956,2.9792,2.9792,2.9792,2.9792,2.9792,2.9792,2.9792,2.9792,2.9792,2.9792,2.9792,2.9792,2.9792,2.9792,2.9792,2.9792,2.9792,2.9792,2.9792,2.9792,2.9792,2.9792,2.9792,2.9792,2.9792,2.9792,2.9792,2.9591,2.8976,2.8888,2.8524,2.7419,2.7316,2.7125,2.6743,2.6679,2.6679,2.6679,2.6871,2.7142,2.7503,2.7689,2.8006,2.8481,2.8675,2.9107,2.9777,3.0129,3.0447,3.0777,3.0337,3.0084,3.0069,2.9601,2.9784,2.5413,2.5545,2.541,2.5633,2.5265,2.4679,2.4144,0.0,2.3257,2.312,2.3091,2.3091,2.3091,2.3091,2.3091,2.3091,2.3091,0.0,0.0,0.0,0.0,0.0,0.0,0.0,0.0,0.0,0.0,0.0,0.0,0.0,3.0029,2.9726,2.918,2.832,2.8568,2.8781,2.8983,2.9043,2.8991,2.8736,2.8523,2.8157,2.7752,2.7752,2.794,0.0,0.0,0.0,2.8462,2.8955,2.9005,2.8855,2.9106,2.9392,2.965,2.965,2.974,2.9792,2.9792,2.9792,2.9792,2.9792,2.9792,2.9792,2.9792,2.9792,2.9792,2.9792,2.9792,2.9792,2.9792,2.9792,2.9792,2.9792,2.9792,2.9792,2.9792,2.9792,2.9792,2.9792,2.9792,2.9792,2.9792,2.9792,2.9729,2.9553,2.929,2.8974,2.862,2.8163,2.7802,2.7657,2.7522,2.7443,2.7443,2.761,2.7993,2.8707,2.8917,2.9202,2.9591,2.9747,3.0007,3.0357,3.0643,3.0881,3.1146,3.1084,3.1067,3.1067,3.0887,3.0959,0.0,2.4788,2.4741,2.4919,2.4629,0.0,0.0,0.0,0.0,2.3091,2.3091,2.3091,2.3091,2.3091,2.3091,2.3091,2.3091,0.0,0.0,0.0,0.0,0.0,0.0,0.0,0.0,0.0,0.0,0.0,0.0,0.0,3.0406,2.9973,2.9534,2.9029,2.901,2.9195,2.9438,2.9857,3.0049,2.9872,2.9759,2.9501,2.9084,2.9084,2.9257,0.0,0.0,2.9708,0.0,2.9863,2.9735,2.9236,2.947,2.965,2.9792,2.9792,2.9792,2.9792,2.9792,2.9792,2.9792,2.9792,2.9792,2.9792,2.9792,2.9792,2.9792,2.9792,2.9792,2.9792,2.9792,2.9792,2.9792,2.9792,2.9792,2.9792,2.9792,2.9792,2.9792,2.9792,2.9792,2.9792,2.9792,2.9792,2.983,2.9895,2.9771,2.9641,2.956,2.922,2.8869,2.8644,2.8532,2.8477,2.856,2.8384,2.8643,2.9435,2.9685,2.9962,3.0357,3.0447,3.0598,3.0866,3.1043,3.119,3.138,3.1467,3.1511,3.1511,3.1511,3.1511,0.0,2.3967,2.4042,2.4273,2.4082,0.0,0.0,0.0,0.0,0.0,2.3091,2.3091,2.3091,2.3091,2.3091,2.3091,2.3091,0.0,0.0,0.0,0.0,0.0,0.0,0.0,0.0,0.0,0.0,0.0,0.0,0.0,3.072,3.033,3.0148,3.0271,2.9937,2.9858,3.0109,3.1083,3.151,3.1397,3.153,3.1372,3.0946,3.0946,3.0946,0.0,0.0,3.0838,3.0091,3.0484,3.0186,2.9457,2.9702,2.9792,2.9792,2.9792,2.9792,2.9792,2.9792,2.9792,2.9792,2.9792,2.9792,2.9792,2.9792,2.9792,2.9792,2.9792,2.9792,2.9792,2.9792,2.9792,2.9792,2.9792,2.9792,2.9792,2.9792,2.9792,2.9792,2.9792,2.9792,2.983,2.983,2.983,2.9946,3.0113,3.033,3.0427,3.0252,3.0388,3.0308,2.9746,2.9656,2.9716,2.9891,2.9293,2.917,2.9839,3.0054,3.0387,3.0821,3.0851,3.0999,3.1307,3.1307,3.138,3.1511,3.1511,3.1511,3.1511,3.1511,3.1511,2.3246,0.0,2.3845,2.3935,2.3867,2.3701,0.0,0.0,0.0,0.0,0.0,0.0,0.0,0.0,2.3091,2.3091,0.0,0.0,0.0,0.0,0.0,0.0,0.0,0.0,0.0,0.0,0.0,0.0,0.0,3.1136,3.103,3.0989,3.0915,3.0817,3.1238,3.1351,3.1208,3.1497,3.1775,3.2123,3.1822,3.1636,3.1516,3.1516,3.1593,0.0,3.1359,3.1083,3.0787,3.0449,3.0092,2.9702,2.9792,2.9792,2.9792,2.9792,2.9792,2.9792,2.9792,2.9792,2.9792,2.9792,2.9792,2.9792,2.9792,2.9792,2.9792,2.9792,2.9792,2.9792,2.9792,2.9792,2.9792,2.9792,2.9792,2.9792,2.9792,2.9792,2.9792,2.9792,2.9934,3.0049,3.0049,3.0279,3.0508,3.0546,3.1011,3.1355,3.1402,3.1575,3.1716,3.1712,3.1227,3.094,3.1079,3.0295,3.0054,3.0688,3.0911,3.1102,3.1336,3.1336,3.138,3.1438,3.1438,3.1467,3.1511,3.1511,3.1511,3.1511,3.1511,3.1511,2.3091,2.331,2.3496,2.3496,2.3496,2.3428,2.3149,0.0,0.0,0.0,0.0,0.0,0.0,0.0,0.0,0.0,0.0,0.0,0.0,0.0,0.0,0.0,0.0,0.0,0.0,0.0,0.0,0.0,0.0,3.1596,3.1707,3.1798,3.1976,3.2119,3.2514,3.251,3.1964,3.2213,3.2524,3.2933,3.2524,3.2332,3.2332,3.2332,3.2407,0.0,3.1914,3.1497,3.1198,3.0608,3.015,2.9792,2.9792,2.9792,2.9792,2.9792,2.9792,2.9792,2.9792,2.9792,2.9792,2.9792,2.9792,2.9792,2.9792,2.9792,2.9792,2.9792,2.9792,2.9792,2.9792,2.9792,2.9792,2.9792,2.9792,2.9792,2.9792,2.9869,2.9934,2.9934,3.0164,3.0394,3.0394,3.0672,3.0998,3.1185,3.1653,3.2114,3.2506,3.2751,3.2792,3.2558,3.2176,3.1807,3.1438,3.0922,3.0792,3.1131,3.1248,3.1351,3.1511,3.1511,3.1511,3.1511,3.1511,3.1511,3.1511,3.1511,3.1511,3.1511,3.1511,3.1511,2.3091,2.3091,2.3091,2.3091,2.3091,2.3091,2.3091,0.0,0.0,0.0,0.0,0.0,0.0,0.0,0.0,0.0,0.0,0.0,0.0,0.0,0.0,0.0,0.0,0.0,0.0,0.0,0.0,0.0,0.0,3.1968,3.2269,3.262,3.3027,3.3572,3.3731,3.3511,3.2812,3.3149,3.3433,3.371,3.3289,3.3124,3.3124,3.3124,3.3074,3.2918,0.0,0.0,3.1235,3.0708,3.0218,2.9792,2.9792,2.9792,2.9792,2.9792,2.9792,2.9792,2.9792,2.9792,2.9792,2.9792,2.9792,2.9792,2.9792,2.9792,2.9792,2.9792,2.9792,2.9792,2.9792,2.9792,2.9792,2.9792,2.9792,2.9792,2.983,3.0011,3.0152,3.0203,3.0533,3.0836,3.0874,3.1209,3.1589,3.1978,3.239,3.2903,3.3555,3.3825,3.3701,3.3001,3.2859,3.2472,3.1574,3.141,3.1322,3.1322,3.1322,3.138,3.1511,3.1511,3.1511,3.1511,3.1511,3.1511,3.1511,3.1511,3.1511,3.1511,3.1511,3.1511,2.3091,2.3091,2.3091,2.3091,2.3091,2.3091,0.0,0.0,0.0,0.0,0.0,0.0,0.0,0.0,0.0,0.0,0.0,0.0,0.0,0.0,0.0,0.0,0.0,0.0,0.0,0.0,0.0,0.0,0.0,3.1899,3.1881,3.3023,3.3753,3.3922,3.4567,3.492,3.4775,3.4141,3.3928,3.4189,3.3464,3.3124,3.3124,3.3124,3.2805,3.2315,0.0,3.1223,3.0696,3.0143,2.9867,2.9792,2.9792,2.9792,2.9792,2.9792,2.9792,2.9792,2.9792,2.9792,2.9792,2.9792,2.9792,2.9792,2.9792,2.9792,2.9792,2.9792,2.9792,2.9792,2.9792,2.9792,2.9792,2.9792,2.9792,2.9869,3.0011,3.0228,3.0406,3.0584,3.1048,3.1519,3.1626,3.2245,3.2797,3.3044,3.35,3.3948,3.423,3.4534,3.4541,3.4034,3.3627,3.3094,3.2363,3.1795,3.1467,3.1467,3.1467,3.1467,3.1511,3.1511,3.1511,3.1511,3.1511,3.1511,3.1511,3.1511,3.1511,3.1511,3.1511,3.1511,2.3091,2.3091,2.3091,2.3091,2.3091,2.3091,0.0,0.0,0.0,0.0,0.0,0.0,0.0,0.0,0.0,0.0,0.0,0.0,0.0,0.0,0.0,0.0,0.0,0.0,0.0,0.0,0.0,0.0,0.0,0.0,3.2901,3.3958,3.4645,3.4847,3.5368,3.5704,3.5835,3.4851,3.4293,3.428,3.3464,3.3124,3.3124,3.3124,3.2754,3.2177,0.0,3.1097,3.057,3.0018,2.9792,2.9792,2.9792,2.9792,2.9792,2.9792,2.9792,2.9792,2.9792,2.9792,2.9792,2.9792,2.9792,2.9792,2.9792,2.9792,2.9792,2.9792,2.9792,2.9792,2.9792,2.9792,2.9792,2.9792,2.9792,2.9869,3.0049,3.0419,3.0823,3.1073,3.1726,3.2273,3.2426,3.3009,3.3479,3.3701,3.4113,3.4534,3.4817,3.4983,3.4747,3.3913,3.3633,3.308,3.2049,3.1675,3.1645,3.2004,3.2034,3.2034,3.2034,3.2034,3.1869,3.1511,3.1511,3.1511,3.1511,3.1511,3.1511,3.1511,3.1511,3.1511,2.3091,2.3091,2.3091,2.3091,0.0,2.3091,0.0,0.0,0.0,0.0,0.0,0.0,0.0,0.0,0.0,0.0,0.0,0.0,0.0,0.0,0.0,0.0,0.0,0.0,0.0,0.0,0.0,0.0,0.0,0.0,3.386,3.4693,3.5281,3.5681,3.5955,3.6193,3.6405,3.5278,3.459,3.4384,3.3508,3.3124,3.3124,3.3124,3.2692,3.2001,3.1574,3.1022,3.0394,2.9967,2.9792,2.9792,2.9792,2.9792,2.9792,2.9792,2.9792,2.9792,2.9792,2.9792,2.9792,2.9792,2.9792,2.9792,2.9792,2.9792,2.9792,2.9792,2.9792,2.9792,2.9869,2.9869,2.9908,2.9985,3.0023,3.0088,3.0381,3.0861,3.1371,3.1773,3.2461,3.3058,3.3304,3.3722,3.4113,3.4332,3.465,3.4964,3.5228,3.5261,3.488,3.3844,3.3589,3.3021,3.1824,3.1869,3.2243,3.2931,3.2826,3.2736,3.2736,3.2572,3.2243,3.175,3.1585,3.1511,3.1511,3.1511,3.1511,3.1511,3.1511,3.1511,2.3091,2.3091,2.3091,2.3091,0.0,0.0,0.0,0.0,0.0,0.0,0.0,0.0,0.0,0.0,0.0,0.0,0.0,0.0,0.0,0.0,0.0,0.0,0.0,0.0,0.0,0.0,0.0,0.0,0.0,0.0,3.3977,3.4774,3.5404,3.5968,3.6228,3.6358,3.6405,3.5278,3.468,3.4668,3.3608,3.3124,3.3124,3.3124,3.2478,3.1449,3.1411,3.0796,2.9842,2.9817,2.9792,2.9792,2.9792,2.9792,2.9792,2.9792,2.9792,2.9792,2.9792,2.9792,2.9792,2.9792,2.9792,2.9792,2.9792,2.9792,2.9792,2.9792,2.9792,2.983,3.0049,3.0075,3.0152,3.0546,3.0622,3.0798,3.1371,3.1776,3.22,3.2775,3.3339,3.3839,3.423,3.4601,3.4902,3.5082,3.5294,3.5439,3.5472,3.5472,3.522,3.4518,3.3858,3.3215,3.2497,3.3006,3.3634,3.4324,3.3769,3.3425,3.3425,3.2841,3.2497,3.2437,3.1809,3.1511,3.1511,3.1511,3.1511,3.1511,3.1511,3.1511,2.3091,2.3091,2.3091,2.3091,0.0,0.0,0.0,0.0,0.0,0.0,0.0,0.0,0.0,0.0,0.0,0.0,0.0,0.0,0.0,0.0,0.0,0.0,0.0,0.0,0.0,0.0,0.0,0.0,0.0,0.0,3.4969,3.5416,3.586,3.6228,3.637,3.6194,3.5855,3.5102,3.455,3.4198,3.3432,3.3124,3.3111,3.2704,3.2114,3.1373,3.1047,3.0482,2.9792,2.9792,2.9792,2.9792,2.9792,2.9792,2.9792,2.9792,2.9792,2.9792,2.9792,2.9792,2.9792,2.9792,2.9792,2.9792,2.9792,2.9792,2.983,2.9934,2.9972,3.0011,3.0075,3.019,3.0381,3.0798,3.0936,3.1172,3.1763,3.22,3.269,3.3346,3.3859,3.4298,3.4635,3.4902,3.5115,3.518,3.5359,3.5504,3.5504,3.5504,3.5235,3.4578,3.3888,3.3395,3.314,3.3724,3.4234,3.4488,3.4279,3.4098,3.4098,3.3858,3.3544,3.3125,3.2452,3.2108,3.2108,3.1705,3.1511,3.1511,3.1929,3.2108,2.3091,2.3091,2.3091,0.0,0.0,0.0,0.0,0.0,0.0,0.0,0.0,0.0,0.0,0.0,0.0,0.0,0.0,0.0,0.0,0.0,0.0,0.0,0.0,0.0,0.0,0.0,0.0,0.0,0.0,0.0,0.0,3.5746,3.5837,3.6107,3.5931,3.5667,3.5245,3.4738,3.4274,3.3884,3.3345,3.3124,3.3056,3.2478,3.1913,3.1361,3.0834,3.0306,2.9792,2.9792,2.9792,2.9792,2.9792,2.9792,2.9792,2.9792,2.9792,2.9792,2.9792,2.9792,2.9792,2.9792,2.983,2.9908,2.9908,2.9972,3.0088,3.0241,3.0356,3.0419,3.052,3.0634,3.081,3.1408,3.1653,3.1955,3.2569,3.3009,3.3409,3.4051,3.4419,3.475,3.5049,3.518,3.5294,3.5294,3.5407,3.5504,3.5504,3.5504,3.5235,3.4578,3.4262,3.4038,3.3829,3.4412,3.4833,3.4833,3.4833,3.4833,3.4833,3.4623,3.4294,3.3814,3.3155,3.2826,3.2826,3.2377,3.2123,3.2123,3.2617,3.2826,2.3091,2.3091,0.0,0.0,0.0,0.0,0.0,0.0,0.0,0.0,0.0,0.0,0.0,0.0,0.0,0.0,0.0,0.0,0.0,0.0,0.0,0.0,0.0,0.0,0.0,0.0,0.0,0.0,0.0,0.0,0.0,3.5494,3.5276,3.5495,3.4969,3.468,3.4668,3.4173,3.3897,3.3884,3.3332,3.3124,3.3056,3.2466,3.1901,3.1361,3.0834,3.0294,2.9792,2.9792,2.9792,2.9792,2.9792,2.9792,2.9792,2.9792,2.9792,2.9792,2.9792,2.9792,2.9792,2.9792,2.9934,3.0113,3.0113,3.0381,3.0698,3.0698,3.0836,3.1099,3.1519,3.1482,3.1556,3.2489,3.2846,3.322,3.3948,3.4249,3.4515,3.4835,3.5082,3.5261,3.5472,3.5504,3.5504,3.5504,3.5504,3.5504,3.5504,3.5504,3.525,3.4593,3.51,3.5235,3.4578,3.5115,3.5504,3.5504,3.5504,3.5504,3.5504,3.4846,3.4518,3.4518,3.3844,3.3499,3.3499,3.3499,3.3499,3.3499,3.3499,3.3499,2.3091,2.3091,0.0,0.0,0.0,0.0,0.0,0.0,0.0,0.0,0.0,0.0,0.0,0.0,0.0,0.0,0.0,0.0,0.0,0.0,0.0,0.0,0.0,0.0,0.0,0.0,0.0,0.0,0.0,0.0,0.0,3.5503,3.5286,3.4931,3.4756,3.4537,3.4148,3.3985,3.3709,3.3319,3.3156,3.3124,3.3086,3.2077,3.1549,3.1336,3.0432,2.9942,2.9792,2.9792,2.9792,2.9792,2.9792,2.9792,2.9792,2.9792,2.9792,2.9792,2.9792,2.9792,2.9792,2.9792,2.9934,3.0113,3.0254,3.0596,3.0986,3.1357,3.1616,3.1909,3.2453,3.2668,3.2775,3.3058,3.3339,3.3736,3.4366,3.4582,3.4731,3.5049,3.5148,3.5261,3.5472,3.5504,3.5504,3.5504,3.5504,3.5504,3.5504,3.5504,3.5429,3.522,3.5385,3.5429,3.522,3.5385,3.5504,3.5504,3.5504,3.5504,3.5504,3.531,3.519,3.519,3.4532,3.4219,3.4219,3.3724,3.3499,3.3499,3.3963,3.4219,2.3091,0.0,0.0,0.0,0.0,0.0,0.0,0.0,0.0,0.0,0.0,0.0,0.0,0.0,0.0,0.0,0.0,0.0,0.0,0.0,0.0,0.0,0.0,0.0,0.0,0.0,0.0,0.0,0.0,0.0,0.0,3.5295,3.4919,3.4412,3.4186,3.3909,3.3583,3.3571,3.3407,3.3124,3.3124,3.3124,3.3074,3.1901,3.1386,3.1336,3.0256,2.9792,2.9792,2.9792,2.9792,2.9792,2.9792,2.9792,2.9792,2.9792,2.9792,2.9792,2.9792,2.9869,2.9934,2.9934,3.0152,3.0495,3.071,3.1185,3.1763,3.2173,3.2533,3.2889,3.3325,3.3583,3.3736,3.3736,3.3942,3.4312,3.4898,3.503,3.5063,3.5294,3.5326,3.5359,3.5472,3.5504,3.5504,3.5504,3.5504,3.5504,3.5504,3.5504,3.5504,3.5504,3.5504,3.5504,3.5504,3.5504,3.5504,3.5504,3.5504,3.5504,3.5504,3.5504,3.5504,3.5504,3.51,3.4891,3.4891,3.4487,3.4292,3.4292,3.4696,3.4891,0.0,0.0,0.0,0.0,0.0,0.0,0.0,0.0,0.0,0.0,0.0,0.0,0.0,0.0,0.0,0.0,0.0,0.0,0.0,0.0,0.0,0.0,0.0,0.0,0.0,0.0,0.0,0.0,0.0,0.0,0.0,3.4906,3.4399,3.3847,3.3332,3.3124,3.3124,3.3124,3.3124,3.3124,3.3018,3.3006,3.2968,3.1876,3.1336,3.1185,3.0218,2.9792,2.9792,2.9792,2.9792,2.9792,2.9792,2.9792,2.9792,2.9792,2.9792,2.9792,2.983,2.9972,3.0113,3.0152,3.0571,3.1099,3.131,3.2019,3.281,3.3058,3.3465,3.3934,3.4119,3.4317,3.4448,3.4481,3.4616,3.4865,3.5407,3.5504,3.5504,3.5504,3.5504,3.5504,3.5504,3.5504,3.5504,3.5504,3.5504,3.5504,3.5504,3.5504,3.5504,3.5504,3.5504,3.5504,3.5504,3.5504,3.5504,3.5504,3.5504,3.5504,3.5504,3.5504,3.5504,3.5504,3.5504,3.5504,3.5504,3.5504,3.5504,3.5537,3.5537,3.5522,0.0,0.0,0.0,0.0,0.0,0.0,0.0,0.0,0.0,0.0,0.0,0.0,0.0,0.0,0.0,0.0,0.0,0.0,0.0,0.0,0.0,0.0,0.0,0.0,0.0,0.0,0.0,0.0,0.0,0.0,3.4881,3.4374,3.3822,3.3269,3.3144,3.3124,3.3124,3.3124,3.3124,3.3111,3.2616,3.2403,3.2378,3.17,3.0934,3.0118,2.9892,2.9792,2.9792,2.9792,2.9792,2.9792,2.9792,2.9792,2.9792,2.9792,2.9792,2.983,2.9972,3.019,3.0368,3.0495,3.0986,3.1519,3.185,3.2525,3.3269,3.3736,3.4162,3.4534,3.4687,3.4754,3.4835,3.4983,3.5049,3.5162,3.5439,3.5504,3.5504,3.5504,3.5504,3.5504,3.5504,3.5504,3.5504,3.5504,3.5504,3.5504,3.5504,3.5504,3.5504,3.5504,3.5504,3.5504,3.5504,3.5504,3.5504,3.5504,3.5504,3.5504,3.5504,3.5504,3.5504,3.5504,3.5504,3.5504,3.5504,3.5504,3.5539,3.5671,3.5671,3.5799,0.0,0.0,0.0,0.0,0.0,0.0,0.0,0.0,0.0,0.0,0.0,0.0,0.0,0.0,0.0,0.0,0.0,0.0,0.0,0.0,0.0,0.0,0.0,0.0,0.0,0.0,0.0,0.0,0.0,3.5144,3.4374,3.406,3.3646,3.3136,3.3124,3.3124,3.3124,3.3124,3.293,3.2667,3.2353,3.1938,3.1436,3.1148,3.057,2.9792,2.9792,2.9792,2.9792,2.9792,2.9792,2.9792,2.9792,2.9792,2.9792,2.9792,2.9869,2.9972,3.019,3.0482,3.0885,3.1147,3.1616,3.22,3.2561,3.3199,3.3908,3.4264,3.4716,3.5096,3.5148,3.518,3.5213,3.5326,3.5261,3.5261,3.5472,3.5504,3.5504,3.5504,3.5504,3.5504,3.5504,3.5504,3.5504,3.5504,3.5504,3.5504,3.5504,3.5504,3.5504,3.5504,3.5504,3.5504,3.5504,3.5504,3.5504,3.5504,3.5504,3.5504,3.5504,3.5554,3.5587,3.5504,3.5504,3.5504,3.5504,3.5504,3.5572,3.5688,3.5688,3.5879,0.0,0.0,0.0,0.0,0.0,0.0,0.0,0.0,0.0,0.0,0.0,0.0,0.0,0.0,0.0,0.0,0.0,0.0,0.0,0.0,0.0,0.0,0.0,0.0,0.0,0.0,0.0,0.0,0.0,3.4818,3.3947,3.3709,3.3395,3.2943,3.283,3.2822,3.2822,3.2822,3.2554,3.2077,3.1976,3.1424,3.047,3.047,3.0218,2.9792,2.9792,2.9792,2.9792,2.9792,2.9792,2.9792,2.983,2.9869,2.9869,2.9946,3.0049,3.0228,3.052,3.096,3.1519,3.1882,3.239,3.2952,3.3374,3.3942,3.4549,3.4731,3.5129,3.5504,3.5504,3.5504,3.5504,3.5504,3.5359,3.5294,3.5472,3.5504,3.5504,3.5504,3.5504,3.5504,3.5504,3.5504,3.5504,3.5504,3.5504,3.5504,3.5504,3.5504,3.5504,3.5504,3.5504,3.5504,3.5504,3.5504,3.5504,3.5504,3.5504,3.5504,3.5504,3.5621,3.5671,3.5602,3.5602,3.5602,3.5602,3.5602,3.5668,3.5847,3.5847,3.607,0.0,0.0,0.0,0.0,0.0,0.0,0.0,0.0,0.0,0.0,0.0,0.0,0.0,0.0,0.0,0.0,0.0,0.0,0.0,0.0,0.0,0.0,0.0,0.0,0.0,0.0,0.0,0.0,3.4399,3.406,3.3909,3.2968,3.2403,3.2328,3.1863,3.1612,3.1612,3.1612,3.1574,3.1499,3.1047,3.0507,2.9905,2.9905,2.9867,2.9792,2.9792,2.9792,2.9792,2.9792,2.9792,2.983,2.9972,3.0049,3.0113,3.047,3.0584,3.0698,3.1272,3.1703,3.2092,3.2654,3.3199,3.3736,3.4128,3.4534,3.4868,3.5082,3.5294,3.5504,3.5504,3.5504,3.5504,3.5504,3.5472,3.5472,3.5504,3.5504,3.5504,3.5504,3.5504,3.5504,3.5504,3.5504,3.5504,3.5504,3.5504,3.5504,3.5504,3.5504,3.5504,3.5504,3.5504,3.5504,3.5504,3.5504,3.5504,3.5504,3.5504,3.5504,3.5504,3.5621,3.5752,3.5925,3.5941,3.5941,3.5941,3.5941,3.6068,3.6398,3.6507,3.6892,0.0,0.0,0.0,0.0,0.0,0.0,0.0,0.0,0.0,0.0,0.0,0.0,0.0,0.0,0.0,0.0,0.0,0.0,0.0,0.0,0.0,0.0,0.0,0.0,0.0,0.0,0.0,0.0,3.4035,3.3621,3.2993,3.2478,3.2077,3.1763,3.1512,3.1386,3.1386,3.1386,3.1248,3.0947,3.0419,3.003,2.9792,2.9792,2.9792,2.9792,2.9792,2.9792,2.9792,2.9792,2.9792,2.983,3.0011,3.019,3.0343,3.0723,3.1048,3.1394,3.1873,3.2403,3.296,3.3444,3.3908,3.4332,3.4601,3.4868,3.5082,3.518,3.5326,3.5504,3.5504,3.5504,3.5504,3.5504,3.5504,3.5504,3.5504,3.5504,3.5504,3.5504,3.5504,3.5504,3.5504,3.5504,3.5504,3.5504,3.5504,3.5504,3.5504,3.5504,3.5504,3.5504,3.5504,3.5504,3.5504,3.5504,3.5504,3.5504,3.5504,3.5504,3.5504,3.5814,3.6085,3.6273,3.6289,3.632,3.6383,3.6476,3.6631,3.6892,3.6952,3.7284,0.0,0.0,0.0,0.0,0.0,0.0,0.0,0.0,0.0,0.0,0.0,0.0,0.0,0.0,0.0,0.0,0.0,0.0,0.0,0.0,0.0,0.0,0.0,0.0,0.0,0.0,0.0,0.0,3.3696,3.3257,3.2265,3.2077,3.175,3.121,3.106,3.0984,3.0984,3.0984,3.0783,3.0407,2.9993,2.9792,2.9792,2.9792,2.9792,2.9792,2.9792,2.9792,2.9792,2.9792,2.9792,2.983,3.0126,3.0381,3.0634,3.1222,3.1726,3.216,3.264,3.322,3.3811,3.4182,3.4534,3.4865,3.5016,3.5148,3.5294,3.5294,3.5359,3.5504,3.5504,3.5504,3.5504,3.5504,3.5504,3.5504,3.5504,3.5504,3.5504,3.5504,3.5504,3.5504,3.5504,3.5504,3.5504,3.5504,3.5504,3.5504,3.5504,3.5504,3.5504,3.5504,3.5504,3.5504,3.5504,3.5504,3.5504,3.5504,3.5504,3.5504,3.5504,3.591,3.6274,3.6554,3.6708,3.6846,3.6968,3.7103,3.7282,3.7476,3.7535,3.7783,0.0,0.0,0.0,0.0,0.0,0.0,0.0,0.0,0.0,0.0,0.0,0.0,0.0,0.0,0.0,0.0,0.0,0.0,0.0,0.0,0.0,0.0,0.0,0.0,0.0,0.0,0.0,0.0,3.3162,3.2855,3.224,3.1725,3.1198,3.067,3.0143,2.988,2.988,2.988,2.9867,2.9829,2.9804,2.9792,2.9792,2.9792,2.9792,2.9792,2.9792,2.9792,2.9792,2.9792,2.9792,2.9869,3.0432,3.0798,3.1086,3.22,3.2739,3.3058,3.3762,3.4167,3.4414,3.4735,3.5001,3.5213,3.5407,3.5472,3.5472,3.5472,3.5504,3.5504,3.5504,3.5504,3.5504,3.5504,3.5504,3.5504,3.5504,3.5504,3.5504,3.5504,3.5504,3.5504,3.5504,3.5504,3.5504,3.5504,3.5504,3.5504,3.5504,3.5504,3.5504,3.5504,3.5504,3.5504,3.5504,3.5504,3.5504,3.5504,3.5504,3.5504,3.5504,3.5829,3.6226,3.6693,3.73,3.7642,3.7642,3.7786,3.7985,3.8242,3.8427,3.8745,0.0,0.0,0.0,0.0,0.0,0.0,0.0,0.0,0.0,0.0,0.0,0.0,0.0,0.0,0.0,0.0,0.0,0.0,0.0,0.0,0.0,0.0,0.0,0.0,0.0,0.0,0.0,0.0,0.0,3.2277,3.1712,3.1185,3.0645,3.0105,2.9892,2.9792,2.9792,2.9792,2.9792,2.9792,2.9792,2.9792,2.9792,2.9792,2.9792,2.9792,2.9792,2.9869,2.9972,2.9972,3.0126,3.0432,3.0911,3.1347,3.1813,3.2739,3.3339,3.377,3.4298,3.4668,3.4916,3.5034,3.5213,3.5407,3.5472,3.5504,3.5504,3.5504,3.5504,3.5504,3.5504,3.5504,3.5504,3.5504,3.5504,3.5504,3.5504,3.5504,3.5504,3.5504,3.5504,3.5504,3.5504,3.5504,3.5504,3.5504,3.5504,3.5504,3.5504,3.5504,3.5504,3.5504,3.5504,3.5504,3.5504,3.5504,3.5504,3.5504,3.5504,3.5504,3.5504,3.591,3.6305,3.6693,3.7433,3.7988,3.8274,3.85,3.8706,3.8882,3.8963,3.9115,0.0,0.0,0.0,0.0,0.0,0.0,0.0,0.0,0.0,0.0,0.0,0.0,0.0,0.0,0.0,0.0,0.0,0.0,0.0,0.0,0.0,0.0,0.0,0.0,0.0,0.0,0.0,0.0,0.0,0.0,3.1173,3.0809,3.0357,2.9817,2.9792,2.9792,2.9792,2.9792,2.9792,2.9792,2.9792,2.9792,2.9792,2.9792,2.9792,2.9792,2.9792,2.9895,3.0113,3.019,3.0457,3.0849,3.1384,3.1873,3.2417,3.3339,3.3942,3.438,3.4831,3.5096,3.5294,3.5294,3.5392,3.5504,3.5504,3.5504,3.5504,3.5504,3.5504,3.5504,3.5504,3.5504,3.5504,3.5504,3.5504,3.5504,3.5504,3.5504,3.5504,3.5504,3.5504,3.5504,3.5504,3.5504,3.5504,3.5504,3.5504,3.5504,3.5504,3.5504,3.5504,3.5504,3.5504,3.5504,3.5504,3.5504,3.5537,3.5572,3.5587,3.5619,3.5733,3.61,3.6461,3.6861,3.7565,3.8144,3.8667,3.8942,3.9185,3.9382,3.9408,3.953,0.0,0.0,0.0,0.0,0.0,0.0,0.0,0.0,0.0,0.0,0.0,0.0,0.0,0.0,0.0,0.0,0.0,0.0,0.0,0.0,0.0,0.0,0.0,0.0,0.0,0.0,0.0,0.0,3.2177,3.1712,3.067,3.0595,3.0344,2.9817,2.9792,2.9792,2.9792,2.9792,2.9792,2.9792,2.9792,2.9792,2.9792,2.9792,2.9792,2.9792,2.983,2.9934,3.0152,3.033,3.0672,3.1123,3.185,3.2381,3.2881,3.4011,3.4549,3.4798,3.5309,3.5504,3.5504,3.5504,3.5504,3.5504,3.5504,3.5504,3.5504,3.5504,3.5504,3.5504,3.5504,3.5504,3.5504,3.5504,3.5504,3.5504,3.5504,3.5504,3.5504,3.5504,3.5504,3.5504,3.5504,3.5504,3.5504,3.5504,3.5504,3.5504,3.5504,3.5504,3.5504,3.5504,3.5504,3.5504,3.5504,3.5504,3.5554,3.5688,3.572,3.5847,3.6196,3.6414,3.6723,3.7194,3.7682,3.8201,3.8805,3.9121,3.9441,3.9703,3.9833,3.9977,2.3667,0.0,0.0,0.0,0.0,0.0,0.0,2.8743,0.0,0.0,0.0,0.0,0.0,0.0,0.0,0.0,0.0,0.0,0.0,0.0,0.0,0.0,0.0,0.0,0.0,0.0,0.0,0.0,3.1273,3.0922,3.0633,3.0231,2.9942,2.9792,2.9792,2.9792,2.9792,2.9792,2.9792,2.9792,2.9792,2.9792,2.9792,2.9934,3.0011,3.0049,3.0318,3.0647,3.0973,3.0861,3.1371,3.2273,3.2775,3.3374,3.3991,3.4568,3.4883,3.5082,3.5407,3.5504,3.5504,3.5504,3.5504,3.5504,3.5504,3.5504,3.5504,3.5504,3.5504,3.5504,3.5504,3.5504,3.5504,3.5504,3.5504,3.5504,3.5504,3.5504,3.5504,3.5504,3.5504,3.5504,3.5504,3.5504,3.5504,3.5504,3.5504,3.5504,3.5504,3.5504,3.5504,3.5504,3.5504,3.5504,3.5504,3.5504,3.5554,3.5688,3.5831,3.6068,3.6383,3.6662,3.6952,3.7328,3.7828,3.8258,3.8667,3.9175,3.959,3.9849,3.9986,4.0045,0.0,0.0,0.0,0.0,0.0,0.0,2.8447,2.8922,2.9374,0.0,0.0,0.0,0.0,0.0,0.0,0.0,0.0,0.0,0.0,0.0,0.0,0.0,0.0,0.0,0.0,3.1863,3.165,3.111,3.0783,3.052,3.0281,2.9967,2.9792,2.9792,2.9792,2.9792,2.9792,2.9792,2.9792,2.9792,2.9792,2.9792,2.9792,3.0011,3.0152,3.0267,3.0647,3.1123,3.1629,3.1703,3.22,3.2988,3.3444,3.3991,3.4563,3.4902,3.5115,3.5213,3.5439,3.5504,3.5504,3.5504,3.5504,3.5504,3.5504,3.5504,3.5504,3.5504,3.5504,3.5504,3.5504,3.5504,3.5504,3.5504,3.5504,3.5504,3.5504,3.5504,3.5504,3.5504,3.5504,3.5504,3.5504,3.5504,3.5504,3.5504,3.5504,3.5504,3.5504,3.5504,3.5504,3.5504,3.5504,3.5522,3.5572,3.5572,3.5718,3.6022,3.6195,3.6507,3.6984,3.7252,3.7562,3.7899,3.8286,3.8678,3.9077,3.9352,3.9668,3.9986,4.0045,4.0096,0.0,0.0,0.0,0.0,0.0,0.0,2.9013,2.9275,2.9509,0.0,0.0,0.0,0.0,0.0,0.0,0.0,0.0,0.0,0.0,0.0,0.0,0.0,0.0,0.0,3.1311,3.1298,3.1085,3.0557,3.052,3.0306,2.9817,2.9792,2.9792,2.9792,2.9792,2.9792,2.9792,2.9792,2.9792,2.9792,2.983,2.983,2.983,3.0126,3.033,3.0545,3.1011,3.1629,3.2309,3.269,3.3094,3.3479,3.3991,3.4414,3.4831,3.5129,3.5213,3.5261,3.5439,3.5504,3.5504,3.5504,3.5504,3.5504,3.5504,3.5504,3.5504,3.5504,3.5504,3.5504,3.5504,3.5504,3.5504,3.5504,3.5504,3.5504,3.5504,3.5504,3.5504,3.5504,3.5504,3.5504,3.5504,3.5504,3.5504,3.5504,3.5504,3.5504,3.5504,3.5504,3.5504,3.5504,3.5504,3.5539,3.5688,3.572,3.5958,3.6492,3.6693,3.7089,3.773,3.8001,3.8315,3.8639,3.8914,3.9265,3.9729,3.959,3.9746,4.0096,4.0096,4.0096,0.0,0.0,0.0,0.0,0.0,0.0,2.9223,2.9521,2.974,0.0,0.0,0.0,0.0,0.0,0.0,0.0,0.0,0.0,0.0,0.0,0.0,0.0,0.0,0.0,3.0809,3.0771,3.0532,2.9993,2.9955,2.9905,2.9804,2.9792,2.9792,2.9792,2.9792,2.9792,2.9792,2.9792,2.9792,2.9792,2.9972,3.0049,3.0049,3.0748,3.1134,3.1331,3.2223,3.2818,3.3262,3.3825,3.4128,3.4196,3.4481,3.4898,3.5341,3.5407,3.5439,3.5439,3.5504,3.5504,3.5504,3.5504,3.5504,3.5504,3.5504,3.5504,3.5504,3.5504,3.5504,3.5504,3.5504,3.5504,3.5504,3.5504,3.5504,3.5504,3.5504,3.5504,3.5504,3.5504,3.5504,3.5504,3.5504,3.5504,3.5504,3.5504,3.5504,3.5504,3.5504,3.5504,3.5504,3.5504,3.5504,3.5539,3.5688,3.5863,3.6163,3.6631,3.7043,3.7506,3.8001,3.8427,3.8733,3.8914,3.9228,3.9563,3.9875,3.9824,3.991,4.0096,4.0096,4.0096,0.0,0.0,0.0,2.7644,0.0,0.0,0.0,2.9702,2.9792,0.0,0.0,0.0,0.0,0.0,0.0,0.0,0.0,0.0,0.0,0.0,0.0,0.0,0.0,0.0,3.0231,3.0206,3.0093,2.9817,2.9792,2.9792,2.9792,2.9792,2.9792,2.9792,2.9792,2.9792,2.9792,2.9792,2.9869,2.9934,3.0152,3.033,3.0571,3.1246,3.1713,3.1992,3.2854,3.3465,3.3845,3.4332,3.465,3.4817,3.4916,3.5162,3.5504,3.5504,3.5504,3.5504,3.5504,3.5504,3.5504,3.5504,3.5504,3.5504,3.5504,3.5504,3.5504,3.5504,3.5504,3.5504,3.5504,3.5504,3.5504,3.5504,3.5504,3.5504,3.5504,3.5504,3.5504,3.5504,3.5504,3.5504,3.5504,3.5504,3.5504,3.5504,3.5504,3.5504,3.5504,3.5504,3.5504,3.5504,3.5504,3.5587,3.5831,3.61,3.6476,3.7013,3.7549,3.8042,3.8539,3.8996,3.9345,3.954,3.9729,3.9875,3.9986,3.9986,4.0037,4.0096,4.0096,4.0096,0.0,0.0,0.0,0.0,0.0,2.9287,0.0,0.0,0.0,0.0,0.0,0.0,0.0,0.0,0.0,0.0,0.0,0.0,0.0,0.0,0.0,0.0,0.0,0.0,2.9792,2.9792,2.9792,2.9792,2.9792,2.9792,2.9792,2.9792,2.9792,2.9792,2.9792,2.9792,2.9792,2.9792,2.9895,3.0113,3.0368,3.071,3.1123,3.1773,3.2318,3.2725,3.3451,3.3982,3.4332,3.4683,3.4997,3.5261,3.5213,3.5326,3.5504,3.5504,3.5504,3.5504,3.5504,3.5504,3.5504,3.5504,3.5504,3.5504,3.5504,3.5504,3.5504,3.5504,3.5504,3.5504,3.5504,3.5504,3.5504,3.5504,3.5504,3.5504,3.5504,3.5504,3.5504,3.5504,3.5504,3.5504,3.5504,3.5504,3.5504,3.5504,3.5504,3.5504,3.5504,3.5504,3.5504,3.5504,3.5504,3.5619,3.5973,3.6304,3.6754,3.7358,3.7972,3.8511,3.8969,3.9494,3.9858,4.0113,4.0096,4.0096,4.0096,4.0096,4.0096,4.0096,4.0096,4.0096,0.0,0.0,0.0,0.0,2.8922,0.0,0.0,0.0,0.0,0.0,0.0,0.0,0.0,0.0,0.0,0.0,0.0,0.0,0.0,0.0,0.0,0.0,0.0,0.0,0.0,2.9792,2.9792,2.9792,2.9792,2.9792,2.9792,2.9792,2.9792,2.9792,2.9792,2.9792,2.9792,2.9792,2.9895,3.0113,3.0685,3.111,3.1479,3.2605,3.3325,3.3693,3.4438,3.4868,3.5082,3.5326,3.5439,3.5439,3.5261,3.5326,3.5504,3.5504,3.5504,3.5504,3.5504,3.5504,3.5504,3.5504,3.5504,3.5504,3.5504,3.5504,3.5504,3.5504,3.5504,3.5504,3.5504,3.5504,3.5504,3.5504,3.5504,3.5504,3.5504,3.5504,3.5504,3.5504,3.5504,3.5504,3.5504,3.5504,3.5504,3.5504,3.5504,3.5504,3.5504,3.5504,3.5504,3.5504,3.5504,3.5619,3.5973,3.6304,3.6754,3.7358,3.8017,3.8572,3.8969,3.9573,3.9935,4.0113,4.0096,4.0096,4.0096,4.0096,4.0096,4.0096,4.0096,4.0096,0.0,0.0,0.0,0.0,0.0,0.0,2.974,0.0,2.9792,0.0,0.0,0.0,0.0,0.0,0.0,0.0,2.9792,0.0,0.0,0.0,0.0,0.0,0.0,0.0,0.0,0.0,0.0,0.0,2.9792,2.9792,2.9792,2.9792,2.9869,2.9972,2.9972,3.0088,3.0318,3.0318,3.0533,3.096,3.1408,3.1946,3.2569,3.3374,3.3977,3.4351,3.4868,3.5115,3.5213,3.5439,3.5504,3.5504,3.5407,3.5439,3.5504,3.5504,3.5504,3.5504,3.5504,3.5504,3.5504,3.5504,3.5504,3.5504,3.5504,3.5504,3.5504,3.5504,3.5504,3.5504,3.5504,3.5504,3.5504,3.5504,3.5504,3.5504,3.5504,3.5504,3.5504,3.5504,3.5504,3.5504,3.5504,3.5504,3.5639,3.6013,3.6073,3.6207,3.6567,3.6297,3.6073,3.6073,3.5729,3.5619,3.5973,3.6304,3.6816,3.7537,3.8488,3.9191,3.952,3.9833,4.0037,4.0096,4.0096,4.0096,4.0096,4.0096,4.0096,4.0096,4.0096,4.0096,2.7794,0.0,0.0,0.0,0.0,0.0,0.0,0.0,0.0,0.0,0.0,0.0,0.0,0.0,0.0,0.0,0.0,0.0,0.0,0.0,0.0,0.0,0.0,0.0,0.0,0.0,0.0,0.0,0.0,2.9792,2.9792,2.9792,2.9908,3.0075,3.0152,3.0381,3.0773,3.0836,3.1161,3.174,3.2092,3.269,3.3479,3.4011,3.4481,3.4865,3.5162,3.5294,3.5294,3.5439,3.5504,3.5504,3.5504,3.5504,3.5504,3.5504,3.5504,3.5504,3.5504,3.5504,3.5504,3.5504,3.5504,3.5504,3.5504,3.5504,3.5504,3.5504,3.5504,3.5504,3.5504,3.5504,3.5504,3.5504,3.5504,3.5504,3.5504,3.5504,3.5504,3.5504,3.5654,3.5774,3.5774,3.5774,3.5938,3.6417,3.6626,3.6896,3.7345,3.7015,3.6705,3.6558,3.6124,3.5911,3.6115,3.6383,3.6938,3.7847,3.8849,3.9547,3.9833,4.0011,4.0096,4.0096,4.0096,4.0096,4.0096,4.0096,4.0096,4.0096,4.0096,4.0096,0.0,0.0,0.0,2.938,0.0,0.0,0.0,0.0,2.9792,0.0,0.0,0.0,0.0,0.0,0.0,0.0,0.0,0.0,0.0,0.0,0.0,0.0,0.0,0.0,0.0,0.0,0.0,0.0,0.0,0.0,2.9792,2.9792,2.9908,3.0075,3.0292,3.0596,3.0986,3.1134,3.1492,3.2092,3.2489,3.308,3.3796,3.4399,3.4865,3.5195,3.5392,3.5504,3.5504,3.5504,3.5504,3.5504,3.5504,3.5504,3.5504,3.5504,3.5504,3.5504,3.5504,3.5504,3.5504,3.5504,3.5504,3.5504,3.5504,3.5504,3.5504,3.5504,3.5504,3.5504,3.5504,3.5504,3.5504,3.5504,3.5504,3.5504,3.5504,3.5504,3.5504,3.5504,3.6013,3.6447,3.6447,3.6447,3.6462,3.6492,3.7,3.7389,3.7404,3.7389,3.7218,3.6721,3.6664,3.6622,3.6475,3.66,3.718,3.8307,3.8898,3.9355,3.9703,3.9961,4.0096,4.0096,4.0096,4.0096,4.0096,4.0096,4.0096,4.0096,4.0096,4.0096,0.0,0.0,3.0626,3.0276,0.0,0.0,0.0,0.0,0.0,0.0,0.0,0.0,0.0,0.0,0.0,0.0,0.0,0.0,0.0,0.0,0.0,0.0,0.0,0.0,0.0,0.0,0.0,0.0,0.0,0.0,2.9792,2.9792,2.9934,3.0292,3.0634,3.1086,3.174,3.2151,3.2654,3.3234,3.3632,3.4065,3.4539,3.4883,3.5162,3.5392,3.5472,3.5504,3.5504,3.5504,3.5504,3.5504,3.5504,3.5504,3.5504,3.5504,3.5504,3.5504,3.5504,3.5504,3.5504,3.5504,3.5504,3.5504,3.5504,3.5504,3.5504,3.5504,3.5504,3.5504,3.5504,3.5504,3.5504,3.5504,3.5504,3.5504,3.5504,3.5504,3.5624,3.6073,3.6327,3.6611,3.703,3.7449,3.7749,3.7749,3.7928,3.8212,3.8676,3.8347,3.8042,3.8019,3.7733,3.772,3.812,3.8807,3.9457,3.9975,4.0529,4.0727,4.0431,4.0702,4.0595,4.0113,4.0096,4.0096,4.0096,4.0096,4.0096,4.0096,4.0096,4.0096,3.1207,3.1317,0.0,3.0972,3.0884,0.0,3.0444,0.0,0.0,0.0,0.0,0.0,0.0,0.0,0.0,0.0,0.0,0.0,0.0,2.9792,0.0,0.0,0.0,0.0,0.0,0.0,0.0,0.0,0.0,0.0,0.0,2.9869,3.0088,3.0482,3.0973,3.1556,3.2309,3.2917,3.3479,3.4025,3.4346,3.4683,3.5001,3.5148,3.5326,3.5504,3.5504,3.5504,3.5504,3.5504,3.5504,3.5504,3.5504,3.5504,3.5504,3.5504,3.5504,3.5504,3.5504,3.5504,3.5504,3.5504,3.5504,3.5504,3.5504,3.5504,3.5504,3.5504,3.5504,3.5504,3.5504,3.5504,3.5504,3.5504,3.5504,3.5504,3.5504,3.5684,3.5983,3.6402,3.6851,3.7285,3.7689,3.8317,3.8712,3.8542,3.8707,3.9043,3.9621,3.9289,3.9067,3.9135,3.8974,3.9018,3.9471,4.0282,4.0831,4.1041,4.1481,4.1615,4.1282,4.1461,4.1238,4.0493,4.0476,4.0367,4.0096,4.0096,4.0096,4.0096,4.0096,4.0096]}]]